<?xml version="1.0" encoding="UTF-8"?>
<gpx version="1.1" creator="https://www.youtrack.es" xsi:schemaLocation="http://www.topografix.com/GPX/1/1 http://www.topografix.com/GPX/1/1/gpx.xsd http://www.garmin.com/xmlschemas/GpxExtensions/v3 http://www.garmin.com/xmlschemas/GpxExtensionsv3.xsd http://www.garmin.com/xmlschemas/TrackPointExtension/v1 http://www.garmin.com/xmlschemas/TrackPointExtensionv1.xsd" xmlns:gpxtpx="http://www.garmin.com/xmlschemas/TrackPointExtension/v1" xmlns:gpxx="http://www.garmin.com/xmlschemas/GpxExtensions/v3" xmlns:xsi="http://www.w3.org/2001/XMLSchema-instance">
  <metadata>
    <link href="https://www.youtrack.es">
      <text>YouTrack.es</text>
    </link>
    <time>2026-05-07T22:28:42Z</time>
  </metadata>
  <trk>
    <src>https://www.youtrack.es</src>
    <link href="https://www.youtrack.es/ruta/2424-nuria">
      <text>YouTrack.es</text>
    </link>
    <trkseg>
      <trkpt lat="42.397392" lon="2.154472">
        <ele>1811.24</ele>
        <time>2014-06-22T08:44:03Z</time>
      </trkpt>
      <trkpt lat="42.397484" lon="2.154417">
        <ele>1811.41</ele>
        <time>2014-06-22T08:44:10Z</time>
      </trkpt>
      <trkpt lat="42.397564" lon="2.154332">
        <ele>1812.81</ele>
        <time>2014-06-22T08:44:18Z</time>
      </trkpt>
      <trkpt lat="42.397654" lon="2.154268">
        <ele>1813.89</ele>
        <time>2014-06-22T08:44:27Z</time>
      </trkpt>
      <trkpt lat="42.397779" lon="2.154239">
        <ele>1813.87</ele>
        <time>2014-06-22T08:44:37Z</time>
      </trkpt>
      <trkpt lat="42.397883" lon="2.154291">
        <ele>1814.29</ele>
        <time>2014-06-22T08:44:45Z</time>
      </trkpt>
      <trkpt lat="42.398043" lon="2.154372">
        <ele>1815.28</ele>
        <time>2014-06-22T08:44:57Z</time>
      </trkpt>
      <trkpt lat="42.398189" lon="2.154431">
        <ele>1817.04</ele>
        <time>2014-06-22T08:45:08Z</time>
      </trkpt>
      <trkpt lat="42.398295" lon="2.154499">
        <ele>1817.69</ele>
        <time>2014-06-22T08:45:17Z</time>
      </trkpt>
      <trkpt lat="42.398415" lon="2.154609">
        <ele>1818.66</ele>
        <time>2014-06-22T08:45:27Z</time>
      </trkpt>
      <trkpt lat="42.398468" lon="2.154742">
        <ele>1820.28</ele>
        <time>2014-06-22T08:45:35Z</time>
      </trkpt>
      <trkpt lat="42.398525" lon="2.154882">
        <ele>1821.50</ele>
        <time>2014-06-22T08:45:43Z</time>
      </trkpt>
      <trkpt lat="42.398620" lon="2.155056">
        <ele>1822.23</ele>
        <time>2014-06-22T08:45:54Z</time>
      </trkpt>
      <trkpt lat="42.398727" lon="2.155180">
        <ele>1822.62</ele>
        <time>2014-06-22T08:46:03Z</time>
      </trkpt>
      <trkpt lat="42.398833" lon="2.155277">
        <ele>1823.41</ele>
        <time>2014-06-22T08:46:12Z</time>
      </trkpt>
      <trkpt lat="42.398863" lon="2.155284">
        <ele>1823.67</ele>
        <time>2014-06-22T08:46:17Z</time>
      </trkpt>
      <trkpt lat="42.398906" lon="2.155312">
        <ele>1823.46</ele>
        <time>2014-06-22T08:46:22Z</time>
      </trkpt>
      <trkpt lat="42.398968" lon="2.155345">
        <ele>1824.68</ele>
        <time>2014-06-22T08:46:28Z</time>
      </trkpt>
      <trkpt lat="42.399082" lon="2.155429">
        <ele>1826.29</ele>
        <time>2014-06-22T08:46:38Z</time>
      </trkpt>
      <trkpt lat="42.399082" lon="2.155526">
        <ele>1826.62</ele>
        <time>2014-06-22T08:46:44Z</time>
      </trkpt>
      <trkpt lat="42.399032" lon="2.155631">
        <ele>1828.69</ele>
        <time>2014-06-22T08:46:52Z</time>
      </trkpt>
      <trkpt lat="42.398992" lon="2.155701">
        <ele>1829.68</ele>
        <time>2014-06-22T08:46:58Z</time>
      </trkpt>
      <trkpt lat="42.398943" lon="2.155828">
        <ele>1830.87</ele>
        <time>2014-06-22T08:47:07Z</time>
      </trkpt>
      <trkpt lat="42.398935" lon="2.155850">
        <ele>1830.89</ele>
        <time>2014-06-22T08:47:09Z</time>
      </trkpt>
      <trkpt lat="42.398884" lon="2.155932">
        <ele>1833.64</ele>
        <time>2014-06-22T08:47:17Z</time>
      </trkpt>
      <trkpt lat="42.398850" lon="2.156039">
        <ele>1836.03</ele>
        <time>2014-06-22T08:47:24Z</time>
      </trkpt>
      <trkpt lat="42.398824" lon="2.156174">
        <ele>1837.41</ele>
        <time>2014-06-22T08:47:32Z</time>
      </trkpt>
      <trkpt lat="42.398786" lon="2.156259">
        <ele>1839.10</ele>
        <time>2014-06-22T08:47:39Z</time>
      </trkpt>
      <trkpt lat="42.398753" lon="2.156274">
        <ele>1840.28</ele>
        <time>2014-06-22T08:47:44Z</time>
      </trkpt>
      <trkpt lat="42.398734" lon="2.156301">
        <ele>1841.29</ele>
        <time>2014-06-22T08:47:47Z</time>
      </trkpt>
      <trkpt lat="42.398727" lon="2.156358">
        <ele>1841.89</ele>
        <time>2014-06-22T08:47:51Z</time>
      </trkpt>
      <trkpt lat="42.398742" lon="2.156486">
        <ele>1843.68</ele>
        <time>2014-06-22T08:47:59Z</time>
      </trkpt>
      <trkpt lat="42.398749" lon="2.156613">
        <ele>1845.43</ele>
        <time>2014-06-22T08:48:07Z</time>
      </trkpt>
      <trkpt lat="42.398777" lon="2.156737">
        <ele>1847.03</ele>
        <time>2014-06-22T08:48:16Z</time>
      </trkpt>
      <trkpt lat="42.398810" lon="2.156811">
        <ele>1848.63</ele>
        <time>2014-06-22T08:48:23Z</time>
      </trkpt>
      <trkpt lat="42.398868" lon="2.156907">
        <ele>1850.21</ele>
        <time>2014-06-22T08:48:32Z</time>
      </trkpt>
      <trkpt lat="42.398906" lon="2.157019">
        <ele>1852.05</ele>
        <time>2014-06-22T08:48:40Z</time>
      </trkpt>
      <trkpt lat="42.398914" lon="2.157152">
        <ele>1853.01</ele>
        <time>2014-06-22T08:48:47Z</time>
      </trkpt>
      <trkpt lat="42.398915" lon="2.157173">
        <ele>1853.41</ele>
        <time>2014-06-22T08:48:48Z</time>
      </trkpt>
      <trkpt lat="42.398941" lon="2.157318">
        <ele>1853.21</ele>
        <time>2014-06-22T08:48:54Z</time>
      </trkpt>
      <trkpt lat="42.398963" lon="2.157485">
        <ele>1853.89</ele>
        <time>2014-06-22T08:48:59Z</time>
      </trkpt>
      <trkpt lat="42.399002" lon="2.157533">
        <ele>1855.07</ele>
        <time>2014-06-22T08:49:04Z</time>
      </trkpt>
      <trkpt lat="42.399085" lon="2.157625">
        <ele>1855.82</ele>
        <time>2014-06-22T08:49:11Z</time>
      </trkpt>
      <trkpt lat="42.399160" lon="2.157717">
        <ele>1856.64</ele>
        <time>2014-06-22T08:49:16Z</time>
      </trkpt>
      <trkpt lat="42.399172" lon="2.157729">
        <ele>1857.05</ele>
        <time>2014-06-22T08:49:17Z</time>
      </trkpt>
      <trkpt lat="42.399208" lon="2.157817">
        <ele>1858.84</ele>
        <time>2014-06-22T08:49:26Z</time>
      </trkpt>
      <trkpt lat="42.399211" lon="2.157837">
        <ele>1860.29</ele>
        <time>2014-06-22T08:49:29Z</time>
      </trkpt>
      <trkpt lat="42.399270" lon="2.157853">
        <ele>1861.47</ele>
        <time>2014-06-22T08:49:35Z</time>
      </trkpt>
      <trkpt lat="42.399319" lon="2.157918">
        <ele>1862.44</ele>
        <time>2014-06-22T08:49:42Z</time>
      </trkpt>
      <trkpt lat="42.399365" lon="2.158013">
        <ele>1863.02</ele>
        <time>2014-06-22T08:49:49Z</time>
      </trkpt>
      <trkpt lat="42.399384" lon="2.158035">
        <ele>1863.41</ele>
        <time>2014-06-22T08:49:51Z</time>
      </trkpt>
      <trkpt lat="42.399415" lon="2.158082">
        <ele>1864.10</ele>
        <time>2014-06-22T08:49:54Z</time>
      </trkpt>
      <trkpt lat="42.399438" lon="2.158146">
        <ele>1864.23</ele>
        <time>2014-06-22T08:49:58Z</time>
      </trkpt>
      <trkpt lat="42.399465" lon="2.158249">
        <ele>1864.67</ele>
        <time>2014-06-22T08:50:04Z</time>
      </trkpt>
      <trkpt lat="42.399510" lon="2.158327">
        <ele>1865.81</ele>
        <time>2014-06-22T08:50:10Z</time>
      </trkpt>
      <trkpt lat="42.399526" lon="2.158350">
        <ele>1866.05</ele>
        <time>2014-06-22T08:50:12Z</time>
      </trkpt>
      <trkpt lat="42.399605" lon="2.158443">
        <ele>1867.05</ele>
        <time>2014-06-22T08:50:19Z</time>
      </trkpt>
      <trkpt lat="42.399682" lon="2.158511">
        <ele>1869.49</ele>
        <time>2014-06-22T08:50:28Z</time>
      </trkpt>
      <trkpt lat="42.399707" lon="2.158555">
        <ele>1870.67</ele>
        <time>2014-06-22T08:50:34Z</time>
      </trkpt>
      <trkpt lat="42.399707" lon="2.158584">
        <ele>1872.49</ele>
        <time>2014-06-22T08:50:40Z</time>
      </trkpt>
      <trkpt lat="42.399657" lon="2.158567">
        <ele>1873.46</ele>
        <time>2014-06-22T08:50:46Z</time>
      </trkpt>
      <trkpt lat="42.399640" lon="2.158590">
        <ele>1874.22</ele>
        <time>2014-06-22T08:50:51Z</time>
      </trkpt>
      <trkpt lat="42.399611" lon="2.158588">
        <ele>1876.01</ele>
        <time>2014-06-22T08:50:58Z</time>
      </trkpt>
      <trkpt lat="42.399615" lon="2.158638">
        <ele>1877.44</ele>
        <time>2014-06-22T08:51:03Z</time>
      </trkpt>
      <trkpt lat="42.399597" lon="2.158709">
        <ele>1879.23</ele>
        <time>2014-06-22T08:51:10Z</time>
      </trkpt>
      <trkpt lat="42.399615" lon="2.158764">
        <ele>1880.06</ele>
        <time>2014-06-22T08:51:14Z</time>
      </trkpt>
      <trkpt lat="42.399672" lon="2.158872">
        <ele>1880.83</ele>
        <time>2014-06-22T08:51:22Z</time>
      </trkpt>
      <trkpt lat="42.399697" lon="2.158964">
        <ele>1881.64</ele>
        <time>2014-06-22T08:51:28Z</time>
      </trkpt>
      <trkpt lat="42.399753" lon="2.159105">
        <ele>1882.62</ele>
        <time>2014-06-22T08:51:37Z</time>
      </trkpt>
      <trkpt lat="42.399786" lon="2.159179">
        <ele>1883.29</ele>
        <time>2014-06-22T08:51:42Z</time>
      </trkpt>
      <trkpt lat="42.399819" lon="2.159235">
        <ele>1883.81</ele>
        <time>2014-06-22T08:51:46Z</time>
      </trkpt>
      <trkpt lat="42.399909" lon="2.159384">
        <ele>1885.04</ele>
        <time>2014-06-22T08:51:56Z</time>
      </trkpt>
      <trkpt lat="42.399967" lon="2.159510">
        <ele>1886.06</ele>
        <time>2014-06-22T08:52:04Z</time>
      </trkpt>
      <trkpt lat="42.399971" lon="2.159629">
        <ele>1886.81</ele>
        <time>2014-06-22T08:52:11Z</time>
      </trkpt>
      <trkpt lat="42.400012" lon="2.159831">
        <ele>1888.81</ele>
        <time>2014-06-22T08:52:18Z</time>
      </trkpt>
      <trkpt lat="42.400054" lon="2.159997">
        <ele>1889.46</ele>
        <time>2014-06-22T08:52:23Z</time>
      </trkpt>
      <trkpt lat="42.400106" lon="2.160158">
        <ele>1890.65</ele>
        <time>2014-06-22T08:52:28Z</time>
      </trkpt>
      <trkpt lat="42.400162" lon="2.160310">
        <ele>1891.66</ele>
        <time>2014-06-22T08:52:33Z</time>
      </trkpt>
      <trkpt lat="42.400255" lon="2.160474">
        <ele>1893.44</ele>
        <time>2014-06-22T08:52:39Z</time>
      </trkpt>
      <trkpt lat="42.400428" lon="2.160618">
        <ele>1895.48</ele>
        <time>2014-06-22T08:52:46Z</time>
      </trkpt>
      <trkpt lat="42.400526" lon="2.160736">
        <ele>1897.22</ele>
        <time>2014-06-22T08:52:52Z</time>
      </trkpt>
      <trkpt lat="42.400637" lon="2.160888">
        <ele>1899.64</ele>
        <time>2014-06-22T08:52:59Z</time>
      </trkpt>
      <trkpt lat="42.400714" lon="2.160947">
        <ele>1900.70</ele>
        <time>2014-06-22T08:53:04Z</time>
      </trkpt>
      <trkpt lat="42.400788" lon="2.161002">
        <ele>1902.48</ele>
        <time>2014-06-22T08:53:10Z</time>
      </trkpt>
      <trkpt lat="42.400850" lon="2.161096">
        <ele>1904.04</ele>
        <time>2014-06-22T08:53:18Z</time>
      </trkpt>
      <trkpt lat="42.400872" lon="2.161126">
        <ele>1904.82</ele>
        <time>2014-06-22T08:53:21Z</time>
      </trkpt>
      <trkpt lat="42.400930" lon="2.161218">
        <ele>1906.21</ele>
        <time>2014-06-22T08:53:29Z</time>
      </trkpt>
      <trkpt lat="42.400944" lon="2.161238">
        <ele>1906.89</ele>
        <time>2014-06-22T08:53:31Z</time>
      </trkpt>
      <trkpt lat="42.401044" lon="2.161336">
        <ele>1909.42</ele>
        <time>2014-06-22T08:53:42Z</time>
      </trkpt>
      <trkpt lat="42.401107" lon="2.161435">
        <ele>1910.83</ele>
        <time>2014-06-22T08:53:50Z</time>
      </trkpt>
      <trkpt lat="42.401169" lon="2.161505">
        <ele>1912.09</ele>
        <time>2014-06-22T08:53:58Z</time>
      </trkpt>
      <trkpt lat="42.401222" lon="2.161590">
        <ele>1913.68</ele>
        <time>2014-06-22T08:54:07Z</time>
      </trkpt>
      <trkpt lat="42.401318" lon="2.161693">
        <ele>1915.82</ele>
        <time>2014-06-22T08:54:19Z</time>
      </trkpt>
      <trkpt lat="42.401377" lon="2.161753">
        <ele>1917.06</ele>
        <time>2014-06-22T08:54:26Z</time>
      </trkpt>
      <trkpt lat="42.401384" lon="2.161760">
        <ele>1917.61</ele>
        <time>2014-06-22T08:54:27Z</time>
      </trkpt>
      <trkpt lat="42.401448" lon="2.161812">
        <ele>1919.09</ele>
        <time>2014-06-22T08:54:34Z</time>
      </trkpt>
      <trkpt lat="42.401463" lon="2.161827">
        <ele>1919.49</ele>
        <time>2014-06-22T08:54:36Z</time>
      </trkpt>
      <trkpt lat="42.401509" lon="2.161921">
        <ele>1921.22</ele>
        <time>2014-06-22T08:54:45Z</time>
      </trkpt>
      <trkpt lat="42.401549" lon="2.161977">
        <ele>1922.61</ele>
        <time>2014-06-22T08:54:51Z</time>
      </trkpt>
      <trkpt lat="42.401598" lon="2.162026">
        <ele>1924.27</ele>
        <time>2014-06-22T08:54:58Z</time>
      </trkpt>
      <trkpt lat="42.401676" lon="2.162106">
        <ele>1926.84</ele>
        <time>2014-06-22T08:55:09Z</time>
      </trkpt>
      <trkpt lat="42.401731" lon="2.162169">
        <ele>1929.30</ele>
        <time>2014-06-22T08:55:17Z</time>
      </trkpt>
      <trkpt lat="42.401796" lon="2.162212">
        <ele>1931.27</ele>
        <time>2014-06-22T08:55:25Z</time>
      </trkpt>
      <trkpt lat="42.401848" lon="2.162292">
        <ele>1932.82</ele>
        <time>2014-06-22T08:55:33Z</time>
      </trkpt>
      <trkpt lat="42.401895" lon="2.162383">
        <ele>1934.25</ele>
        <time>2014-06-22T08:55:41Z</time>
      </trkpt>
      <trkpt lat="42.401941" lon="2.162465">
        <ele>1935.62</ele>
        <time>2014-06-22T08:55:48Z</time>
      </trkpt>
      <trkpt lat="42.401996" lon="2.162576">
        <ele>1936.81</ele>
        <time>2014-06-22T08:55:57Z</time>
      </trkpt>
      <trkpt lat="42.402060" lon="2.162674">
        <ele>1938.07</ele>
        <time>2014-06-22T08:56:04Z</time>
      </trkpt>
      <trkpt lat="42.402111" lon="2.162779">
        <ele>1939.01</ele>
        <time>2014-06-22T08:56:11Z</time>
      </trkpt>
      <trkpt lat="42.402160" lon="2.162882">
        <ele>1939.81</ele>
        <time>2014-06-22T08:56:18Z</time>
      </trkpt>
      <trkpt lat="42.402212" lon="2.163015">
        <ele>1940.61</ele>
        <time>2014-06-22T08:56:26Z</time>
      </trkpt>
      <trkpt lat="42.402290" lon="2.163121">
        <ele>1941.04</ele>
        <time>2014-06-22T08:56:34Z</time>
      </trkpt>
      <trkpt lat="42.402367" lon="2.163187">
        <ele>1942.05</ele>
        <time>2014-06-22T08:56:41Z</time>
      </trkpt>
      <trkpt lat="42.402392" lon="2.163201">
        <ele>1942.63</ele>
        <time>2014-06-22T08:56:43Z</time>
      </trkpt>
      <trkpt lat="42.402477" lon="2.163284">
        <ele>1943.86</ele>
        <time>2014-06-22T08:56:52Z</time>
      </trkpt>
      <trkpt lat="42.402529" lon="2.163333">
        <ele>1945.25</ele>
        <time>2014-06-22T08:56:58Z</time>
      </trkpt>
      <trkpt lat="42.402542" lon="2.163353">
        <ele>1945.85</ele>
        <time>2014-06-22T08:57:00Z</time>
      </trkpt>
      <trkpt lat="42.402601" lon="2.163398">
        <ele>1947.66</ele>
        <time>2014-06-22T08:57:07Z</time>
      </trkpt>
      <trkpt lat="42.402697" lon="2.163457">
        <ele>1947.83</ele>
        <time>2014-06-22T08:57:13Z</time>
      </trkpt>
      <trkpt lat="42.402848" lon="2.163586">
        <ele>1949.47</ele>
        <time>2014-06-22T08:57:20Z</time>
      </trkpt>
      <trkpt lat="42.402892" lon="2.163669">
        <ele>1950.03</ele>
        <time>2014-06-22T08:57:25Z</time>
      </trkpt>
      <trkpt lat="42.402937" lon="2.163756">
        <ele>1951.02</ele>
        <time>2014-06-22T08:57:31Z</time>
      </trkpt>
      <trkpt lat="42.402997" lon="2.163818">
        <ele>1952.41</ele>
        <time>2014-06-22T08:57:37Z</time>
      </trkpt>
      <trkpt lat="42.403005" lon="2.163829">
        <ele>1952.85</ele>
        <time>2014-06-22T08:57:38Z</time>
      </trkpt>
      <trkpt lat="42.403111" lon="2.163901">
        <ele>1953.07</ele>
        <time>2014-06-22T08:57:46Z</time>
      </trkpt>
      <trkpt lat="42.403232" lon="2.164028">
        <ele>1953.89</ele>
        <time>2014-06-22T08:57:52Z</time>
      </trkpt>
      <trkpt lat="42.403309" lon="2.164111">
        <ele>1954.22</ele>
        <time>2014-06-22T08:57:57Z</time>
      </trkpt>
      <trkpt lat="42.403389" lon="2.164175">
        <ele>1954.81</ele>
        <time>2014-06-22T08:58:04Z</time>
      </trkpt>
      <trkpt lat="42.403427" lon="2.164232">
        <ele>1955.90</ele>
        <time>2014-06-22T08:58:10Z</time>
      </trkpt>
      <trkpt lat="42.403514" lon="2.164295">
        <ele>1957.07</ele>
        <time>2014-06-22T08:58:19Z</time>
      </trkpt>
      <trkpt lat="42.403583" lon="2.164327">
        <ele>1958.09</ele>
        <time>2014-06-22T08:58:26Z</time>
      </trkpt>
      <trkpt lat="42.403677" lon="2.164360">
        <ele>1959.02</ele>
        <time>2014-06-22T08:58:35Z</time>
      </trkpt>
      <trkpt lat="42.403746" lon="2.164390">
        <ele>1960.49</ele>
        <time>2014-06-22T08:58:43Z</time>
      </trkpt>
      <trkpt lat="42.403779" lon="2.164390">
        <ele>1961.62</ele>
        <time>2014-06-22T08:58:46Z</time>
      </trkpt>
      <trkpt lat="42.403888" lon="2.164473">
        <ele>1963.21</ele>
        <time>2014-06-22T08:58:55Z</time>
      </trkpt>
      <trkpt lat="42.403971" lon="2.164553">
        <ele>1964.83</ele>
        <time>2014-06-22T08:59:02Z</time>
      </trkpt>
      <trkpt lat="42.404068" lon="2.164625">
        <ele>1965.64</ele>
        <time>2014-06-22T08:59:10Z</time>
      </trkpt>
      <trkpt lat="42.404153" lon="2.164669">
        <ele>1966.27</ele>
        <time>2014-06-22T08:59:18Z</time>
      </trkpt>
      <trkpt lat="42.404233" lon="2.164737">
        <ele>1968.02</ele>
        <time>2014-06-22T08:59:25Z</time>
      </trkpt>
      <trkpt lat="42.404282" lon="2.164795">
        <ele>1968.63</ele>
        <time>2014-06-22T08:59:28Z</time>
      </trkpt>
      <trkpt lat="42.404398" lon="2.164832">
        <ele>1970.46</ele>
        <time>2014-06-22T08:59:34Z</time>
      </trkpt>
      <trkpt lat="42.404480" lon="2.164860">
        <ele>1971.90</ele>
        <time>2014-06-22T08:59:38Z</time>
      </trkpt>
      <trkpt lat="42.404620" lon="2.164917">
        <ele>1973.85</ele>
        <time>2014-06-22T08:59:45Z</time>
      </trkpt>
      <trkpt lat="42.404711" lon="2.164960">
        <ele>1973.90</ele>
        <time>2014-06-22T08:59:49Z</time>
      </trkpt>
      <trkpt lat="42.404728" lon="2.164984">
        <ele>1974.03</ele>
        <time>2014-06-22T08:59:50Z</time>
      </trkpt>
      <trkpt lat="42.404826" lon="2.165072">
        <ele>1974.62</ele>
        <time>2014-06-22T08:59:55Z</time>
      </trkpt>
      <trkpt lat="42.404925" lon="2.165188">
        <ele>1976.01</ele>
        <time>2014-06-22T09:00:01Z</time>
      </trkpt>
      <trkpt lat="42.404965" lon="2.165210">
        <ele>1976.46</ele>
        <time>2014-06-22T09:00:07Z</time>
      </trkpt>
      <trkpt lat="42.404968" lon="2.165205">
        <ele>1976.10</ele>
        <time>2014-06-22T09:00:08Z</time>
      </trkpt>
      <trkpt lat="42.404996" lon="2.165106">
        <ele>1976.02</ele>
        <time>2014-06-22T09:00:15Z</time>
      </trkpt>
      <trkpt lat="42.405059" lon="2.164999">
        <ele>1977.22</ele>
        <time>2014-06-22T09:00:24Z</time>
      </trkpt>
      <trkpt lat="42.405065" lon="2.164973">
        <ele>1977.62</ele>
        <time>2014-06-22T09:00:26Z</time>
      </trkpt>
      <trkpt lat="42.405094" lon="2.164934">
        <ele>1978.62</ele>
        <time>2014-06-22T09:00:30Z</time>
      </trkpt>
      <trkpt lat="42.405168" lon="2.164927">
        <ele>1980.47</ele>
        <time>2014-06-22T09:00:37Z</time>
      </trkpt>
      <trkpt lat="42.405238" lon="2.164876">
        <ele>1982.28</ele>
        <time>2014-06-22T09:00:44Z</time>
      </trkpt>
      <trkpt lat="42.405266" lon="2.164879">
        <ele>1982.68</ele>
        <time>2014-06-22T09:00:47Z</time>
      </trkpt>
      <trkpt lat="42.405357" lon="2.164915">
        <ele>1984.22</ele>
        <time>2014-06-22T09:00:57Z</time>
      </trkpt>
      <trkpt lat="42.405441" lon="2.164969">
        <ele>1986.42</ele>
        <time>2014-06-22T09:01:06Z</time>
      </trkpt>
      <trkpt lat="42.405531" lon="2.164993">
        <ele>1988.61</ele>
        <time>2014-06-22T09:01:14Z</time>
      </trkpt>
      <trkpt lat="42.405611" lon="2.164990">
        <ele>1991.06</ele>
        <time>2014-06-22T09:01:22Z</time>
      </trkpt>
      <trkpt lat="42.405675" lon="2.165020">
        <ele>1993.62</ele>
        <time>2014-06-22T09:01:30Z</time>
      </trkpt>
      <trkpt lat="42.405686" lon="2.165032">
        <ele>1993.87</ele>
        <time>2014-06-22T09:01:32Z</time>
      </trkpt>
      <trkpt lat="42.405738" lon="2.165074">
        <ele>1996.25</ele>
        <time>2014-06-22T09:01:39Z</time>
      </trkpt>
      <trkpt lat="42.405796" lon="2.165089">
        <ele>1997.22</ele>
        <time>2014-06-22T09:01:47Z</time>
      </trkpt>
      <trkpt lat="42.405844" lon="2.165105">
        <ele>1998.84</ele>
        <time>2014-06-22T09:01:54Z</time>
      </trkpt>
      <trkpt lat="42.405926" lon="2.165199">
        <ele>2001.43</ele>
        <time>2014-06-22T09:02:07Z</time>
      </trkpt>
      <trkpt lat="42.405980" lon="2.165308">
        <ele>2002.67</ele>
        <time>2014-06-22T09:02:16Z</time>
      </trkpt>
      <trkpt lat="42.406012" lon="2.165395">
        <ele>2004.21</ele>
        <time>2014-06-22T09:02:24Z</time>
      </trkpt>
      <trkpt lat="42.406060" lon="2.165478">
        <ele>2006.27</ele>
        <time>2014-06-22T09:02:33Z</time>
      </trkpt>
      <trkpt lat="42.406078" lon="2.165484">
        <ele>2006.61</ele>
        <time>2014-06-22T09:02:35Z</time>
      </trkpt>
      <trkpt lat="42.406121" lon="2.165548">
        <ele>2008.61</ele>
        <time>2014-06-22T09:02:43Z</time>
      </trkpt>
      <trkpt lat="42.406151" lon="2.165587">
        <ele>2009.63</ele>
        <time>2014-06-22T09:02:48Z</time>
      </trkpt>
      <trkpt lat="42.406313" lon="2.165608">
        <ele>2176.97</ele>
        <time>2014-08-11T06:41:46Z</time>
      </trkpt>
      <trkpt lat="42.406320" lon="2.165602">
        <ele>2177.15</ele>
        <time>2014-08-11T06:41:47Z</time>
      </trkpt>
      <trkpt lat="42.406326" lon="2.165597">
        <ele>2177.32</ele>
        <time>2014-08-11T06:41:48Z</time>
      </trkpt>
      <trkpt lat="42.406347" lon="2.165595">
        <ele>2178.28</ele>
        <time>2014-08-11T06:41:51Z</time>
      </trkpt>
      <trkpt lat="42.406402" lon="2.165581">
        <ele>2180.96</ele>
        <time>2014-08-11T06:42:01Z</time>
      </trkpt>
      <trkpt lat="42.406406" lon="2.165576">
        <ele>2181.17</ele>
        <time>2014-08-11T06:42:02Z</time>
      </trkpt>
      <trkpt lat="42.406466" lon="2.165510">
        <ele>2183.76</ele>
        <time>2014-08-11T06:42:15Z</time>
      </trkpt>
      <trkpt lat="42.406500" lon="2.165420">
        <ele>2184.44</ele>
        <time>2014-08-11T06:42:27Z</time>
      </trkpt>
      <trkpt lat="42.406519" lon="2.165372">
        <ele>2185.35</ele>
        <time>2014-08-11T06:42:38Z</time>
      </trkpt>
      <trkpt lat="42.406570" lon="2.165301">
        <ele>2188.61</ele>
        <time>2014-08-11T06:42:50Z</time>
      </trkpt>
      <trkpt lat="42.406579" lon="2.165233">
        <ele>2189.11</ele>
        <time>2014-08-11T06:43:00Z</time>
      </trkpt>
      <trkpt lat="42.406628" lon="2.165133">
        <ele>2191.16</ele>
        <time>2014-08-11T06:43:14Z</time>
      </trkpt>
      <trkpt lat="42.406716" lon="2.165068">
        <ele>2194.19</ele>
        <time>2014-08-11T06:43:30Z</time>
      </trkpt>
      <trkpt lat="42.406804" lon="2.165002">
        <ele>2198.39</ele>
        <time>2014-08-11T06:43:45Z</time>
      </trkpt>
      <trkpt lat="42.406856" lon="2.164925">
        <ele>2200.42</ele>
        <time>2014-08-11T06:44:00Z</time>
      </trkpt>
      <trkpt lat="42.406890" lon="2.164861">
        <ele>2201.97</ele>
        <time>2014-08-11T06:44:15Z</time>
      </trkpt>
      <trkpt lat="42.406947" lon="2.164806">
        <ele>2204.14</ele>
        <time>2014-08-11T06:44:28Z</time>
      </trkpt>
      <trkpt lat="42.407005" lon="2.164712">
        <ele>2205.30</ele>
        <time>2014-08-11T06:44:41Z</time>
      </trkpt>
      <trkpt lat="42.407013" lon="2.164705">
        <ele>2205.43</ele>
        <time>2014-08-11T06:44:43Z</time>
      </trkpt>
      <trkpt lat="42.407068" lon="2.164654">
        <ele>2207.92</ele>
        <time>2014-08-11T06:44:53Z</time>
      </trkpt>
      <trkpt lat="42.407117" lon="2.164593">
        <ele>2209.38</ele>
        <time>2014-08-11T06:45:05Z</time>
      </trkpt>
      <trkpt lat="42.407202" lon="2.164571">
        <ele>2212.71</ele>
        <time>2014-08-11T06:45:18Z</time>
      </trkpt>
      <trkpt lat="42.407275" lon="2.164502">
        <ele>2214.81</ele>
        <time>2014-08-11T06:45:33Z</time>
      </trkpt>
      <trkpt lat="42.407331" lon="2.164408">
        <ele>2215.68</ele>
        <time>2014-08-11T06:45:48Z</time>
      </trkpt>
      <trkpt lat="42.407393" lon="2.164404">
        <ele>2217.79</ele>
        <time>2014-08-11T06:46:04Z</time>
      </trkpt>
      <trkpt lat="42.407452" lon="2.164385">
        <ele>2219.75</ele>
        <time>2014-08-11T06:46:14Z</time>
      </trkpt>
      <trkpt lat="42.407506" lon="2.164318">
        <ele>2220.90</ele>
        <time>2014-08-11T06:46:26Z</time>
      </trkpt>
      <trkpt lat="42.407510" lon="2.164307">
        <ele>2220.53</ele>
        <time>2014-08-11T06:46:27Z</time>
      </trkpt>
      <trkpt lat="42.407523" lon="2.164286">
        <ele>2220.47</ele>
        <time>2014-08-11T06:46:39Z</time>
      </trkpt>
      <trkpt lat="42.407628" lon="2.164233">
        <ele>2223.77</ele>
        <time>2014-08-11T06:46:52Z</time>
      </trkpt>
      <trkpt lat="42.407715" lon="2.164178">
        <ele>2226.76</ele>
        <time>2014-08-11T06:47:03Z</time>
      </trkpt>
      <trkpt lat="42.407743" lon="2.164099">
        <ele>2224.39</ele>
        <time>2014-08-11T06:47:17Z</time>
      </trkpt>
      <trkpt lat="42.407814" lon="2.164083">
        <ele>2228.22</ele>
        <time>2014-08-11T06:47:35Z</time>
      </trkpt>
      <trkpt lat="42.407867" lon="2.164008">
        <ele>2230.13</ele>
        <time>2014-08-11T06:47:47Z</time>
      </trkpt>
      <trkpt lat="42.407936" lon="2.163965">
        <ele>2232.71</ele>
        <time>2014-08-11T06:47:58Z</time>
      </trkpt>
      <trkpt lat="42.407991" lon="2.163896">
        <ele>2235.19</ele>
        <time>2014-08-11T06:48:12Z</time>
      </trkpt>
      <trkpt lat="42.408057" lon="2.163845">
        <ele>2237.56</ele>
        <time>2014-08-11T06:48:26Z</time>
      </trkpt>
      <trkpt lat="42.408113" lon="2.163793">
        <ele>2238.28</ele>
        <time>2014-08-11T06:48:37Z</time>
      </trkpt>
      <trkpt lat="42.408141" lon="2.163821">
        <ele>2240.69</ele>
        <time>2014-08-11T06:48:54Z</time>
      </trkpt>
      <trkpt lat="42.408132" lon="2.163920">
        <ele>2241.93</ele>
        <time>2014-08-11T06:49:10Z</time>
      </trkpt>
      <trkpt lat="42.408196" lon="2.163880">
        <ele>2245.60</ele>
        <time>2014-08-11T06:49:25Z</time>
      </trkpt>
      <trkpt lat="42.408223" lon="2.163763">
        <ele>2245.24</ele>
        <time>2014-08-11T06:49:44Z</time>
      </trkpt>
      <trkpt lat="42.408226" lon="2.163728">
        <ele>2244.36</ele>
        <time>2014-08-11T06:49:52Z</time>
      </trkpt>
      <trkpt lat="42.408325" lon="2.163643">
        <ele>2249.47</ele>
        <time>2014-08-11T06:50:05Z</time>
      </trkpt>
      <trkpt lat="42.408392" lon="2.163588">
        <ele>2252.91</ele>
        <time>2014-08-11T06:50:18Z</time>
      </trkpt>
      <trkpt lat="42.408461" lon="2.163502">
        <ele>2253.41</ele>
        <time>2014-08-11T06:50:35Z</time>
      </trkpt>
      <trkpt lat="42.408414" lon="2.163606">
        <ele>2253.81</ele>
        <time>2014-08-11T06:50:53Z</time>
      </trkpt>
      <trkpt lat="42.408462" lon="2.163652">
        <ele>2256.64</ele>
        <time>2014-08-11T06:51:07Z</time>
      </trkpt>
      <trkpt lat="42.408508" lon="2.163665">
        <ele>2258.53</ele>
        <time>2014-08-11T06:51:20Z</time>
      </trkpt>
      <trkpt lat="42.408534" lon="2.163793">
        <ele>2262.55</ele>
        <time>2014-08-11T06:51:37Z</time>
      </trkpt>
      <trkpt lat="42.408635" lon="2.163817">
        <ele>2265.19</ele>
        <time>2014-08-11T06:51:54Z</time>
      </trkpt>
      <trkpt lat="42.408650" lon="2.163904">
        <ele>2267.04</ele>
        <time>2014-08-11T06:52:06Z</time>
      </trkpt>
      <trkpt lat="42.408618" lon="2.164075">
        <ele>2270.03</ele>
        <time>2014-08-11T06:52:25Z</time>
      </trkpt>
      <trkpt lat="42.408607" lon="2.164230">
        <ele>2273.64</ele>
        <time>2014-08-11T06:52:42Z</time>
      </trkpt>
      <trkpt lat="42.408572" lon="2.164348">
        <ele>2274.32</ele>
        <time>2014-08-11T06:52:57Z</time>
      </trkpt>
      <trkpt lat="42.408591" lon="2.164437">
        <ele>2277.57</ele>
        <time>2014-08-11T06:53:10Z</time>
      </trkpt>
      <trkpt lat="42.408570" lon="2.164534">
        <ele>2278.97</ele>
        <time>2014-08-11T06:53:25Z</time>
      </trkpt>
      <trkpt lat="42.408584" lon="2.164651">
        <ele>2283.21</ele>
        <time>2014-08-11T06:53:43Z</time>
      </trkpt>
      <trkpt lat="42.408580" lon="2.164767">
        <ele>2286.41</ele>
        <time>2014-08-11T06:53:59Z</time>
      </trkpt>
      <trkpt lat="42.408668" lon="2.164719">
        <ele>2288.28</ele>
        <time>2014-08-11T06:54:14Z</time>
      </trkpt>
      <trkpt lat="42.408777" lon="2.164696">
        <ele>2291.68</ele>
        <time>2014-08-11T06:54:34Z</time>
      </trkpt>
      <trkpt lat="42.408888" lon="2.164743">
        <ele>2295.06</ele>
        <time>2014-08-11T06:54:55Z</time>
      </trkpt>
      <trkpt lat="42.408966" lon="2.164756">
        <ele>2297.28</ele>
        <time>2014-08-11T06:55:10Z</time>
      </trkpt>
      <trkpt lat="42.409090" lon="2.164756">
        <ele>2301.46</ele>
        <time>2014-08-11T06:55:28Z</time>
      </trkpt>
      <trkpt lat="42.409188" lon="2.164744">
        <ele>2302.72</ele>
        <time>2014-08-11T06:55:45Z</time>
      </trkpt>
      <trkpt lat="42.409203" lon="2.164743">
        <ele>2303.01</ele>
        <time>2014-08-11T06:55:47Z</time>
      </trkpt>
      <trkpt lat="42.409209" lon="2.164744">
        <ele>2303.15</ele>
        <time>2014-08-11T06:55:48Z</time>
      </trkpt>
      <trkpt lat="42.409214" lon="2.164742">
        <ele>2303.27</ele>
        <time>2014-08-11T06:55:49Z</time>
      </trkpt>
      <trkpt lat="42.409221" lon="2.164739">
        <ele>2303.16</ele>
        <time>2014-08-11T06:55:50Z</time>
      </trkpt>
      <trkpt lat="42.409229" lon="2.164739">
        <ele>2303.12</ele>
        <time>2014-08-11T06:55:51Z</time>
      </trkpt>
      <trkpt lat="42.409245" lon="2.164741">
        <ele>2303.21</ele>
        <time>2014-08-11T06:55:54Z</time>
      </trkpt>
      <trkpt lat="42.409354" lon="2.164809">
        <ele>2306.75</ele>
        <time>2014-08-11T06:56:11Z</time>
      </trkpt>
      <trkpt lat="42.409492" lon="2.164829">
        <ele>2309.51</ele>
        <time>2014-08-11T06:56:30Z</time>
      </trkpt>
      <trkpt lat="42.409651" lon="2.164838">
        <ele>2311.68</ele>
        <time>2014-08-11T06:56:46Z</time>
      </trkpt>
      <trkpt lat="42.409763" lon="2.164884">
        <ele>2314.32</ele>
        <time>2014-08-11T06:57:02Z</time>
      </trkpt>
      <trkpt lat="42.409883" lon="2.164906">
        <ele>2315.95</ele>
        <time>2014-08-11T06:57:17Z</time>
      </trkpt>
      <trkpt lat="42.410026" lon="2.164962">
        <ele>2318.00</ele>
        <time>2014-08-11T06:57:38Z</time>
      </trkpt>
      <trkpt lat="42.410138" lon="2.165021">
        <ele>2319.98</ele>
        <time>2014-08-11T06:57:54Z</time>
      </trkpt>
      <trkpt lat="42.410153" lon="2.165030">
        <ele>2320.23</ele>
        <time>2014-08-11T06:57:56Z</time>
      </trkpt>
      <trkpt lat="42.410298" lon="2.165085">
        <ele>2323.07</ele>
        <time>2014-08-11T06:58:13Z</time>
      </trkpt>
      <trkpt lat="42.410414" lon="2.165177">
        <ele>2325.18</ele>
        <time>2014-08-11T06:58:29Z</time>
      </trkpt>
      <trkpt lat="42.410506" lon="2.165277">
        <ele>2328.02</ele>
        <time>2014-08-11T06:58:43Z</time>
      </trkpt>
      <trkpt lat="42.410597" lon="2.165313">
        <ele>2329.71</ele>
        <time>2014-08-11T06:58:56Z</time>
      </trkpt>
      <trkpt lat="42.410705" lon="2.165337">
        <ele>2331.55</ele>
        <time>2014-08-11T06:59:09Z</time>
      </trkpt>
      <trkpt lat="42.410773" lon="2.165370">
        <ele>2332.62</ele>
        <time>2014-08-11T06:59:18Z</time>
      </trkpt>
      <trkpt lat="42.410803" lon="2.165400">
        <ele>2333.46</ele>
        <time>2014-08-11T06:59:23Z</time>
      </trkpt>
      <trkpt lat="42.410942" lon="2.165452">
        <ele>2334.96</ele>
        <time>2014-08-11T06:59:39Z</time>
      </trkpt>
      <trkpt lat="42.411100" lon="2.165552">
        <ele>2336.94</ele>
        <time>2014-08-11T07:00:00Z</time>
      </trkpt>
      <trkpt lat="42.411241" lon="2.165678">
        <ele>2341.01</ele>
        <time>2014-08-11T07:00:19Z</time>
      </trkpt>
      <trkpt lat="42.411367" lon="2.165739">
        <ele>2342.31</ele>
        <time>2014-08-11T07:00:34Z</time>
      </trkpt>
      <trkpt lat="42.411455" lon="2.165810">
        <ele>2344.24</ele>
        <time>2014-08-11T07:00:45Z</time>
      </trkpt>
      <trkpt lat="42.411559" lon="2.165925">
        <ele>2346.11</ele>
        <time>2014-08-11T07:00:59Z</time>
      </trkpt>
      <trkpt lat="42.411674" lon="2.166002">
        <ele>2347.44</ele>
        <time>2014-08-11T07:01:13Z</time>
      </trkpt>
      <trkpt lat="42.411814" lon="2.166049">
        <ele>2348.91</ele>
        <time>2014-08-11T07:01:29Z</time>
      </trkpt>
      <trkpt lat="42.411911" lon="2.166149">
        <ele>2351.81</ele>
        <time>2014-08-11T07:01:42Z</time>
      </trkpt>
      <trkpt lat="42.411940" lon="2.166145">
        <ele>2351.72</ele>
        <time>2014-08-11T07:01:46Z</time>
      </trkpt>
      <trkpt lat="42.412113" lon="2.166222">
        <ele>2353.20</ele>
        <time>2014-08-11T07:02:06Z</time>
      </trkpt>
      <trkpt lat="42.412132" lon="2.166236">
        <ele>2353.48</ele>
        <time>2014-08-11T07:02:09Z</time>
      </trkpt>
      <trkpt lat="42.412333" lon="2.166358">
        <ele>2355.86</ele>
        <time>2014-08-11T07:02:31Z</time>
      </trkpt>
      <trkpt lat="42.412490" lon="2.166446">
        <ele>2356.26</ele>
        <time>2014-08-11T07:02:48Z</time>
      </trkpt>
      <trkpt lat="42.412679" lon="2.166573">
        <ele>2358.09</ele>
        <time>2014-08-11T07:03:09Z</time>
      </trkpt>
      <trkpt lat="42.412729" lon="2.166592">
        <ele>2358.74</ele>
        <time>2014-08-11T07:03:29Z</time>
      </trkpt>
      <trkpt lat="42.412840" lon="2.166663">
        <ele>2359.99</ele>
        <time>2014-08-11T07:03:47Z</time>
      </trkpt>
      <trkpt lat="42.412921" lon="2.166773">
        <ele>2361.72</ele>
        <time>2014-08-11T07:04:02Z</time>
      </trkpt>
      <trkpt lat="42.412963" lon="2.166871">
        <ele>2364.94</ele>
        <time>2014-08-11T07:04:17Z</time>
      </trkpt>
      <trkpt lat="42.413044" lon="2.166876">
        <ele>2366.01</ele>
        <time>2014-08-11T07:04:28Z</time>
      </trkpt>
      <trkpt lat="42.413148" lon="2.166860">
        <ele>2366.81</ele>
        <time>2014-08-11T07:04:41Z</time>
      </trkpt>
      <trkpt lat="42.413235" lon="2.166887">
        <ele>2369.06</ele>
        <time>2014-08-11T07:04:53Z</time>
      </trkpt>
      <trkpt lat="42.413314" lon="2.166942">
        <ele>2372.74</ele>
        <time>2014-08-11T07:05:06Z</time>
      </trkpt>
      <trkpt lat="42.413357" lon="2.166965">
        <ele>2373.97</ele>
        <time>2014-08-11T07:05:20Z</time>
      </trkpt>
      <trkpt lat="42.413411" lon="2.167017">
        <ele>2376.59</ele>
        <time>2014-08-11T07:05:45Z</time>
      </trkpt>
      <trkpt lat="42.413442" lon="2.167082">
        <ele>2378.97</ele>
        <time>2014-08-11T07:05:54Z</time>
      </trkpt>
      <trkpt lat="42.413537" lon="2.167159">
        <ele>2380.81</ele>
        <time>2014-08-11T07:06:08Z</time>
      </trkpt>
      <trkpt lat="42.413640" lon="2.167166">
        <ele>2382.02</ele>
        <time>2014-08-11T07:06:22Z</time>
      </trkpt>
      <trkpt lat="42.413729" lon="2.167223">
        <ele>2382.98</ele>
        <time>2014-08-11T07:06:35Z</time>
      </trkpt>
      <trkpt lat="42.413844" lon="2.167281">
        <ele>2385.88</ele>
        <time>2014-08-11T07:06:52Z</time>
      </trkpt>
      <trkpt lat="42.413915" lon="2.167344">
        <ele>2388.93</ele>
        <time>2014-08-11T07:07:04Z</time>
      </trkpt>
      <trkpt lat="42.414016" lon="2.167386">
        <ele>2390.62</ele>
        <time>2014-08-11T07:07:19Z</time>
      </trkpt>
      <trkpt lat="42.414090" lon="2.167494">
        <ele>2392.01</ele>
        <time>2014-08-11T07:07:37Z</time>
      </trkpt>
      <trkpt lat="42.414122" lon="2.167632">
        <ele>2395.89</ele>
        <time>2014-08-11T07:07:50Z</time>
      </trkpt>
      <trkpt lat="42.414124" lon="2.167703">
        <ele>2396.45</ele>
        <time>2014-08-11T07:08:05Z</time>
      </trkpt>
      <trkpt lat="42.414104" lon="2.167792">
        <ele>2398.23</ele>
        <time>2014-08-11T07:08:20Z</time>
      </trkpt>
      <trkpt lat="42.414153" lon="2.167907">
        <ele>2398.53</ele>
        <time>2014-08-11T07:08:32Z</time>
      </trkpt>
      <trkpt lat="42.414202" lon="2.168034">
        <ele>2400.30</ele>
        <time>2014-08-11T07:08:43Z</time>
      </trkpt>
      <trkpt lat="42.414214" lon="2.168044">
        <ele>2400.35</ele>
        <time>2014-08-11T07:08:45Z</time>
      </trkpt>
      <trkpt lat="42.414265" lon="2.168181">
        <ele>2402.26</ele>
        <time>2014-08-11T07:08:59Z</time>
      </trkpt>
      <trkpt lat="42.414353" lon="2.168286">
        <ele>2403.33</ele>
        <time>2014-08-11T07:09:14Z</time>
      </trkpt>
      <trkpt lat="42.414364" lon="2.168346">
        <ele>2404.73</ele>
        <time>2014-08-11T07:09:19Z</time>
      </trkpt>
      <trkpt lat="42.414376" lon="2.168367">
        <ele>2404.85</ele>
        <time>2014-08-11T07:09:21Z</time>
      </trkpt>
      <trkpt lat="42.414393" lon="2.168450">
        <ele>2406.81</ele>
        <time>2014-08-11T07:09:29Z</time>
      </trkpt>
      <trkpt lat="42.414498" lon="2.168596">
        <ele>2407.91</ele>
        <time>2014-08-11T07:09:47Z</time>
      </trkpt>
      <trkpt lat="42.414545" lon="2.168732">
        <ele>2410.98</ele>
        <time>2014-08-11T07:10:01Z</time>
      </trkpt>
      <trkpt lat="42.414601" lon="2.168874">
        <ele>2412.65</ele>
        <time>2014-08-11T07:10:19Z</time>
      </trkpt>
      <trkpt lat="42.414668" lon="2.169012">
        <ele>2413.92</ele>
        <time>2014-08-11T07:10:33Z</time>
      </trkpt>
      <trkpt lat="42.414698" lon="2.169134">
        <ele>2415.52</ele>
        <time>2014-08-11T07:10:45Z</time>
      </trkpt>
      <trkpt lat="42.414766" lon="2.169268">
        <ele>2416.95</ele>
        <time>2014-08-11T07:11:01Z</time>
      </trkpt>
      <trkpt lat="42.414871" lon="2.169416">
        <ele>2418.07</ele>
        <time>2014-08-11T07:11:17Z</time>
      </trkpt>
      <trkpt lat="42.414885" lon="2.169426">
        <ele>2418.18</ele>
        <time>2014-08-11T07:11:19Z</time>
      </trkpt>
      <trkpt lat="42.415009" lon="2.169571">
        <ele>2420.08</ele>
        <time>2014-08-11T07:11:35Z</time>
      </trkpt>
      <trkpt lat="42.415092" lon="2.169687">
        <ele>2422.61</ele>
        <time>2014-08-11T07:11:48Z</time>
      </trkpt>
      <trkpt lat="42.415097" lon="2.169698">
        <ele>2422.92</ele>
        <time>2014-08-11T07:11:49Z</time>
      </trkpt>
      <trkpt lat="42.415124" lon="2.169710">
        <ele>2423.20</ele>
        <time>2014-08-11T07:11:52Z</time>
      </trkpt>
      <trkpt lat="42.415169" lon="2.169821">
        <ele>2425.01</ele>
        <time>2014-08-11T07:12:03Z</time>
      </trkpt>
      <trkpt lat="42.415233" lon="2.169907">
        <ele>2426.47</ele>
        <time>2014-08-11T07:12:14Z</time>
      </trkpt>
      <trkpt lat="42.415332" lon="2.170013">
        <ele>2429.29</ele>
        <time>2014-08-11T07:12:28Z</time>
      </trkpt>
      <trkpt lat="42.415372" lon="2.170042">
        <ele>2429.74</ele>
        <time>2014-08-11T07:12:34Z</time>
      </trkpt>
      <trkpt lat="42.415485" lon="2.170142">
        <ele>2432.49</ele>
        <time>2014-08-11T07:12:50Z</time>
      </trkpt>
      <trkpt lat="42.415538" lon="2.170280">
        <ele>2434.63</ele>
        <time>2014-08-11T07:13:05Z</time>
      </trkpt>
      <trkpt lat="42.415646" lon="2.170305">
        <ele>2435.19</ele>
        <time>2014-08-11T07:13:18Z</time>
      </trkpt>
      <trkpt lat="42.415719" lon="2.170399">
        <ele>2437.69</ele>
        <time>2014-08-11T07:13:32Z</time>
      </trkpt>
      <trkpt lat="42.415806" lon="2.170522">
        <ele>2439.72</ele>
        <time>2014-08-11T07:13:47Z</time>
      </trkpt>
      <trkpt lat="42.415869" lon="2.170609">
        <ele>2441.11</ele>
        <time>2014-08-11T07:13:58Z</time>
      </trkpt>
      <trkpt lat="42.415952" lon="2.170787">
        <ele>2443.03</ele>
        <time>2014-08-11T07:14:14Z</time>
      </trkpt>
      <trkpt lat="42.416040" lon="2.170955">
        <ele>2444.91</ele>
        <time>2014-08-11T07:14:32Z</time>
      </trkpt>
      <trkpt lat="42.416109" lon="2.171174">
        <ele>2447.51</ele>
        <time>2014-08-11T07:14:51Z</time>
      </trkpt>
      <trkpt lat="42.416155" lon="2.171304">
        <ele>2448.62</ele>
        <time>2014-08-11T07:15:03Z</time>
      </trkpt>
      <trkpt lat="42.416284" lon="2.171535">
        <ele>2451.05</ele>
        <time>2014-08-11T07:15:25Z</time>
      </trkpt>
      <trkpt lat="42.416430" lon="2.171716">
        <ele>2452.64</ele>
        <time>2014-08-11T07:15:46Z</time>
      </trkpt>
      <trkpt lat="42.416478" lon="2.171843">
        <ele>2454.78</ele>
        <time>2014-08-11T07:15:58Z</time>
      </trkpt>
      <trkpt lat="42.416527" lon="2.172030">
        <ele>2457.75</ele>
        <time>2014-08-11T07:16:15Z</time>
      </trkpt>
      <trkpt lat="42.416634" lon="2.172160">
        <ele>2459.85</ele>
        <time>2014-08-11T07:16:31Z</time>
      </trkpt>
      <trkpt lat="42.416732" lon="2.172314">
        <ele>2463.42</ele>
        <time>2014-08-11T07:16:49Z</time>
      </trkpt>
      <trkpt lat="42.416766" lon="2.172522">
        <ele>2467.83</ele>
        <time>2014-08-11T07:17:06Z</time>
      </trkpt>
      <trkpt lat="42.416775" lon="2.172570">
        <ele>2468.65</ele>
        <time>2014-08-11T07:17:11Z</time>
      </trkpt>
      <trkpt lat="42.416877" lon="2.172647">
        <ele>2469.89</ele>
        <time>2014-08-11T07:17:27Z</time>
      </trkpt>
      <trkpt lat="42.417002" lon="2.172743">
        <ele>2473.42</ele>
        <time>2014-08-11T07:17:44Z</time>
      </trkpt>
      <trkpt lat="42.417081" lon="2.172822">
        <ele>2475.81</ele>
        <time>2014-08-11T07:18:01Z</time>
      </trkpt>
      <trkpt lat="42.417140" lon="2.172828">
        <ele>2475.92</ele>
        <time>2014-08-11T07:18:19Z</time>
      </trkpt>
      <trkpt lat="42.417170" lon="2.172879">
        <ele>2477.54</ele>
        <time>2014-08-11T07:18:39Z</time>
      </trkpt>
      <trkpt lat="42.417173" lon="2.172924">
        <ele>2478.53</ele>
        <time>2014-08-11T07:18:54Z</time>
      </trkpt>
      <trkpt lat="42.417186" lon="2.172920">
        <ele>2478.49</ele>
        <time>2014-08-11T07:19:24Z</time>
      </trkpt>
      <trkpt lat="42.417151" lon="2.172954">
        <ele>2479.02</ele>
        <time>2014-08-11T07:19:45Z</time>
      </trkpt>
      <trkpt lat="42.417176" lon="2.172935">
        <ele>2478.76</ele>
        <time>2014-08-11T07:20:02Z</time>
      </trkpt>
      <trkpt lat="42.417243" lon="2.172940">
        <ele>2479.66</ele>
        <time>2014-08-11T07:20:22Z</time>
      </trkpt>
      <trkpt lat="42.417369" lon="2.173011">
        <ele>2481.07</ele>
        <time>2014-08-11T07:20:39Z</time>
      </trkpt>
      <trkpt lat="42.417476" lon="2.173055">
        <ele>2481.95</ele>
        <time>2014-08-11T07:20:51Z</time>
      </trkpt>
      <trkpt lat="42.417517" lon="2.173069">
        <ele>2482.95</ele>
        <time>2014-08-11T07:20:54Z</time>
      </trkpt>
      <trkpt lat="42.417535" lon="2.173072">
        <ele>2483.01</ele>
        <time>2014-08-11T07:20:56Z</time>
      </trkpt>
      <trkpt lat="42.417602" lon="2.173076">
        <ele>2484.11</ele>
        <time>2014-08-11T07:21:04Z</time>
      </trkpt>
      <trkpt lat="42.417671" lon="2.173082">
        <ele>2485.53</ele>
        <time>2014-08-11T07:21:12Z</time>
      </trkpt>
      <trkpt lat="42.417765" lon="2.173164">
        <ele>2488.67</ele>
        <time>2014-08-11T07:21:26Z</time>
      </trkpt>
      <trkpt lat="42.417803" lon="2.173311">
        <ele>2490.45</ele>
        <time>2014-08-11T07:21:41Z</time>
      </trkpt>
      <trkpt lat="42.417860" lon="2.173346">
        <ele>2491.67</ele>
        <time>2014-08-11T07:21:50Z</time>
      </trkpt>
      <trkpt lat="42.417989" lon="2.173344">
        <ele>2493.15</ele>
        <time>2014-08-11T07:22:05Z</time>
      </trkpt>
      <trkpt lat="42.418015" lon="2.173347">
        <ele>2493.88</ele>
        <time>2014-08-11T07:22:21Z</time>
      </trkpt>
      <trkpt lat="42.418042" lon="2.173514">
        <ele>2496.11</ele>
        <time>2014-08-11T07:22:36Z</time>
      </trkpt>
      <trkpt lat="42.418083" lon="2.173582">
        <ele>2498.42</ele>
        <time>2014-08-11T07:22:46Z</time>
      </trkpt>
      <trkpt lat="42.418104" lon="2.173498">
        <ele>2498.20</ele>
        <time>2014-08-11T07:22:57Z</time>
      </trkpt>
      <trkpt lat="42.418090" lon="2.173456">
        <ele>2497.61</ele>
        <time>2014-08-11T07:23:17Z</time>
      </trkpt>
      <trkpt lat="42.418088" lon="2.173456">
        <ele>2497.53</ele>
        <time>2014-08-11T07:23:18Z</time>
      </trkpt>
      <trkpt lat="42.418111" lon="2.173500">
        <ele>2498.31</ele>
        <time>2014-08-11T07:23:33Z</time>
      </trkpt>
      <trkpt lat="42.418204" lon="2.173570">
        <ele>2502.94</ele>
        <time>2014-08-11T07:23:46Z</time>
      </trkpt>
      <trkpt lat="42.418245" lon="2.173653">
        <ele>2505.30</ele>
        <time>2014-08-11T07:23:58Z</time>
      </trkpt>
      <trkpt lat="42.418308" lon="2.173675">
        <ele>2506.69</ele>
        <time>2014-08-11T07:24:06Z</time>
      </trkpt>
      <trkpt lat="42.418377" lon="2.173636">
        <ele>2508.67</ele>
        <time>2014-08-11T07:24:19Z</time>
      </trkpt>
      <trkpt lat="42.418422" lon="2.173624">
        <ele>2509.08</ele>
        <time>2014-08-11T07:24:29Z</time>
      </trkpt>
      <trkpt lat="42.418437" lon="2.173602">
        <ele>2509.13</ele>
        <time>2014-08-11T07:24:33Z</time>
      </trkpt>
      <trkpt lat="42.418526" lon="2.173553">
        <ele>2510.49</ele>
        <time>2014-08-11T07:24:53Z</time>
      </trkpt>
      <trkpt lat="42.418539" lon="2.173524">
        <ele>2510.88</ele>
        <time>2014-08-11T07:24:57Z</time>
      </trkpt>
      <trkpt lat="42.418543" lon="2.173495">
        <ele>2511.04</ele>
        <time>2014-08-11T07:24:59Z</time>
      </trkpt>
      <trkpt lat="42.418565" lon="2.173473">
        <ele>2511.48</ele>
        <time>2014-08-11T07:25:02Z</time>
      </trkpt>
      <trkpt lat="42.418574" lon="2.173468">
        <ele>2511.61</ele>
        <time>2014-08-11T07:25:03Z</time>
      </trkpt>
      <trkpt lat="42.418595" lon="2.173471">
        <ele>2512.01</ele>
        <time>2014-08-11T07:25:05Z</time>
      </trkpt>
      <trkpt lat="42.418686" lon="2.173584">
        <ele>2512.78</ele>
        <time>2014-08-11T07:25:20Z</time>
      </trkpt>
      <trkpt lat="42.418716" lon="2.173753">
        <ele>2514.73</ele>
        <time>2014-08-11T07:25:34Z</time>
      </trkpt>
      <trkpt lat="42.418713" lon="2.173863">
        <ele>2515.47</ele>
        <time>2014-08-11T07:25:44Z</time>
      </trkpt>
      <trkpt lat="42.418709" lon="2.173941">
        <ele>2517.73</ele>
        <time>2014-08-11T07:25:57Z</time>
      </trkpt>
      <trkpt lat="42.418705" lon="2.173955">
        <ele>2518.27</ele>
        <time>2014-08-11T07:25:58Z</time>
      </trkpt>
      <trkpt lat="42.418709" lon="2.174088">
        <ele>2521.05</ele>
        <time>2014-08-11T07:26:12Z</time>
      </trkpt>
      <trkpt lat="42.418794" lon="2.174142">
        <ele>2521.99</ele>
        <time>2014-08-11T07:26:24Z</time>
      </trkpt>
      <trkpt lat="42.418863" lon="2.174187">
        <ele>2523.37</ele>
        <time>2014-08-11T07:26:36Z</time>
      </trkpt>
      <trkpt lat="42.418951" lon="2.174264">
        <ele>2526.67</ele>
        <time>2014-08-11T07:26:51Z</time>
      </trkpt>
      <trkpt lat="42.419020" lon="2.174388">
        <ele>2531.08</ele>
        <time>2014-08-11T07:27:02Z</time>
      </trkpt>
      <trkpt lat="42.419093" lon="2.174396">
        <ele>2531.32</ele>
        <time>2014-08-11T07:27:17Z</time>
      </trkpt>
      <trkpt lat="42.419118" lon="2.174470">
        <ele>2534.21</ele>
        <time>2014-08-11T07:27:29Z</time>
      </trkpt>
      <trkpt lat="42.419085" lon="2.174534">
        <ele>2535.79</ele>
        <time>2014-08-11T07:27:43Z</time>
      </trkpt>
      <trkpt lat="42.419132" lon="2.174572">
        <ele>2537.83</ele>
        <time>2014-08-11T07:27:55Z</time>
      </trkpt>
      <trkpt lat="42.419162" lon="2.174648">
        <ele>2540.42</ele>
        <time>2014-08-11T07:28:07Z</time>
      </trkpt>
      <trkpt lat="42.419185" lon="2.174688">
        <ele>2541.89</ele>
        <time>2014-08-11T07:28:23Z</time>
      </trkpt>
      <trkpt lat="42.419230" lon="2.174787">
        <ele>2544.21</ele>
        <time>2014-08-11T07:28:41Z</time>
      </trkpt>
      <trkpt lat="42.419239" lon="2.174861">
        <ele>2547.55</ele>
        <time>2014-08-11T07:28:57Z</time>
      </trkpt>
      <trkpt lat="42.419283" lon="2.174937">
        <ele>2550.39</ele>
        <time>2014-08-11T07:29:12Z</time>
      </trkpt>
      <trkpt lat="42.419301" lon="2.174980">
        <ele>2552.19</ele>
        <time>2014-08-11T07:29:25Z</time>
      </trkpt>
      <trkpt lat="42.419319" lon="2.175006">
        <ele>2552.72</ele>
        <time>2014-08-11T07:29:38Z</time>
      </trkpt>
      <trkpt lat="42.419351" lon="2.175116">
        <ele>2557.68</ele>
        <time>2014-08-11T07:29:51Z</time>
      </trkpt>
      <trkpt lat="42.419381" lon="2.175191">
        <ele>2560.61</ele>
        <time>2014-08-11T07:30:07Z</time>
      </trkpt>
      <trkpt lat="42.419418" lon="2.175254">
        <ele>2563.71</ele>
        <time>2014-08-11T07:30:21Z</time>
      </trkpt>
      <trkpt lat="42.419433" lon="2.175310">
        <ele>2565.81</ele>
        <time>2014-08-11T07:30:36Z</time>
      </trkpt>
      <trkpt lat="42.419454" lon="2.175363">
        <ele>2568.43</ele>
        <time>2014-08-11T07:30:51Z</time>
      </trkpt>
      <trkpt lat="42.419480" lon="2.175443">
        <ele>2572.45</ele>
        <time>2014-08-11T07:31:05Z</time>
      </trkpt>
      <trkpt lat="42.419511" lon="2.175471">
        <ele>2573.89</ele>
        <time>2014-08-11T07:31:17Z</time>
      </trkpt>
      <trkpt lat="42.419534" lon="2.175484">
        <ele>2574.93</ele>
        <time>2014-08-11T07:31:30Z</time>
      </trkpt>
      <trkpt lat="42.419556" lon="2.175535">
        <ele>2577.04</ele>
        <time>2014-08-11T07:31:45Z</time>
      </trkpt>
      <trkpt lat="42.419605" lon="2.175615">
        <ele>2579.96</ele>
        <time>2014-08-11T07:32:02Z</time>
      </trkpt>
      <trkpt lat="42.419663" lon="2.175722">
        <ele>2583.32</ele>
        <time>2014-08-11T07:32:17Z</time>
      </trkpt>
      <trkpt lat="42.419698" lon="2.175752">
        <ele>2585.32</ele>
        <time>2014-08-11T07:32:29Z</time>
      </trkpt>
      <trkpt lat="42.419745" lon="2.175792">
        <ele>2587.68</ele>
        <time>2014-08-11T07:32:44Z</time>
      </trkpt>
      <trkpt lat="42.419781" lon="2.175834">
        <ele>2589.81</ele>
        <time>2014-08-11T07:33:06Z</time>
      </trkpt>
      <trkpt lat="42.419816" lon="2.175892">
        <ele>2592.01</ele>
        <time>2014-08-11T07:33:20Z</time>
      </trkpt>
      <trkpt lat="42.419825" lon="2.175975">
        <ele>2596.19</ele>
        <time>2014-08-11T07:33:36Z</time>
      </trkpt>
      <trkpt lat="42.419870" lon="2.176024">
        <ele>2598.40</ele>
        <time>2014-08-11T07:33:50Z</time>
      </trkpt>
      <trkpt lat="42.419909" lon="2.176054">
        <ele>2599.67</ele>
        <time>2014-08-11T07:34:02Z</time>
      </trkpt>
      <trkpt lat="42.419926" lon="2.176080">
        <ele>2600.99</ele>
        <time>2014-08-11T07:34:13Z</time>
      </trkpt>
      <trkpt lat="42.419967" lon="2.176142">
        <ele>2603.29</ele>
        <time>2014-08-11T07:34:27Z</time>
      </trkpt>
      <trkpt lat="42.419996" lon="2.176159">
        <ele>2603.77</ele>
        <time>2014-08-11T07:34:39Z</time>
      </trkpt>
      <trkpt lat="42.420011" lon="2.176191">
        <ele>2605.52</ele>
        <time>2014-08-11T07:34:54Z</time>
      </trkpt>
      <trkpt lat="42.420049" lon="2.176244">
        <ele>2609.04</ele>
        <time>2014-08-11T07:35:06Z</time>
      </trkpt>
      <trkpt lat="42.420088" lon="2.176274">
        <ele>2611.21</ele>
        <time>2014-08-11T07:35:21Z</time>
      </trkpt>
      <trkpt lat="42.420134" lon="2.176248">
        <ele>2610.84</ele>
        <time>2014-08-11T07:35:33Z</time>
      </trkpt>
      <trkpt lat="42.420146" lon="2.176250">
        <ele>2611.51</ele>
        <time>2014-08-11T07:35:45Z</time>
      </trkpt>
      <trkpt lat="42.420150" lon="2.176259">
        <ele>2612.21</ele>
        <time>2014-08-11T07:35:46Z</time>
      </trkpt>
      <trkpt lat="42.420151" lon="2.176267">
        <ele>2612.64</ele>
        <time>2014-08-11T07:35:47Z</time>
      </trkpt>
      <trkpt lat="42.420152" lon="2.176272">
        <ele>2612.90</ele>
        <time>2014-08-11T07:35:48Z</time>
      </trkpt>
      <trkpt lat="42.420152" lon="2.176277">
        <ele>2613.14</ele>
        <time>2014-08-11T07:35:49Z</time>
      </trkpt>
      <trkpt lat="42.420152" lon="2.176278">
        <ele>2613.18</ele>
        <time>2014-08-11T07:35:50Z</time>
      </trkpt>
      <trkpt lat="42.420154" lon="2.176279">
        <ele>2613.27</ele>
        <time>2014-08-11T07:35:51Z</time>
      </trkpt>
      <trkpt lat="42.420155" lon="2.176281">
        <ele>2613.38</ele>
        <time>2014-08-11T07:35:52Z</time>
      </trkpt>
      <trkpt lat="42.420155" lon="2.176284">
        <ele>2613.48</ele>
        <time>2014-08-11T07:35:53Z</time>
      </trkpt>
      <trkpt lat="42.420148" lon="2.176284">
        <ele>2613.38</ele>
        <time>2014-08-11T07:36:00Z</time>
      </trkpt>
      <trkpt lat="42.420149" lon="2.176247">
        <ele>2611.43</ele>
        <time>2014-08-11T07:36:24Z</time>
      </trkpt>
      <trkpt lat="42.420207" lon="2.176331">
        <ele>2616.30</ele>
        <time>2014-08-11T07:36:38Z</time>
      </trkpt>
      <trkpt lat="42.420279" lon="2.176376">
        <ele>2620.82</ele>
        <time>2014-08-11T07:36:53Z</time>
      </trkpt>
      <trkpt lat="42.420328" lon="2.176408">
        <ele>2622.51</ele>
        <time>2014-08-11T07:37:09Z</time>
      </trkpt>
      <trkpt lat="42.420379" lon="2.176437">
        <ele>2625.11</ele>
        <time>2014-08-11T07:37:22Z</time>
      </trkpt>
      <trkpt lat="42.420424" lon="2.176477">
        <ele>2629.06</ele>
        <time>2014-08-11T07:37:37Z</time>
      </trkpt>
      <trkpt lat="42.420425" lon="2.176509">
        <ele>2630.88</ele>
        <time>2014-08-11T07:37:53Z</time>
      </trkpt>
      <trkpt lat="42.420491" lon="2.176504">
        <ele>2633.16</ele>
        <time>2014-08-11T07:38:04Z</time>
      </trkpt>
      <trkpt lat="42.420542" lon="2.176526">
        <ele>2636.60</ele>
        <time>2014-08-11T07:38:17Z</time>
      </trkpt>
      <trkpt lat="42.420540" lon="2.176542">
        <ele>2637.54</ele>
        <time>2014-08-11T07:38:27Z</time>
      </trkpt>
      <trkpt lat="42.420566" lon="2.176576">
        <ele>2640.49</ele>
        <time>2014-08-11T07:38:43Z</time>
      </trkpt>
      <trkpt lat="42.420582" lon="2.176606">
        <ele>2644.29</ele>
        <time>2014-08-11T07:39:07Z</time>
      </trkpt>
      <trkpt lat="42.420629" lon="2.176601">
        <ele>2647.03</ele>
        <time>2014-08-11T07:39:18Z</time>
      </trkpt>
      <trkpt lat="42.420807" lon="2.176494">
        <ele>2646.19</ele>
        <time>2014-08-11T08:12:39.60Z</time>
      </trkpt>
      <trkpt lat="42.420819" lon="2.176478">
        <ele>2670.09</ele>
        <time>2016-07-16T05:24:58Z</time>
      </trkpt>
      <trkpt lat="42.420868" lon="2.176468">
        <ele>2671.88</ele>
        <time>2016-07-16T05:25:04.56Z</time>
      </trkpt>
      <trkpt lat="42.420849" lon="2.176513">
        <ele>2673.09</ele>
        <time>2016-07-16T05:25:09Z</time>
      </trkpt>
      <trkpt lat="42.420800" lon="2.176627">
        <ele>2674.03</ele>
        <time>2016-07-16T05:25:19Z</time>
      </trkpt>
      <trkpt lat="42.420751" lon="2.176730">
        <ele>2674.01</ele>
        <time>2016-07-16T05:25:26Z</time>
      </trkpt>
      <trkpt lat="42.420689" lon="2.176823">
        <ele>2675.06</ele>
        <time>2016-07-16T05:25:38Z</time>
      </trkpt>
      <trkpt lat="42.420621" lon="2.176905">
        <ele>2676.02</ele>
        <time>2016-07-16T05:25:53Z</time>
      </trkpt>
      <trkpt lat="42.420540" lon="2.176963">
        <ele>2665.01</ele>
        <time>2016-07-16T05:27:51Z</time>
      </trkpt>
      <trkpt lat="42.420459" lon="2.177022">
        <ele>2665.02</ele>
        <time>2016-07-16T05:28:00Z</time>
      </trkpt>
      <trkpt lat="42.420379" lon="2.177081">
        <ele>2667.00</ele>
        <time>2016-07-16T05:28:10Z</time>
      </trkpt>
      <trkpt lat="42.420347" lon="2.177202">
        <ele>2669.01</ele>
        <time>2016-07-16T05:30:28Z</time>
      </trkpt>
      <trkpt lat="42.420264" lon="2.177258">
        <ele>2669.07</ele>
        <time>2016-07-16T05:30:35Z</time>
      </trkpt>
      <trkpt lat="42.420202" lon="2.177355">
        <ele>2673.09</ele>
        <time>2016-07-16T05:30:50Z</time>
      </trkpt>
      <trkpt lat="42.420131" lon="2.177448">
        <ele>2678.05</ele>
        <time>2016-07-16T05:31:11Z</time>
      </trkpt>
      <trkpt lat="42.420072" lon="2.177553">
        <ele>2683.03</ele>
        <time>2016-07-16T05:31:28Z</time>
      </trkpt>
      <trkpt lat="42.420001" lon="2.177655">
        <ele>2687.09</ele>
        <time>2016-07-16T05:31:44Z</time>
      </trkpt>
      <trkpt lat="42.419953" lon="2.177765">
        <ele>2690.03</ele>
        <time>2016-07-16T05:32:02Z</time>
      </trkpt>
      <trkpt lat="42.419902" lon="2.177870">
        <ele>2693.09</ele>
        <time>2016-07-16T05:32:23Z</time>
      </trkpt>
      <trkpt lat="42.419878" lon="2.177999">
        <ele>2697.07</ele>
        <time>2016-07-16T05:32:48Z</time>
      </trkpt>
      <trkpt lat="42.419864" lon="2.178128">
        <ele>2707.03</ele>
        <time>2016-07-16T05:33:27Z</time>
      </trkpt>
      <trkpt lat="42.419883" lon="2.178248">
        <ele>2707.00</ele>
        <time>2016-07-16T05:33:52Z</time>
      </trkpt>
      <trkpt lat="42.419884" lon="2.178374">
        <ele>2715.02</ele>
        <time>2016-07-16T05:34:15Z</time>
      </trkpt>
      <trkpt lat="42.419804" lon="2.178449">
        <ele>2711.01</ele>
        <time>2016-07-16T05:34:31Z</time>
      </trkpt>
      <trkpt lat="42.419724" lon="2.178520">
        <ele>2714.02</ele>
        <time>2016-07-16T05:34:45Z</time>
      </trkpt>
      <trkpt lat="42.419637" lon="2.178584">
        <ele>2715.07</ele>
        <time>2016-07-16T05:35:02Z</time>
      </trkpt>
      <trkpt lat="42.419581" lon="2.178696">
        <ele>2722.05</ele>
        <time>2016-07-16T05:35:25Z</time>
      </trkpt>
      <trkpt lat="42.419497" lon="2.178745">
        <ele>2725.09</ele>
        <time>2016-07-16T05:36:07Z</time>
      </trkpt>
      <trkpt lat="42.419408" lon="2.178807">
        <ele>2729.02</ele>
        <time>2016-07-16T05:36:23Z</time>
      </trkpt>
      <trkpt lat="42.419346" lon="2.178911">
        <ele>2735.08</ele>
        <time>2016-07-16T05:36:47Z</time>
      </trkpt>
      <trkpt lat="42.419281" lon="2.179013">
        <ele>2740.09</ele>
        <time>2016-07-16T05:37:42Z</time>
      </trkpt>
      <trkpt lat="42.419184" lon="2.179011">
        <ele>2744.06</ele>
        <time>2016-07-16T05:38:15Z</time>
      </trkpt>
      <trkpt lat="42.419092" lon="2.179051">
        <ele>2749.02</ele>
        <time>2016-07-16T05:38:32Z</time>
      </trkpt>
      <trkpt lat="42.419014" lon="2.179125">
        <ele>2757.06</ele>
        <time>2016-07-16T05:38:46Z</time>
      </trkpt>
      <trkpt lat="42.418919" lon="2.179161">
        <ele>2758.01</ele>
        <time>2016-07-16T05:39:01Z</time>
      </trkpt>
      <trkpt lat="42.418838" lon="2.179214">
        <ele>2759.01</ele>
        <time>2016-07-16T05:39:30Z</time>
      </trkpt>
      <trkpt lat="42.418855" lon="2.179334">
        <ele>2766.06</ele>
        <time>2016-07-16T05:39:52Z</time>
      </trkpt>
      <trkpt lat="42.418813" lon="2.179448">
        <ele>2775.03</ele>
        <time>2016-07-16T05:40:26Z</time>
      </trkpt>
      <trkpt lat="42.418768" lon="2.179556">
        <ele>2782.04</ele>
        <time>2016-07-16T05:40:48Z</time>
      </trkpt>
      <trkpt lat="42.418679" lon="2.179595">
        <ele>2786.02</ele>
        <time>2016-07-16T05:41:05Z</time>
      </trkpt>
      <trkpt lat="42.418588" lon="2.179648">
        <ele>2783.06</ele>
        <time>2016-07-16T05:41:21Z</time>
      </trkpt>
      <trkpt lat="42.418508" lon="2.179708">
        <ele>2786.09</ele>
        <time>2016-07-16T05:41:35Z</time>
      </trkpt>
      <trkpt lat="42.418465" lon="2.179824">
        <ele>2793.07</ele>
        <time>2016-07-16T05:41:52Z</time>
      </trkpt>
      <trkpt lat="42.418405" lon="2.179924">
        <ele>2793.05</ele>
        <time>2016-07-16T05:42:04Z</time>
      </trkpt>
      <trkpt lat="42.418356" lon="2.180042">
        <ele>2793.03</ele>
        <time>2016-07-16T05:42:14Z</time>
      </trkpt>
      <trkpt lat="42.418312" lon="2.180153">
        <ele>2796.06</ele>
        <time>2016-07-16T05:42:24Z</time>
      </trkpt>
      <trkpt lat="42.418285" lon="2.180269">
        <ele>2793.01</ele>
        <time>2016-07-16T05:42:32Z</time>
      </trkpt>
      <trkpt lat="42.418259" lon="2.180399">
        <ele>2792.01</ele>
        <time>2016-07-16T05:42:41Z</time>
      </trkpt>
      <trkpt lat="42.418244" lon="2.180530">
        <ele>2795.05</ele>
        <time>2016-07-16T05:42:49Z</time>
      </trkpt>
      <trkpt lat="42.418241" lon="2.180670">
        <ele>2792.10</ele>
        <time>2016-07-16T05:42:56Z</time>
      </trkpt>
      <trkpt lat="42.418247" lon="2.180798">
        <ele>2792.07</ele>
        <time>2016-07-16T05:43:03Z</time>
      </trkpt>
      <trkpt lat="42.418272" lon="2.180920">
        <ele>2787.05</ele>
        <time>2016-07-16T05:43:10Z</time>
      </trkpt>
      <trkpt lat="42.418292" lon="2.181048">
        <ele>2789.01</ele>
        <time>2016-07-16T05:43:17Z</time>
      </trkpt>
      <trkpt lat="42.418315" lon="2.181180">
        <ele>2788.08</ele>
        <time>2016-07-16T05:43:26Z</time>
      </trkpt>
      <trkpt lat="42.418334" lon="2.181302">
        <ele>2780.09</ele>
        <time>2016-07-16T05:43:33Z</time>
      </trkpt>
      <trkpt lat="42.418364" lon="2.181419">
        <ele>2783.03</ele>
        <time>2016-07-16T05:43:41Z</time>
      </trkpt>
      <trkpt lat="42.418401" lon="2.181531">
        <ele>2786.09</ele>
        <time>2016-07-16T05:43:51Z</time>
      </trkpt>
      <trkpt lat="42.418446" lon="2.181638">
        <ele>2796.08</ele>
        <time>2016-07-16T05:45:04Z</time>
      </trkpt>
      <trkpt lat="42.418454" lon="2.181773">
        <ele>2798.02</ele>
        <time>2016-07-16T05:45:16Z</time>
      </trkpt>
      <trkpt lat="42.418387" lon="2.181864">
        <ele>2792.01</ele>
        <time>2016-07-16T05:45:22Z</time>
      </trkpt>
      <trkpt lat="42.418398" lon="2.182000">
        <ele>2789.08</ele>
        <time>2016-07-16T05:45:26Z</time>
      </trkpt>
      <trkpt lat="42.418439" lon="2.182125">
        <ele>2791.07</ele>
        <time>2016-07-16T05:45:30Z</time>
      </trkpt>
      <trkpt lat="42.418485" lon="2.182256">
        <ele>2791.02</ele>
        <time>2016-07-16T05:45:34Z</time>
      </trkpt>
      <trkpt lat="42.418531" lon="2.182378">
        <ele>2792.02</ele>
        <time>2016-07-16T05:45:38Z</time>
      </trkpt>
      <trkpt lat="42.418598" lon="2.182502">
        <ele>2790.05</ele>
        <time>2016-07-16T05:45:42Z</time>
      </trkpt>
      <trkpt lat="42.418653" lon="2.182644">
        <ele>2788.05</ele>
        <time>2016-07-16T05:45:46Z</time>
      </trkpt>
      <trkpt lat="42.418697" lon="2.182788">
        <ele>2793.01</ele>
        <time>2016-07-16T05:45:50Z</time>
      </trkpt>
      <trkpt lat="42.418744" lon="2.182907">
        <ele>2785.03</ele>
        <time>2016-07-16T05:45:55Z</time>
      </trkpt>
      <trkpt lat="42.418817" lon="2.182992">
        <ele>2790.04</ele>
        <time>2016-07-16T05:46:03Z</time>
      </trkpt>
      <trkpt lat="42.418885" lon="2.183087">
        <ele>2793.08</ele>
        <time>2016-07-16T05:46:12Z</time>
      </trkpt>
      <trkpt lat="42.418952" lon="2.183194">
        <ele>2795.01</ele>
        <time>2016-07-16T05:46:22Z</time>
      </trkpt>
      <trkpt lat="42.418998" lon="2.183301">
        <ele>2797.01</ele>
        <time>2016-07-16T05:46:32Z</time>
      </trkpt>
      <trkpt lat="42.419070" lon="2.183378">
        <ele>2794.07</ele>
        <time>2016-07-16T05:46:41Z</time>
      </trkpt>
      <trkpt lat="42.419114" lon="2.183486">
        <ele>2800.08</ele>
        <time>2016-07-16T05:46:49Z</time>
      </trkpt>
      <trkpt lat="42.419152" lon="2.183605">
        <ele>2796.04</ele>
        <time>2016-07-16T05:46:57Z</time>
      </trkpt>
      <trkpt lat="42.419202" lon="2.183708">
        <ele>2798.06</ele>
        <time>2016-07-16T05:47:05Z</time>
      </trkpt>
      <trkpt lat="42.419253" lon="2.183822">
        <ele>2801.05</ele>
        <time>2016-07-16T05:47:14Z</time>
      </trkpt>
      <trkpt lat="42.419276" lon="2.183951">
        <ele>2797.09</ele>
        <time>2016-07-16T05:47:23Z</time>
      </trkpt>
      <trkpt lat="42.419351" lon="2.184042">
        <ele>2797.04</ele>
        <time>2016-07-16T05:47:31Z</time>
      </trkpt>
      <trkpt lat="42.419424" lon="2.184138">
        <ele>2797.03</ele>
        <time>2016-07-16T05:47:43Z</time>
      </trkpt>
      <trkpt lat="42.419378" lon="2.184254">
        <ele>2796.04</ele>
        <time>2016-07-16T05:48:16Z</time>
      </trkpt>
      <trkpt lat="42.419298" lon="2.184337">
        <ele>2793.02</ele>
        <time>2016-07-16T05:48:21Z</time>
      </trkpt>
      <trkpt lat="42.419215" lon="2.184397">
        <ele>2791.01</ele>
        <time>2016-07-16T05:48:25Z</time>
      </trkpt>
      <trkpt lat="42.419125" lon="2.184420">
        <ele>2789.01</ele>
        <time>2016-07-16T05:48:29Z</time>
      </trkpt>
      <trkpt lat="42.419042" lon="2.184482">
        <ele>2787.09</ele>
        <time>2016-07-16T05:48:33Z</time>
      </trkpt>
      <trkpt lat="42.418971" lon="2.184582">
        <ele>2785.05</ele>
        <time>2016-07-16T05:48:37Z</time>
      </trkpt>
      <trkpt lat="42.418908" lon="2.184712">
        <ele>2785.09</ele>
        <time>2016-07-16T05:48:42Z</time>
      </trkpt>
      <trkpt lat="42.418824" lon="2.184795">
        <ele>2784.01</ele>
        <time>2016-07-16T05:48:46Z</time>
      </trkpt>
      <trkpt lat="42.418755" lon="2.184916">
        <ele>2782.09</ele>
        <time>2016-07-16T05:48:50Z</time>
      </trkpt>
      <trkpt lat="42.418690" lon="2.185010">
        <ele>2783.05</ele>
        <time>2016-07-16T05:48:54Z</time>
      </trkpt>
      <trkpt lat="42.418592" lon="2.185089">
        <ele>2781.02</ele>
        <time>2016-07-16T05:48:59Z</time>
      </trkpt>
      <trkpt lat="42.418519" lon="2.185186">
        <ele>2782.05</ele>
        <time>2016-07-16T05:49:03Z</time>
      </trkpt>
      <trkpt lat="42.418446" lon="2.185286">
        <ele>2781.04</ele>
        <time>2016-07-16T05:49:07Z</time>
      </trkpt>
      <trkpt lat="42.418384" lon="2.185390">
        <ele>2781.00</ele>
        <time>2016-07-16T05:49:11Z</time>
      </trkpt>
      <trkpt lat="42.418324" lon="2.185484">
        <ele>2781.02</ele>
        <time>2016-07-16T05:49:16Z</time>
      </trkpt>
      <trkpt lat="42.418258" lon="2.185577">
        <ele>2783.01</ele>
        <time>2016-07-16T05:49:25Z</time>
      </trkpt>
      <trkpt lat="42.418213" lon="2.185689">
        <ele>2785.06</ele>
        <time>2016-07-16T05:49:33Z</time>
      </trkpt>
      <trkpt lat="42.418162" lon="2.185802">
        <ele>2785.08</ele>
        <time>2016-07-16T05:49:41Z</time>
      </trkpt>
      <trkpt lat="42.418108" lon="2.185905">
        <ele>2785.07</ele>
        <time>2016-07-16T05:49:48Z</time>
      </trkpt>
      <trkpt lat="42.418062" lon="2.186020">
        <ele>2781.04</ele>
        <time>2016-07-16T05:49:56Z</time>
      </trkpt>
      <trkpt lat="42.417999" lon="2.186121">
        <ele>2782.01</ele>
        <time>2016-07-16T05:50:03Z</time>
      </trkpt>
      <trkpt lat="42.417942" lon="2.186222">
        <ele>2783.07</ele>
        <time>2016-07-16T05:50:10Z</time>
      </trkpt>
      <trkpt lat="42.417913" lon="2.186352">
        <ele>2786.10</ele>
        <time>2016-07-16T05:50:18Z</time>
      </trkpt>
      <trkpt lat="42.417934" lon="2.186477">
        <ele>2783.08</ele>
        <time>2016-07-16T05:50:24Z</time>
      </trkpt>
      <trkpt lat="42.417931" lon="2.186607">
        <ele>2781.10</ele>
        <time>2016-07-16T05:50:30Z</time>
      </trkpt>
      <trkpt lat="42.417865" lon="2.186709">
        <ele>2780.02</ele>
        <time>2016-07-16T05:50:35Z</time>
      </trkpt>
      <trkpt lat="42.417836" lon="2.186835">
        <ele>2781.03</ele>
        <time>2016-07-16T05:50:39Z</time>
      </trkpt>
      <trkpt lat="42.417814" lon="2.186979">
        <ele>2778.01</ele>
        <time>2016-07-16T05:50:44Z</time>
      </trkpt>
      <trkpt lat="42.417785" lon="2.187096">
        <ele>2781.08</ele>
        <time>2016-07-16T05:50:48Z</time>
      </trkpt>
      <trkpt lat="42.417753" lon="2.187240">
        <ele>2779.06</ele>
        <time>2016-07-16T05:50:53Z</time>
      </trkpt>
      <trkpt lat="42.417763" lon="2.187369">
        <ele>2781.03</ele>
        <time>2016-07-16T05:50:57Z</time>
      </trkpt>
      <trkpt lat="42.417746" lon="2.187505">
        <ele>2780.09</ele>
        <time>2016-07-16T05:51:02Z</time>
      </trkpt>
      <trkpt lat="42.417729" lon="2.187631">
        <ele>2777.09</ele>
        <time>2016-07-16T05:51:06Z</time>
      </trkpt>
      <trkpt lat="42.417734" lon="2.187773">
        <ele>2775.02</ele>
        <time>2016-07-16T05:51:12Z</time>
      </trkpt>
      <trkpt lat="42.417729" lon="2.187896">
        <ele>2774.03</ele>
        <time>2016-07-16T05:51:20Z</time>
      </trkpt>
      <trkpt lat="42.417700" lon="2.188019">
        <ele>2775.07</ele>
        <time>2016-07-16T05:51:28Z</time>
      </trkpt>
      <trkpt lat="42.417701" lon="2.188159">
        <ele>2777.07</ele>
        <time>2016-07-16T05:51:41Z</time>
      </trkpt>
      <trkpt lat="42.417675" lon="2.188277">
        <ele>2779.01</ele>
        <time>2016-07-16T05:51:53Z</time>
      </trkpt>
      <trkpt lat="42.417607" lon="2.188359">
        <ele>2781.01</ele>
        <time>2016-07-16T05:52:03Z</time>
      </trkpt>
      <trkpt lat="42.417553" lon="2.188470">
        <ele>2783.01</ele>
        <time>2016-07-16T05:52:19Z</time>
      </trkpt>
      <trkpt lat="42.417545" lon="2.188595">
        <ele>2785.10</ele>
        <time>2016-07-16T05:52:32Z</time>
      </trkpt>
      <trkpt lat="42.417523" lon="2.188715">
        <ele>2787.08</ele>
        <time>2016-07-16T05:52:45Z</time>
      </trkpt>
      <trkpt lat="42.417496" lon="2.188846">
        <ele>2788.05</ele>
        <time>2016-07-16T05:52:58Z</time>
      </trkpt>
      <trkpt lat="42.417487" lon="2.188975">
        <ele>2790.05</ele>
        <time>2016-07-16T05:53:11Z</time>
      </trkpt>
      <trkpt lat="42.417497" lon="2.189102">
        <ele>2792.03</ele>
        <time>2016-07-16T05:53:21Z</time>
      </trkpt>
      <trkpt lat="42.417497" lon="2.189230">
        <ele>2792.09</ele>
        <time>2016-07-16T05:53:33Z</time>
      </trkpt>
      <trkpt lat="42.417476" lon="2.189349">
        <ele>2794.09</ele>
        <time>2016-07-16T05:53:42Z</time>
      </trkpt>
      <trkpt lat="42.417419" lon="2.189460">
        <ele>2792.08</ele>
        <time>2016-07-16T05:53:50Z</time>
      </trkpt>
      <trkpt lat="42.417430" lon="2.189589">
        <ele>2788.07</ele>
        <time>2016-07-16T05:54:46Z</time>
      </trkpt>
      <trkpt lat="42.417425" lon="2.189715">
        <ele>2797.08</ele>
        <time>2016-07-16T06:01:23Z</time>
      </trkpt>
      <trkpt lat="42.417393" lon="2.189843">
        <ele>2800.02</ele>
        <time>2016-07-16T06:01:41Z</time>
      </trkpt>
      <trkpt lat="42.417367" lon="2.189966">
        <ele>2802.01</ele>
        <time>2016-07-16T06:01:49Z</time>
      </trkpt>
      <trkpt lat="42.417357" lon="2.190097">
        <ele>2802.09</ele>
        <time>2016-07-16T06:01:58Z</time>
      </trkpt>
      <trkpt lat="42.417332" lon="2.190222">
        <ele>2803.09</ele>
        <time>2016-07-16T06:02:07Z</time>
      </trkpt>
      <trkpt lat="42.417351" lon="2.190344">
        <ele>2806.05</ele>
        <time>2016-07-16T06:02:16Z</time>
      </trkpt>
      <trkpt lat="42.417356" lon="2.190476">
        <ele>2808.05</ele>
        <time>2016-07-16T06:02:25Z</time>
      </trkpt>
      <trkpt lat="42.417409" lon="2.190577">
        <ele>2808.10</ele>
        <time>2016-07-16T06:02:33Z</time>
      </trkpt>
      <trkpt lat="42.417493" lon="2.190649">
        <ele>2806.05</ele>
        <time>2016-07-16T06:03:17Z</time>
      </trkpt>
      <trkpt lat="42.417572" lon="2.190728">
        <ele>2808.02</ele>
        <time>2016-07-16T06:03:32Z</time>
      </trkpt>
      <trkpt lat="42.417661" lon="2.190788">
        <ele>2807.02</ele>
        <time>2016-07-16T06:03:40Z</time>
      </trkpt>
      <trkpt lat="42.417747" lon="2.190834">
        <ele>2805.05</ele>
        <time>2016-07-16T06:03:47Z</time>
      </trkpt>
      <trkpt lat="42.417840" lon="2.190860">
        <ele>2798.00</ele>
        <time>2016-07-16T06:03:52Z</time>
      </trkpt>
      <trkpt lat="42.417944" lon="2.190859">
        <ele>2796.01</ele>
        <time>2016-07-16T06:03:57Z</time>
      </trkpt>
      <trkpt lat="42.418034" lon="2.190842">
        <ele>2795.01</ele>
        <time>2016-07-16T06:04:01Z</time>
      </trkpt>
      <trkpt lat="42.418128" lon="2.190850">
        <ele>2795.09</ele>
        <time>2016-07-16T06:04:05Z</time>
      </trkpt>
      <trkpt lat="42.418236" lon="2.190842">
        <ele>2793.09</ele>
        <time>2016-07-16T06:04:09Z</time>
      </trkpt>
      <trkpt lat="42.418343" lon="2.190847">
        <ele>2795.03</ele>
        <time>2016-07-16T06:04:13Z</time>
      </trkpt>
      <trkpt lat="42.418440" lon="2.190852">
        <ele>2795.04</ele>
        <time>2016-07-16T06:04:18Z</time>
      </trkpt>
      <trkpt lat="42.418541" lon="2.190887">
        <ele>2799.07</ele>
        <time>2016-07-16T06:04:34Z</time>
      </trkpt>
      <trkpt lat="42.418480" lon="2.190999">
        <ele>2797.01</ele>
        <time>2016-07-16T06:05:39Z</time>
      </trkpt>
      <trkpt lat="42.418391" lon="2.191089">
        <ele>2793.05</ele>
        <time>2016-07-16T06:05:45Z</time>
      </trkpt>
      <trkpt lat="42.418338" lon="2.191222">
        <ele>2791.05</ele>
        <time>2016-07-16T06:05:50Z</time>
      </trkpt>
      <trkpt lat="42.418286" lon="2.191321">
        <ele>2789.02</ele>
        <time>2016-07-16T06:05:55Z</time>
      </trkpt>
      <trkpt lat="42.418233" lon="2.191427">
        <ele>2786.09</ele>
        <time>2016-07-16T06:06:01Z</time>
      </trkpt>
      <trkpt lat="42.418273" lon="2.191545">
        <ele>2783.01</ele>
        <time>2016-07-16T06:06:08Z</time>
      </trkpt>
      <trkpt lat="42.418260" lon="2.191685">
        <ele>2784.01</ele>
        <time>2016-07-16T06:06:17Z</time>
      </trkpt>
      <trkpt lat="42.418268" lon="2.191812">
        <ele>2781.04</ele>
        <time>2016-07-16T06:06:24Z</time>
      </trkpt>
      <trkpt lat="42.418289" lon="2.191942">
        <ele>2778.09</ele>
        <time>2016-07-16T06:06:33Z</time>
      </trkpt>
      <trkpt lat="42.418327" lon="2.192062">
        <ele>2776.06</ele>
        <time>2016-07-16T06:06:41Z</time>
      </trkpt>
      <trkpt lat="42.418348" lon="2.192190">
        <ele>2775.02</ele>
        <time>2016-07-16T06:06:52Z</time>
      </trkpt>
      <trkpt lat="42.418349" lon="2.192320">
        <ele>2772.07</ele>
        <time>2016-07-16T06:07:01Z</time>
      </trkpt>
      <trkpt lat="42.418368" lon="2.192452">
        <ele>2771.07</ele>
        <time>2016-07-16T06:07:10Z</time>
      </trkpt>
      <trkpt lat="42.418377" lon="2.192577">
        <ele>2766.03</ele>
        <time>2016-07-16T06:07:19Z</time>
      </trkpt>
      <trkpt lat="42.418385" lon="2.192720">
        <ele>2767.06</ele>
        <time>2016-07-16T06:07:32Z</time>
      </trkpt>
      <trkpt lat="42.418395" lon="2.192843">
        <ele>2764.09</ele>
        <time>2016-07-16T06:07:40Z</time>
      </trkpt>
      <trkpt lat="42.418426" lon="2.192977">
        <ele>2759.06</ele>
        <time>2016-07-16T06:07:46Z</time>
      </trkpt>
      <trkpt lat="42.418423" lon="2.193108">
        <ele>2759.02</ele>
        <time>2016-07-16T06:07:50Z</time>
      </trkpt>
      <trkpt lat="42.418418" lon="2.193238">
        <ele>2757.01</ele>
        <time>2016-07-16T06:07:54Z</time>
      </trkpt>
      <trkpt lat="42.418423" lon="2.193378">
        <ele>2754.06</ele>
        <time>2016-07-16T06:07:58Z</time>
      </trkpt>
      <trkpt lat="42.418445" lon="2.193511">
        <ele>2754.01</ele>
        <time>2016-07-16T06:08:02Z</time>
      </trkpt>
      <trkpt lat="42.418452" lon="2.193642">
        <ele>2754.03</ele>
        <time>2016-07-16T06:08:06Z</time>
      </trkpt>
      <trkpt lat="42.418474" lon="2.193772">
        <ele>2747.06</ele>
        <time>2016-07-16T06:08:10Z</time>
      </trkpt>
      <trkpt lat="42.418486" lon="2.193907">
        <ele>2751.09</ele>
        <time>2016-07-16T06:08:14Z</time>
      </trkpt>
      <trkpt lat="42.418492" lon="2.194050">
        <ele>2749.06</ele>
        <time>2016-07-16T06:08:19Z</time>
      </trkpt>
      <trkpt lat="42.418496" lon="2.194188">
        <ele>2749.01</ele>
        <time>2016-07-16T06:08:23Z</time>
      </trkpt>
      <trkpt lat="42.418478" lon="2.194314">
        <ele>2747.07</ele>
        <time>2016-07-16T06:08:27Z</time>
      </trkpt>
      <trkpt lat="42.418458" lon="2.194461">
        <ele>2745.05</ele>
        <time>2016-07-16T06:08:32Z</time>
      </trkpt>
      <trkpt lat="42.418424" lon="2.194582">
        <ele>2743.00</ele>
        <time>2016-07-16T06:08:36Z</time>
      </trkpt>
      <trkpt lat="42.418386" lon="2.194694">
        <ele>2742.01</ele>
        <time>2016-07-16T06:08:40Z</time>
      </trkpt>
      <trkpt lat="42.418326" lon="2.194794">
        <ele>2743.01</ele>
        <time>2016-07-16T06:08:44Z</time>
      </trkpt>
      <trkpt lat="42.418282" lon="2.194920">
        <ele>2740.09</ele>
        <time>2016-07-16T06:08:48Z</time>
      </trkpt>
      <trkpt lat="42.418250" lon="2.195062">
        <ele>2739.08</ele>
        <time>2016-07-16T06:08:52Z</time>
      </trkpt>
      <trkpt lat="42.418238" lon="2.195198">
        <ele>2737.07</ele>
        <time>2016-07-16T06:09:00Z</time>
      </trkpt>
      <trkpt lat="42.418230" lon="2.195323">
        <ele>2732.02</ele>
        <time>2016-07-16T06:09:12Z</time>
      </trkpt>
      <trkpt lat="42.418182" lon="2.195442">
        <ele>2733.03</ele>
        <time>2016-07-16T06:09:23Z</time>
      </trkpt>
      <trkpt lat="42.418148" lon="2.195568">
        <ele>2736.01</ele>
        <time>2016-07-16T06:09:32Z</time>
      </trkpt>
      <trkpt lat="42.418109" lon="2.195690">
        <ele>2734.04</ele>
        <time>2016-07-16T06:09:41Z</time>
      </trkpt>
      <trkpt lat="42.418073" lon="2.195803">
        <ele>2738.05</ele>
        <time>2016-07-16T06:09:50Z</time>
      </trkpt>
      <trkpt lat="42.418003" lon="2.195901">
        <ele>2734.04</ele>
        <time>2016-07-16T06:10:02Z</time>
      </trkpt>
      <trkpt lat="42.417968" lon="2.196016">
        <ele>2730.06</ele>
        <time>2016-07-16T06:10:14Z</time>
      </trkpt>
      <trkpt lat="42.417928" lon="2.196150">
        <ele>2732.01</ele>
        <time>2016-07-16T06:10:27Z</time>
      </trkpt>
      <trkpt lat="42.417866" lon="2.196252">
        <ele>2732.01</ele>
        <time>2016-07-16T06:10:41Z</time>
      </trkpt>
      <trkpt lat="42.417841" lon="2.196371">
        <ele>2733.09</ele>
        <time>2016-07-16T06:10:52Z</time>
      </trkpt>
      <trkpt lat="42.417800" lon="2.196497">
        <ele>2735.10</ele>
        <time>2016-07-16T06:11:03Z</time>
      </trkpt>
      <trkpt lat="42.417759" lon="2.196618">
        <ele>2735.04</ele>
        <time>2016-07-16T06:11:13Z</time>
      </trkpt>
      <trkpt lat="42.417711" lon="2.196738">
        <ele>2736.01</ele>
        <time>2016-07-16T06:11:27Z</time>
      </trkpt>
      <trkpt lat="42.417679" lon="2.196856">
        <ele>2737.05</ele>
        <time>2016-07-16T06:11:48Z</time>
      </trkpt>
      <trkpt lat="42.417643" lon="2.196973">
        <ele>2738.07</ele>
        <time>2016-07-16T06:11:58Z</time>
      </trkpt>
      <trkpt lat="42.417625" lon="2.197106">
        <ele>2736.10</ele>
        <time>2016-07-16T06:12:08Z</time>
      </trkpt>
      <trkpt lat="42.417612" lon="2.197231">
        <ele>2743.09</ele>
        <time>2016-07-16T06:12:16Z</time>
      </trkpt>
      <trkpt lat="42.417578" lon="2.197345">
        <ele>2745.02</ele>
        <time>2016-07-16T06:12:26Z</time>
      </trkpt>
      <trkpt lat="42.417536" lon="2.197467">
        <ele>2750.08</ele>
        <time>2016-07-16T06:12:39Z</time>
      </trkpt>
      <trkpt lat="42.417518" lon="2.197590">
        <ele>2749.01</ele>
        <time>2016-07-16T06:12:51Z</time>
      </trkpt>
      <trkpt lat="42.417475" lon="2.197715">
        <ele>2747.01</ele>
        <time>2016-07-16T06:13:05Z</time>
      </trkpt>
      <trkpt lat="42.417436" lon="2.197838">
        <ele>2756.07</ele>
        <time>2016-07-16T06:13:21Z</time>
      </trkpt>
      <trkpt lat="42.417362" lon="2.197907">
        <ele>2753.05</ele>
        <time>2016-07-16T06:13:32Z</time>
      </trkpt>
      <trkpt lat="42.417327" lon="2.198033">
        <ele>2749.02</ele>
        <time>2016-07-16T06:13:46Z</time>
      </trkpt>
      <trkpt lat="42.417298" lon="2.198150">
        <ele>2756.02</ele>
        <time>2016-07-16T06:13:59Z</time>
      </trkpt>
      <trkpt lat="42.417221" lon="2.198213">
        <ele>2759.03</ele>
        <time>2016-07-16T06:14:11Z</time>
      </trkpt>
      <trkpt lat="42.417147" lon="2.198286">
        <ele>2760.08</ele>
        <time>2016-07-16T06:14:25Z</time>
      </trkpt>
      <trkpt lat="42.417080" lon="2.198390">
        <ele>2759.04</ele>
        <time>2016-07-16T06:15:08Z</time>
      </trkpt>
      <trkpt lat="42.417030" lon="2.198514">
        <ele>2761.08</ele>
        <time>2016-07-16T06:15:22Z</time>
      </trkpt>
      <trkpt lat="42.416981" lon="2.198625">
        <ele>2765.06</ele>
        <time>2016-07-16T06:15:34Z</time>
      </trkpt>
      <trkpt lat="42.416932" lon="2.198730">
        <ele>2767.05</ele>
        <time>2016-07-16T06:15:48Z</time>
      </trkpt>
      <trkpt lat="42.416887" lon="2.198844">
        <ele>2771.02</ele>
        <time>2016-07-16T06:16:02Z</time>
      </trkpt>
      <trkpt lat="42.416867" lon="2.198975">
        <ele>2775.01</ele>
        <time>2016-07-16T06:16:14Z</time>
      </trkpt>
      <trkpt lat="42.416798" lon="2.199055">
        <ele>2776.07</ele>
        <time>2016-07-16T06:16:31Z</time>
      </trkpt>
      <trkpt lat="42.416727" lon="2.199138">
        <ele>2778.10</ele>
        <time>2016-07-16T06:16:47Z</time>
      </trkpt>
      <trkpt lat="42.416662" lon="2.199230">
        <ele>2782.05</ele>
        <time>2016-07-16T06:17:03Z</time>
      </trkpt>
      <trkpt lat="42.416594" lon="2.199330">
        <ele>2784.05</ele>
        <time>2016-07-16T06:17:19Z</time>
      </trkpt>
      <trkpt lat="42.416556" lon="2.199444">
        <ele>2788.09</ele>
        <time>2016-07-16T06:17:37Z</time>
      </trkpt>
      <trkpt lat="42.416512" lon="2.199553">
        <ele>2793.07</ele>
        <time>2016-07-16T06:17:54Z</time>
      </trkpt>
      <trkpt lat="42.416485" lon="2.199678">
        <ele>2798.01</ele>
        <time>2016-07-16T06:18:10Z</time>
      </trkpt>
      <trkpt lat="42.416478" lon="2.199804">
        <ele>2797.09</ele>
        <time>2016-07-16T06:18:22Z</time>
      </trkpt>
      <trkpt lat="42.416494" lon="2.199940">
        <ele>2797.07</ele>
        <time>2016-07-16T06:18:29Z</time>
      </trkpt>
      <trkpt lat="42.416513" lon="2.200064">
        <ele>2798.04</ele>
        <time>2016-07-16T06:18:36Z</time>
      </trkpt>
      <trkpt lat="42.416514" lon="2.200187">
        <ele>2799.03</ele>
        <time>2016-07-16T06:18:43Z</time>
      </trkpt>
      <trkpt lat="42.416499" lon="2.200319">
        <ele>2798.01</ele>
        <time>2016-07-16T06:18:52Z</time>
      </trkpt>
      <trkpt lat="42.416480" lon="2.200443">
        <ele>2797.05</ele>
        <time>2016-07-16T06:19:00Z</time>
      </trkpt>
      <trkpt lat="42.416474" lon="2.200571">
        <ele>2798.07</ele>
        <time>2016-07-16T06:19:08Z</time>
      </trkpt>
      <trkpt lat="42.416430" lon="2.200691">
        <ele>2797.02</ele>
        <time>2016-07-16T06:19:17Z</time>
      </trkpt>
      <trkpt lat="42.416391" lon="2.200812">
        <ele>2797.05</ele>
        <time>2016-07-16T06:19:28Z</time>
      </trkpt>
      <trkpt lat="42.416341" lon="2.200935">
        <ele>2798.05</ele>
        <time>2016-07-16T06:19:38Z</time>
      </trkpt>
      <trkpt lat="42.416291" lon="2.201040">
        <ele>2798.05</ele>
        <time>2016-07-16T06:19:45Z</time>
      </trkpt>
      <trkpt lat="42.416251" lon="2.201158">
        <ele>2798.09</ele>
        <time>2016-07-16T06:19:53Z</time>
      </trkpt>
      <trkpt lat="42.416230" lon="2.201284">
        <ele>2798.06</ele>
        <time>2016-07-16T06:20:01Z</time>
      </trkpt>
      <trkpt lat="42.416235" lon="2.201412">
        <ele>2798.09</ele>
        <time>2016-07-16T06:20:11Z</time>
      </trkpt>
      <trkpt lat="42.416226" lon="2.201548">
        <ele>2799.01</ele>
        <time>2016-07-16T06:20:21Z</time>
      </trkpt>
      <trkpt lat="42.416314" lon="2.201597">
        <ele>2803.03</ele>
        <time>2016-07-16T06:20:34Z</time>
      </trkpt>
      <trkpt lat="42.416408" lon="2.201600">
        <ele>2805.01</ele>
        <time>2016-07-16T06:21:13Z</time>
      </trkpt>
      <trkpt lat="42.416499" lon="2.201568">
        <ele>2813.09</ele>
        <time>2016-07-16T06:21:55Z</time>
      </trkpt>
      <trkpt lat="42.416424" lon="2.201644">
        <ele>2815.02</ele>
        <time>2016-07-16T06:24:34Z</time>
      </trkpt>
      <trkpt lat="42.416336" lon="2.201702">
        <ele>2809.02</ele>
        <time>2016-07-16T06:25:03Z</time>
      </trkpt>
      <trkpt lat="42.416349" lon="2.201837">
        <ele>2806.09</ele>
        <time>2016-07-16T06:25:14Z</time>
      </trkpt>
      <trkpt lat="42.416409" lon="2.201938">
        <ele>2804.02</ele>
        <time>2016-07-16T06:25:21Z</time>
      </trkpt>
      <trkpt lat="42.416455" lon="2.202052">
        <ele>2803.04</ele>
        <time>2016-07-16T06:25:28Z</time>
      </trkpt>
      <trkpt lat="42.416440" lon="2.202176">
        <ele>2801.02</ele>
        <time>2016-07-16T06:29:02Z</time>
      </trkpt>
      <trkpt lat="42.416479" lon="2.202297">
        <ele>2800.04</ele>
        <time>2016-07-16T06:29:11Z</time>
      </trkpt>
      <trkpt lat="42.416493" lon="2.202427">
        <ele>2798.06</ele>
        <time>2016-07-16T06:29:20Z</time>
      </trkpt>
      <trkpt lat="42.416509" lon="2.202555">
        <ele>2797.01</ele>
        <time>2016-07-16T06:29:29Z</time>
      </trkpt>
      <trkpt lat="42.416557" lon="2.202675">
        <ele>2797.02</ele>
        <time>2016-07-16T06:29:34Z</time>
      </trkpt>
      <trkpt lat="42.416610" lon="2.202811">
        <ele>2797.01</ele>
        <time>2016-07-16T06:29:38Z</time>
      </trkpt>
      <trkpt lat="42.416676" lon="2.202945">
        <ele>2797.06</ele>
        <time>2016-07-16T06:29:42Z</time>
      </trkpt>
      <trkpt lat="42.416733" lon="2.203060">
        <ele>2796.02</ele>
        <time>2016-07-16T06:29:46Z</time>
      </trkpt>
      <trkpt lat="42.416795" lon="2.203185">
        <ele>2796.05</ele>
        <time>2016-07-16T06:29:50Z</time>
      </trkpt>
      <trkpt lat="42.416819" lon="2.203321">
        <ele>2795.09</ele>
        <time>2016-07-16T06:29:54Z</time>
      </trkpt>
      <trkpt lat="42.416841" lon="2.203463">
        <ele>2794.02</ele>
        <time>2016-07-16T06:29:58Z</time>
      </trkpt>
      <trkpt lat="42.416897" lon="2.203578">
        <ele>2794.08</ele>
        <time>2016-07-16T06:30:03Z</time>
      </trkpt>
      <trkpt lat="42.416944" lon="2.203708">
        <ele>2792.01</ele>
        <time>2016-07-16T06:30:09Z</time>
      </trkpt>
      <trkpt lat="42.416994" lon="2.203830">
        <ele>2792.02</ele>
        <time>2016-07-16T06:30:14Z</time>
      </trkpt>
      <trkpt lat="42.417064" lon="2.203912">
        <ele>2794.06</ele>
        <time>2016-07-16T06:30:23Z</time>
      </trkpt>
      <trkpt lat="42.417088" lon="2.204047">
        <ele>2796.00</ele>
        <time>2016-07-16T06:30:45Z</time>
      </trkpt>
      <trkpt lat="42.417106" lon="2.204170">
        <ele>2797.02</ele>
        <time>2016-07-16T06:30:53Z</time>
      </trkpt>
      <trkpt lat="42.417127" lon="2.204304">
        <ele>2798.01</ele>
        <time>2016-07-16T06:31:01Z</time>
      </trkpt>
      <trkpt lat="42.417167" lon="2.204424">
        <ele>2799.03</ele>
        <time>2016-07-16T06:31:08Z</time>
      </trkpt>
      <trkpt lat="42.417188" lon="2.204562">
        <ele>2800.05</ele>
        <time>2016-07-16T06:31:17Z</time>
      </trkpt>
      <trkpt lat="42.417232" lon="2.204676">
        <ele>2803.09</ele>
        <time>2016-07-16T06:31:31Z</time>
      </trkpt>
      <trkpt lat="42.417267" lon="2.204802">
        <ele>2805.04</ele>
        <time>2016-07-16T06:31:42Z</time>
      </trkpt>
      <trkpt lat="42.417286" lon="2.204932">
        <ele>2806.03</ele>
        <time>2016-07-16T06:31:51Z</time>
      </trkpt>
      <trkpt lat="42.417294" lon="2.205058">
        <ele>2807.07</ele>
        <time>2016-07-16T06:32:01Z</time>
      </trkpt>
      <trkpt lat="42.417286" lon="2.205191">
        <ele>2808.02</ele>
        <time>2016-07-16T06:32:11Z</time>
      </trkpt>
      <trkpt lat="42.417310" lon="2.205326">
        <ele>2810.02</ele>
        <time>2016-07-16T06:32:20Z</time>
      </trkpt>
      <trkpt lat="42.417326" lon="2.205458">
        <ele>2809.05</ele>
        <time>2016-07-16T06:32:29Z</time>
      </trkpt>
      <trkpt lat="42.417358" lon="2.205587">
        <ele>2810.06</ele>
        <time>2016-07-16T06:32:37Z</time>
      </trkpt>
      <trkpt lat="42.417373" lon="2.205711">
        <ele>2810.02</ele>
        <time>2016-07-16T06:32:44Z</time>
      </trkpt>
      <trkpt lat="42.417378" lon="2.205849">
        <ele>2811.01</ele>
        <time>2016-07-16T06:32:53Z</time>
      </trkpt>
      <trkpt lat="42.417417" lon="2.205965">
        <ele>2812.07</ele>
        <time>2016-07-16T06:33:02Z</time>
      </trkpt>
      <trkpt lat="42.417458" lon="2.206074">
        <ele>2813.10</ele>
        <time>2016-07-16T06:33:11Z</time>
      </trkpt>
      <trkpt lat="42.417524" lon="2.206167">
        <ele>2814.07</ele>
        <time>2016-07-16T06:33:18Z</time>
      </trkpt>
      <trkpt lat="42.417555" lon="2.206290">
        <ele>2815.03</ele>
        <time>2016-07-16T06:33:25Z</time>
      </trkpt>
      <trkpt lat="42.417602" lon="2.206403">
        <ele>2815.04</ele>
        <time>2016-07-16T06:33:32Z</time>
      </trkpt>
      <trkpt lat="42.417665" lon="2.206509">
        <ele>2814.09</ele>
        <time>2016-07-16T06:33:40Z</time>
      </trkpt>
      <trkpt lat="42.417739" lon="2.206596">
        <ele>2813.06</ele>
        <time>2016-07-16T06:34:06Z</time>
      </trkpt>
      <trkpt lat="42.417831" lon="2.206571">
        <ele>2810.05</ele>
        <time>2016-07-16T06:34:15Z</time>
      </trkpt>
      <trkpt lat="42.417925" lon="2.206586">
        <ele>2815.04</ele>
        <time>2016-07-16T06:34:19Z</time>
      </trkpt>
      <trkpt lat="42.418029" lon="2.206614">
        <ele>2812.02</ele>
        <time>2016-07-16T06:34:23Z</time>
      </trkpt>
      <trkpt lat="42.418127" lon="2.206636">
        <ele>2812.01</ele>
        <time>2016-07-16T06:34:27Z</time>
      </trkpt>
      <trkpt lat="42.418216" lon="2.206674">
        <ele>2814.01</ele>
        <time>2016-07-16T06:34:31Z</time>
      </trkpt>
      <trkpt lat="42.418308" lon="2.206689">
        <ele>2815.07</ele>
        <time>2016-07-16T06:34:35Z</time>
      </trkpt>
      <trkpt lat="42.418411" lon="2.206654">
        <ele>2813.10</ele>
        <time>2016-07-16T06:34:40Z</time>
      </trkpt>
      <trkpt lat="42.418503" lon="2.206691">
        <ele>2811.05</ele>
        <time>2016-07-16T06:34:44Z</time>
      </trkpt>
      <trkpt lat="42.418581" lon="2.206786">
        <ele>2811.09</ele>
        <time>2016-07-16T06:34:48Z</time>
      </trkpt>
      <trkpt lat="42.418688" lon="2.206789">
        <ele>2810.07</ele>
        <time>2016-07-16T06:34:52Z</time>
      </trkpt>
      <trkpt lat="42.418781" lon="2.206806">
        <ele>2810.05</ele>
        <time>2016-07-16T06:34:56Z</time>
      </trkpt>
      <trkpt lat="42.418875" lon="2.206847">
        <ele>2808.06</ele>
        <time>2016-07-16T06:35:02Z</time>
      </trkpt>
      <trkpt lat="42.418965" lon="2.206887">
        <ele>2793.07</ele>
        <time>2016-07-16T06:35:15Z</time>
      </trkpt>
      <trkpt lat="42.419055" lon="2.206921">
        <ele>2790.08</ele>
        <time>2016-07-16T06:35:21Z</time>
      </trkpt>
      <trkpt lat="42.419130" lon="2.207017">
        <ele>2788.06</ele>
        <time>2016-07-16T06:35:28Z</time>
      </trkpt>
      <trkpt lat="42.419200" lon="2.207109">
        <ele>2787.03</ele>
        <time>2016-07-16T06:35:37Z</time>
      </trkpt>
      <trkpt lat="42.419305" lon="2.207130">
        <ele>2785.01</ele>
        <time>2016-07-16T06:35:47Z</time>
      </trkpt>
      <trkpt lat="42.419400" lon="2.207147">
        <ele>2783.05</ele>
        <time>2016-07-16T06:35:55Z</time>
      </trkpt>
      <trkpt lat="42.419480" lon="2.207226">
        <ele>2782.02</ele>
        <time>2016-07-16T06:36:04Z</time>
      </trkpt>
      <trkpt lat="42.419569" lon="2.207320">
        <ele>2784.05</ele>
        <time>2016-07-16T06:36:16Z</time>
      </trkpt>
      <trkpt lat="42.419648" lon="2.207401">
        <ele>2782.10</ele>
        <time>2016-07-16T06:36:24Z</time>
      </trkpt>
      <trkpt lat="42.419653" lon="2.207531">
        <ele>2781.04</ele>
        <time>2016-07-16T06:36:30Z</time>
      </trkpt>
      <trkpt lat="42.419676" lon="2.207660">
        <ele>2780.09</ele>
        <time>2016-07-16T06:36:37Z</time>
      </trkpt>
      <trkpt lat="42.419738" lon="2.207790">
        <ele>2778.02</ele>
        <time>2016-07-16T06:36:46Z</time>
      </trkpt>
      <trkpt lat="42.419701" lon="2.207905">
        <ele>2775.09</ele>
        <time>2016-07-16T06:36:58Z</time>
      </trkpt>
      <trkpt lat="42.419698" lon="2.208032">
        <ele>2772.09</ele>
        <time>2016-07-16T06:37:07Z</time>
      </trkpt>
      <trkpt lat="42.419732" lon="2.208145">
        <ele>2768.05</ele>
        <time>2016-07-16T06:37:21Z</time>
      </trkpt>
      <trkpt lat="42.419745" lon="2.208281">
        <ele>2766.02</ele>
        <time>2016-07-16T06:37:29Z</time>
      </trkpt>
      <trkpt lat="42.419739" lon="2.208420">
        <ele>2763.01</ele>
        <time>2016-07-16T06:38:50Z</time>
      </trkpt>
      <trkpt lat="42.419772" lon="2.208542">
        <ele>2759.02</ele>
        <time>2016-07-16T06:39:06Z</time>
      </trkpt>
      <trkpt lat="42.419769" lon="2.208673">
        <ele>2752.08</ele>
        <time>2016-07-16T06:39:22Z</time>
      </trkpt>
      <trkpt lat="42.419755" lon="2.208810">
        <ele>2754.04</ele>
        <time>2016-07-16T06:39:35Z</time>
      </trkpt>
      <trkpt lat="42.419751" lon="2.208944">
        <ele>2744.04</ele>
        <time>2016-07-16T06:39:56Z</time>
      </trkpt>
      <trkpt lat="42.419742" lon="2.209077">
        <ele>2742.06</ele>
        <time>2016-07-16T06:40:04Z</time>
      </trkpt>
      <trkpt lat="42.419750" lon="2.209207">
        <ele>2735.08</ele>
        <time>2016-07-16T06:40:44Z</time>
      </trkpt>
      <trkpt lat="42.419803" lon="2.209319">
        <ele>2744.06</ele>
        <time>2016-07-16T06:40:50Z</time>
      </trkpt>
      <trkpt lat="42.419860" lon="2.209415">
        <ele>2734.05</ele>
        <time>2016-07-16T06:40:57Z</time>
      </trkpt>
      <trkpt lat="42.419898" lon="2.209532">
        <ele>2734.09</ele>
        <time>2016-07-16T06:41:05Z</time>
      </trkpt>
      <trkpt lat="42.419916" lon="2.209657">
        <ele>2734.06</ele>
        <time>2016-07-16T06:41:20Z</time>
      </trkpt>
      <trkpt lat="42.419935" lon="2.209786">
        <ele>2734.02</ele>
        <time>2016-07-16T06:41:29Z</time>
      </trkpt>
      <trkpt lat="42.419946" lon="2.209918">
        <ele>2734.01</ele>
        <time>2016-07-16T06:41:45Z</time>
      </trkpt>
      <trkpt lat="42.419978" lon="2.210048">
        <ele>2734.08</ele>
        <time>2016-07-16T06:41:52Z</time>
      </trkpt>
      <trkpt lat="42.419976" lon="2.210170">
        <ele>2734.06</ele>
        <time>2016-07-16T06:42:09Z</time>
      </trkpt>
      <trkpt lat="42.420009" lon="2.210293">
        <ele>2734.07</ele>
        <time>2016-07-16T06:42:17Z</time>
      </trkpt>
      <trkpt lat="42.420057" lon="2.210397">
        <ele>2737.09</ele>
        <time>2016-07-16T06:42:26Z</time>
      </trkpt>
      <trkpt lat="42.420103" lon="2.210510">
        <ele>2740.06</ele>
        <time>2016-07-16T06:42:41Z</time>
      </trkpt>
      <trkpt lat="42.420016" lon="2.210601">
        <ele>2740.08</ele>
        <time>2016-07-16T06:43:21Z</time>
      </trkpt>
      <trkpt lat="42.420102" lon="2.210553">
        <ele>2740.05</ele>
        <time>2016-07-16T06:43:37Z</time>
      </trkpt>
      <trkpt lat="42.420162" lon="2.210657">
        <ele>2746.05</ele>
        <time>2016-07-16T06:48:25Z</time>
      </trkpt>
      <trkpt lat="42.420233" lon="2.210737">
        <ele>2748.04</ele>
        <time>2016-07-16T06:48:43Z</time>
      </trkpt>
      <trkpt lat="42.420257" lon="2.210858">
        <ele>2749.05</ele>
        <time>2016-07-16T06:48:57Z</time>
      </trkpt>
      <trkpt lat="42.420302" lon="2.210967">
        <ele>2750.01</ele>
        <time>2016-07-16T06:49:16Z</time>
      </trkpt>
      <trkpt lat="42.420327" lon="2.211086">
        <ele>2751.01</ele>
        <time>2016-07-16T06:49:26Z</time>
      </trkpt>
      <trkpt lat="42.420409" lon="2.211147">
        <ele>2756.05</ele>
        <time>2016-07-16T06:49:42Z</time>
      </trkpt>
      <trkpt lat="42.420448" lon="2.211269">
        <ele>2759.08</ele>
        <time>2016-07-16T06:49:54Z</time>
      </trkpt>
      <trkpt lat="42.420504" lon="2.211370">
        <ele>2762.06</ele>
        <time>2016-07-16T06:50:07Z</time>
      </trkpt>
      <trkpt lat="42.420596" lon="2.211330">
        <ele>2767.05</ele>
        <time>2016-07-16T06:50:23Z</time>
      </trkpt>
      <trkpt lat="42.420628" lon="2.211447">
        <ele>2769.03</ele>
        <time>2016-07-16T06:50:36Z</time>
      </trkpt>
      <trkpt lat="42.420643" lon="2.211579">
        <ele>2770.09</ele>
        <time>2016-07-16T06:50:47Z</time>
      </trkpt>
      <trkpt lat="42.420643" lon="2.211715">
        <ele>2773.09</ele>
        <time>2016-07-16T06:50:59Z</time>
      </trkpt>
      <trkpt lat="42.420691" lon="2.211835">
        <ele>2775.03</ele>
        <time>2016-07-16T06:51:12Z</time>
      </trkpt>
      <trkpt lat="42.420722" lon="2.211972">
        <ele>2777.03</ele>
        <time>2016-07-16T06:51:25Z</time>
      </trkpt>
      <trkpt lat="42.420775" lon="2.212072">
        <ele>2780.05</ele>
        <time>2016-07-16T06:51:40Z</time>
      </trkpt>
      <trkpt lat="42.420791" lon="2.212196">
        <ele>2782.01</ele>
        <time>2016-07-16T06:51:53Z</time>
      </trkpt>
      <trkpt lat="42.420862" lon="2.212292">
        <ele>2784.01</ele>
        <time>2016-07-16T06:52:06Z</time>
      </trkpt>
      <trkpt lat="42.420957" lon="2.212313">
        <ele>2788.08</ele>
        <time>2016-07-16T06:52:31Z</time>
      </trkpt>
      <trkpt lat="42.421055" lon="2.212306">
        <ele>2787.02</ele>
        <time>2016-07-16T06:53:18Z</time>
      </trkpt>
      <trkpt lat="42.421061" lon="2.212435">
        <ele>2789.06</ele>
        <time>2016-07-16T06:53:29Z</time>
      </trkpt>
      <trkpt lat="42.421116" lon="2.212533">
        <ele>2788.01</ele>
        <time>2016-07-16T06:53:48Z</time>
      </trkpt>
      <trkpt lat="42.421209" lon="2.212562">
        <ele>2785.02</ele>
        <time>2016-07-16T06:54:01Z</time>
      </trkpt>
      <trkpt lat="42.421285" lon="2.212629">
        <ele>2786.03</ele>
        <time>2016-07-16T06:54:11Z</time>
      </trkpt>
      <trkpt lat="42.421311" lon="2.212760">
        <ele>2792.07</ele>
        <time>2016-07-16T06:54:31Z</time>
      </trkpt>
      <trkpt lat="42.421350" lon="2.212880">
        <ele>2794.02</ele>
        <time>2016-07-16T06:54:45Z</time>
      </trkpt>
      <trkpt lat="42.421423" lon="2.212965">
        <ele>2795.08</ele>
        <time>2016-07-16T06:55:03Z</time>
      </trkpt>
      <trkpt lat="42.421495" lon="2.213052">
        <ele>2795.04</ele>
        <time>2016-07-16T06:55:21Z</time>
      </trkpt>
      <trkpt lat="42.421582" lon="2.213088">
        <ele>2793.02</ele>
        <time>2016-07-16T06:55:35Z</time>
      </trkpt>
      <trkpt lat="42.421652" lon="2.213184">
        <ele>2795.01</ele>
        <time>2016-07-16T06:55:47Z</time>
      </trkpt>
      <trkpt lat="42.421728" lon="2.213273">
        <ele>2798.08</ele>
        <time>2016-07-16T06:56:02Z</time>
      </trkpt>
      <trkpt lat="42.421809" lon="2.213345">
        <ele>2798.02</ele>
        <time>2016-07-16T06:56:12Z</time>
      </trkpt>
      <trkpt lat="42.421877" lon="2.213431">
        <ele>2801.03</ele>
        <time>2016-07-16T06:56:23Z</time>
      </trkpt>
      <trkpt lat="42.421923" lon="2.213549">
        <ele>2805.06</ele>
        <time>2016-07-16T06:56:41Z</time>
      </trkpt>
      <trkpt lat="42.421993" lon="2.213652">
        <ele>2809.07</ele>
        <time>2016-07-16T06:56:59Z</time>
      </trkpt>
      <trkpt lat="42.422080" lon="2.213726">
        <ele>2810.09</ele>
        <time>2016-07-16T06:57:11Z</time>
      </trkpt>
      <trkpt lat="42.422145" lon="2.213820">
        <ele>2813.09</ele>
        <time>2016-07-16T06:57:25Z</time>
      </trkpt>
      <trkpt lat="42.422231" lon="2.213888">
        <ele>2815.06</ele>
        <time>2016-07-16T06:57:38Z</time>
      </trkpt>
      <trkpt lat="42.422315" lon="2.213956">
        <ele>2817.08</ele>
        <time>2016-07-16T06:57:52Z</time>
      </trkpt>
      <trkpt lat="42.422388" lon="2.214047">
        <ele>2818.01</ele>
        <time>2016-07-16T06:58:05Z</time>
      </trkpt>
      <trkpt lat="42.422473" lon="2.214121">
        <ele>2821.03</ele>
        <time>2016-07-16T06:58:19Z</time>
      </trkpt>
      <trkpt lat="42.422546" lon="2.214225">
        <ele>2824.01</ele>
        <time>2016-07-16T06:58:35Z</time>
      </trkpt>
      <trkpt lat="42.422633" lon="2.214285">
        <ele>2825.08</ele>
        <time>2016-07-16T06:58:45Z</time>
      </trkpt>
      <trkpt lat="42.422721" lon="2.214339">
        <ele>2826.07</ele>
        <time>2016-07-16T06:58:54Z</time>
      </trkpt>
      <trkpt lat="42.422814" lon="2.214369">
        <ele>2827.07</ele>
        <time>2016-07-16T06:59:03Z</time>
      </trkpt>
      <trkpt lat="42.422905" lon="2.214411">
        <ele>2827.06</ele>
        <time>2016-07-16T06:59:12Z</time>
      </trkpt>
      <trkpt lat="42.422989" lon="2.214487">
        <ele>2828.04</ele>
        <time>2016-07-16T06:59:22Z</time>
      </trkpt>
      <trkpt lat="42.423077" lon="2.214551">
        <ele>2829.09</ele>
        <time>2016-07-16T06:59:33Z</time>
      </trkpt>
      <trkpt lat="42.423152" lon="2.214588">
        <ele>2831.54</ele>
        <time>2016-07-16T06:59:41.20Z</time>
      </trkpt>
      <trkpt lat="42.423168" lon="2.214596">
        <ele>2832.08</ele>
        <time>2016-07-16T06:59:43Z</time>
      </trkpt>
      <trkpt lat="42.423260" lon="2.214620">
        <ele>2832.06</ele>
        <time>2016-07-16T06:59:52Z</time>
      </trkpt>
      <trkpt lat="42.423355" lon="2.214577">
        <ele>2834.08</ele>
        <time>2016-07-16T07:00:02Z</time>
      </trkpt>
      <trkpt lat="42.423443" lon="2.214551">
        <ele>2835.04</ele>
        <time>2016-07-16T07:00:10Z</time>
      </trkpt>
      <trkpt lat="42.423529" lon="2.214478">
        <ele>2837.02</ele>
        <time>2016-07-16T07:00:18Z</time>
      </trkpt>
      <trkpt lat="42.423609" lon="2.214402">
        <ele>2838.01</ele>
        <time>2016-07-16T07:00:27Z</time>
      </trkpt>
      <trkpt lat="42.423660" lon="2.214280">
        <ele>2842.05</ele>
        <time>2016-07-16T07:00:42Z</time>
      </trkpt>
      <trkpt lat="42.423699" lon="2.214160">
        <ele>2843.07</ele>
        <time>2016-07-16T07:00:54Z</time>
      </trkpt>
      <trkpt lat="42.423749" lon="2.214050">
        <ele>2846.07</ele>
        <time>2016-07-16T07:01:08Z</time>
      </trkpt>
      <trkpt lat="42.423818" lon="2.213959">
        <ele>2849.03</ele>
        <time>2016-07-16T07:01:26Z</time>
      </trkpt>
      <trkpt lat="42.423873" lon="2.213852">
        <ele>2854.02</ele>
        <time>2016-07-16T07:01:50Z</time>
      </trkpt>
      <trkpt lat="42.423966" lon="2.213818">
        <ele>2860.05</ele>
        <time>2016-07-16T07:02:16Z</time>
      </trkpt>
      <trkpt lat="42.423966" lon="2.213818">
        <ele>2860.05</ele>
        <time>2016-07-16T06:33:20Z</time>
      </trkpt>
      <trkpt lat="42.423873" lon="2.213852">
        <ele>2854.02</ele>
        <time>2016-07-16T06:33:46Z</time>
      </trkpt>
      <trkpt lat="42.423818" lon="2.213959">
        <ele>2849.03</ele>
        <time>2016-07-16T06:34:10Z</time>
      </trkpt>
      <trkpt lat="42.423749" lon="2.214050">
        <ele>2846.07</ele>
        <time>2016-07-16T06:34:28Z</time>
      </trkpt>
      <trkpt lat="42.423699" lon="2.214160">
        <ele>2843.07</ele>
        <time>2016-07-16T06:34:42Z</time>
      </trkpt>
      <trkpt lat="42.423660" lon="2.214280">
        <ele>2842.05</ele>
        <time>2016-07-16T06:34:54Z</time>
      </trkpt>
      <trkpt lat="42.423609" lon="2.214402">
        <ele>2838.01</ele>
        <time>2016-07-16T06:35:09Z</time>
      </trkpt>
      <trkpt lat="42.423529" lon="2.214478">
        <ele>2837.02</ele>
        <time>2016-07-16T06:35:18Z</time>
      </trkpt>
      <trkpt lat="42.423443" lon="2.214551">
        <ele>2835.04</ele>
        <time>2016-07-16T06:35:26Z</time>
      </trkpt>
      <trkpt lat="42.423355" lon="2.214577">
        <ele>2834.08</ele>
        <time>2016-07-16T06:35:34Z</time>
      </trkpt>
      <trkpt lat="42.423260" lon="2.214620">
        <ele>2832.06</ele>
        <time>2016-07-16T06:35:44Z</time>
      </trkpt>
      <trkpt lat="42.423168" lon="2.214596">
        <ele>2832.08</ele>
        <time>2016-07-16T06:35:53Z</time>
      </trkpt>
      <trkpt lat="42.423077" lon="2.214551">
        <ele>2829.09</ele>
        <time>2016-07-16T06:36:03Z</time>
      </trkpt>
      <trkpt lat="42.422989" lon="2.214487">
        <ele>2828.04</ele>
        <time>2016-07-16T06:36:14Z</time>
      </trkpt>
      <trkpt lat="42.422905" lon="2.214411">
        <ele>2827.06</ele>
        <time>2016-07-16T06:36:24Z</time>
      </trkpt>
      <trkpt lat="42.422814" lon="2.214369">
        <ele>2827.07</ele>
        <time>2016-07-16T06:36:33Z</time>
      </trkpt>
      <trkpt lat="42.422721" lon="2.214339">
        <ele>2826.07</ele>
        <time>2016-07-16T06:36:42Z</time>
      </trkpt>
      <trkpt lat="42.422633" lon="2.214285">
        <ele>2825.08</ele>
        <time>2016-07-16T06:36:51Z</time>
      </trkpt>
      <trkpt lat="42.422546" lon="2.214225">
        <ele>2824.01</ele>
        <time>2016-07-16T06:37:01Z</time>
      </trkpt>
      <trkpt lat="42.422473" lon="2.214121">
        <ele>2821.03</ele>
        <time>2016-07-16T06:37:17Z</time>
      </trkpt>
      <trkpt lat="42.422388" lon="2.214047">
        <ele>2818.01</ele>
        <time>2016-07-16T06:37:31Z</time>
      </trkpt>
      <trkpt lat="42.422315" lon="2.213956">
        <ele>2817.08</ele>
        <time>2016-07-16T06:37:44Z</time>
      </trkpt>
      <trkpt lat="42.422231" lon="2.213888">
        <ele>2815.06</ele>
        <time>2016-07-16T06:37:58Z</time>
      </trkpt>
      <trkpt lat="42.422145" lon="2.213820">
        <ele>2813.09</ele>
        <time>2016-07-16T06:38:11Z</time>
      </trkpt>
      <trkpt lat="42.422080" lon="2.213726">
        <ele>2810.09</ele>
        <time>2016-07-16T06:38:25Z</time>
      </trkpt>
      <trkpt lat="42.421993" lon="2.213652">
        <ele>2809.07</ele>
        <time>2016-07-16T06:38:37Z</time>
      </trkpt>
      <trkpt lat="42.421923" lon="2.213549">
        <ele>2805.06</ele>
        <time>2016-07-16T06:38:55Z</time>
      </trkpt>
      <trkpt lat="42.421877" lon="2.213431">
        <ele>2801.03</ele>
        <time>2016-07-16T06:39:13Z</time>
      </trkpt>
      <trkpt lat="42.421809" lon="2.213345">
        <ele>2798.02</ele>
        <time>2016-07-16T06:39:24Z</time>
      </trkpt>
      <trkpt lat="42.421728" lon="2.213273">
        <ele>2798.08</ele>
        <time>2016-07-16T06:39:34Z</time>
      </trkpt>
      <trkpt lat="42.421652" lon="2.213184">
        <ele>2795.01</ele>
        <time>2016-07-16T06:39:49Z</time>
      </trkpt>
      <trkpt lat="42.421582" lon="2.213088">
        <ele>2793.02</ele>
        <time>2016-07-16T06:40:01Z</time>
      </trkpt>
      <trkpt lat="42.421495" lon="2.213052">
        <ele>2795.04</ele>
        <time>2016-07-16T06:40:15Z</time>
      </trkpt>
      <trkpt lat="42.421423" lon="2.212965">
        <ele>2795.08</ele>
        <time>2016-07-16T06:40:33Z</time>
      </trkpt>
      <trkpt lat="42.421350" lon="2.212880">
        <ele>2794.02</ele>
        <time>2016-07-16T06:40:51Z</time>
      </trkpt>
      <trkpt lat="42.421311" lon="2.212760">
        <ele>2792.07</ele>
        <time>2016-07-16T06:41:05Z</time>
      </trkpt>
      <trkpt lat="42.421285" lon="2.212629">
        <ele>2786.03</ele>
        <time>2016-07-16T06:41:25Z</time>
      </trkpt>
      <trkpt lat="42.421209" lon="2.212562">
        <ele>2785.02</ele>
        <time>2016-07-16T06:41:35Z</time>
      </trkpt>
      <trkpt lat="42.421116" lon="2.212533">
        <ele>2788.01</ele>
        <time>2016-07-16T06:41:48Z</time>
      </trkpt>
      <trkpt lat="42.421061" lon="2.212435">
        <ele>2789.06</ele>
        <time>2016-07-16T06:42:07Z</time>
      </trkpt>
      <trkpt lat="42.421055" lon="2.212306">
        <ele>2787.02</ele>
        <time>2016-07-16T06:42:18Z</time>
      </trkpt>
      <trkpt lat="42.420957" lon="2.212313">
        <ele>2788.08</ele>
        <time>2016-07-16T06:43:05Z</time>
      </trkpt>
      <trkpt lat="42.420862" lon="2.212292">
        <ele>2784.01</ele>
        <time>2016-07-16T06:43:30Z</time>
      </trkpt>
      <trkpt lat="42.420791" lon="2.212196">
        <ele>2782.01</ele>
        <time>2016-07-16T06:43:43Z</time>
      </trkpt>
      <trkpt lat="42.420775" lon="2.212072">
        <ele>2780.05</ele>
        <time>2016-07-16T06:43:56Z</time>
      </trkpt>
      <trkpt lat="42.420722" lon="2.211972">
        <ele>2777.03</ele>
        <time>2016-07-16T06:44:11Z</time>
      </trkpt>
      <trkpt lat="42.420691" lon="2.211835">
        <ele>2775.03</ele>
        <time>2016-07-16T06:44:24Z</time>
      </trkpt>
      <trkpt lat="42.420643" lon="2.211715">
        <ele>2773.09</ele>
        <time>2016-07-16T06:44:37Z</time>
      </trkpt>
      <trkpt lat="42.420643" lon="2.211579">
        <ele>2770.09</ele>
        <time>2016-07-16T06:44:49Z</time>
      </trkpt>
      <trkpt lat="42.420628" lon="2.211447">
        <ele>2769.03</ele>
        <time>2016-07-16T06:45:00Z</time>
      </trkpt>
      <trkpt lat="42.420596" lon="2.211330">
        <ele>2767.05</ele>
        <time>2016-07-16T06:45:13Z</time>
      </trkpt>
      <trkpt lat="42.420504" lon="2.211370">
        <ele>2762.06</ele>
        <time>2016-07-16T06:45:29Z</time>
      </trkpt>
      <trkpt lat="42.420448" lon="2.211269">
        <ele>2759.08</ele>
        <time>2016-07-16T06:45:42Z</time>
      </trkpt>
      <trkpt lat="42.420409" lon="2.211147">
        <ele>2756.05</ele>
        <time>2016-07-16T06:45:54Z</time>
      </trkpt>
      <trkpt lat="42.420327" lon="2.211086">
        <ele>2751.01</ele>
        <time>2016-07-16T06:46:10Z</time>
      </trkpt>
      <trkpt lat="42.420302" lon="2.210967">
        <ele>2750.01</ele>
        <time>2016-07-16T06:46:20Z</time>
      </trkpt>
      <trkpt lat="42.420257" lon="2.210858">
        <ele>2749.05</ele>
        <time>2016-07-16T06:46:39Z</time>
      </trkpt>
      <trkpt lat="42.420233" lon="2.210737">
        <ele>2748.04</ele>
        <time>2016-07-16T06:46:53Z</time>
      </trkpt>
      <trkpt lat="42.420162" lon="2.210657">
        <ele>2746.05</ele>
        <time>2016-07-16T06:47:11Z</time>
      </trkpt>
      <trkpt lat="42.420102" lon="2.210553">
        <ele>2740.05</ele>
        <time>2016-07-16T06:51:59Z</time>
      </trkpt>
      <trkpt lat="42.420016" lon="2.210601">
        <ele>2740.08</ele>
        <time>2016-07-16T06:52:15Z</time>
      </trkpt>
      <trkpt lat="42.420103" lon="2.210510">
        <ele>2740.06</ele>
        <time>2016-07-16T06:52:55Z</time>
      </trkpt>
      <trkpt lat="42.420057" lon="2.210397">
        <ele>2737.09</ele>
        <time>2016-07-16T06:53:10Z</time>
      </trkpt>
      <trkpt lat="42.420009" lon="2.210293">
        <ele>2734.07</ele>
        <time>2016-07-16T06:53:19Z</time>
      </trkpt>
      <trkpt lat="42.419976" lon="2.210170">
        <ele>2734.06</ele>
        <time>2016-07-16T06:53:27Z</time>
      </trkpt>
      <trkpt lat="42.419978" lon="2.210048">
        <ele>2734.08</ele>
        <time>2016-07-16T06:53:44Z</time>
      </trkpt>
      <trkpt lat="42.419946" lon="2.209918">
        <ele>2734.01</ele>
        <time>2016-07-16T06:53:51Z</time>
      </trkpt>
      <trkpt lat="42.419935" lon="2.209786">
        <ele>2734.02</ele>
        <time>2016-07-16T06:54:07Z</time>
      </trkpt>
      <trkpt lat="42.419916" lon="2.209657">
        <ele>2734.06</ele>
        <time>2016-07-16T06:54:16Z</time>
      </trkpt>
      <trkpt lat="42.419898" lon="2.209532">
        <ele>2734.09</ele>
        <time>2016-07-16T06:54:31Z</time>
      </trkpt>
      <trkpt lat="42.419860" lon="2.209415">
        <ele>2734.05</ele>
        <time>2016-07-16T06:54:39Z</time>
      </trkpt>
      <trkpt lat="42.419803" lon="2.209319">
        <ele>2744.06</ele>
        <time>2016-07-16T06:54:46Z</time>
      </trkpt>
      <trkpt lat="42.419750" lon="2.209207">
        <ele>2735.08</ele>
        <time>2016-07-16T06:54:52Z</time>
      </trkpt>
      <trkpt lat="42.419742" lon="2.209077">
        <ele>2742.06</ele>
        <time>2016-07-16T06:55:32Z</time>
      </trkpt>
      <trkpt lat="42.419751" lon="2.208944">
        <ele>2744.04</ele>
        <time>2016-07-16T06:55:40Z</time>
      </trkpt>
      <trkpt lat="42.419755" lon="2.208810">
        <ele>2754.04</ele>
        <time>2016-07-16T06:56:01Z</time>
      </trkpt>
      <trkpt lat="42.419769" lon="2.208673">
        <ele>2752.08</ele>
        <time>2016-07-16T06:56:14Z</time>
      </trkpt>
      <trkpt lat="42.419772" lon="2.208542">
        <ele>2759.02</ele>
        <time>2016-07-16T06:56:30Z</time>
      </trkpt>
      <trkpt lat="42.419739" lon="2.208420">
        <ele>2763.01</ele>
        <time>2016-07-16T06:56:46Z</time>
      </trkpt>
      <trkpt lat="42.419745" lon="2.208281">
        <ele>2766.02</ele>
        <time>2016-07-16T06:58:07Z</time>
      </trkpt>
      <trkpt lat="42.419732" lon="2.208145">
        <ele>2768.05</ele>
        <time>2016-07-16T06:58:15Z</time>
      </trkpt>
      <trkpt lat="42.419698" lon="2.208032">
        <ele>2772.09</ele>
        <time>2016-07-16T06:58:29Z</time>
      </trkpt>
      <trkpt lat="42.419701" lon="2.207905">
        <ele>2775.09</ele>
        <time>2016-07-16T06:58:38Z</time>
      </trkpt>
      <trkpt lat="42.419738" lon="2.207790">
        <ele>2778.02</ele>
        <time>2016-07-16T06:58:50Z</time>
      </trkpt>
      <trkpt lat="42.419676" lon="2.207660">
        <ele>2780.09</ele>
        <time>2016-07-16T06:58:59Z</time>
      </trkpt>
      <trkpt lat="42.419653" lon="2.207531">
        <ele>2781.04</ele>
        <time>2016-07-16T06:59:06Z</time>
      </trkpt>
      <trkpt lat="42.419648" lon="2.207401">
        <ele>2782.10</ele>
        <time>2016-07-16T06:59:12Z</time>
      </trkpt>
      <trkpt lat="42.419569" lon="2.207320">
        <ele>2784.05</ele>
        <time>2016-07-16T06:59:20Z</time>
      </trkpt>
      <trkpt lat="42.419480" lon="2.207226">
        <ele>2782.02</ele>
        <time>2016-07-16T06:59:32Z</time>
      </trkpt>
      <trkpt lat="42.419400" lon="2.207147">
        <ele>2783.05</ele>
        <time>2016-07-16T06:59:41Z</time>
      </trkpt>
      <trkpt lat="42.419305" lon="2.207130">
        <ele>2785.01</ele>
        <time>2016-07-16T06:59:49Z</time>
      </trkpt>
      <trkpt lat="42.419200" lon="2.207109">
        <ele>2787.03</ele>
        <time>2016-07-16T06:59:59Z</time>
      </trkpt>
      <trkpt lat="42.419130" lon="2.207017">
        <ele>2788.06</ele>
        <time>2016-07-16T07:00:08Z</time>
      </trkpt>
      <trkpt lat="42.419055" lon="2.206921">
        <ele>2790.08</ele>
        <time>2016-07-16T07:00:15Z</time>
      </trkpt>
      <trkpt lat="42.418965" lon="2.206887">
        <ele>2793.07</ele>
        <time>2016-07-16T07:00:21Z</time>
      </trkpt>
      <trkpt lat="42.418875" lon="2.206847">
        <ele>2808.06</ele>
        <time>2016-07-16T07:00:34Z</time>
      </trkpt>
      <trkpt lat="42.418781" lon="2.206806">
        <ele>2810.05</ele>
        <time>2016-07-16T07:00:40Z</time>
      </trkpt>
      <trkpt lat="42.418688" lon="2.206789">
        <ele>2810.07</ele>
        <time>2016-07-16T07:00:44Z</time>
      </trkpt>
      <trkpt lat="42.418581" lon="2.206786">
        <ele>2811.09</ele>
        <time>2016-07-16T07:00:48Z</time>
      </trkpt>
      <trkpt lat="42.418503" lon="2.206691">
        <ele>2811.05</ele>
        <time>2016-07-16T07:00:52Z</time>
      </trkpt>
      <trkpt lat="42.418411" lon="2.206654">
        <ele>2813.10</ele>
        <time>2016-07-16T07:00:56Z</time>
      </trkpt>
      <trkpt lat="42.418308" lon="2.206689">
        <ele>2815.07</ele>
        <time>2016-07-16T07:01:01Z</time>
      </trkpt>
      <trkpt lat="42.418216" lon="2.206674">
        <ele>2814.01</ele>
        <time>2016-07-16T07:01:05Z</time>
      </trkpt>
      <trkpt lat="42.418127" lon="2.206636">
        <ele>2812.01</ele>
        <time>2016-07-16T07:01:09Z</time>
      </trkpt>
      <trkpt lat="42.418029" lon="2.206614">
        <ele>2812.02</ele>
        <time>2016-07-16T07:01:13Z</time>
      </trkpt>
      <trkpt lat="42.417925" lon="2.206586">
        <ele>2815.04</ele>
        <time>2016-07-16T07:01:17Z</time>
      </trkpt>
      <trkpt lat="42.417831" lon="2.206571">
        <ele>2810.05</ele>
        <time>2016-07-16T07:01:21Z</time>
      </trkpt>
      <trkpt lat="42.417739" lon="2.206596">
        <ele>2813.06</ele>
        <time>2016-07-16T07:01:30Z</time>
      </trkpt>
      <trkpt lat="42.417665" lon="2.206509">
        <ele>2814.09</ele>
        <time>2016-07-16T07:01:56Z</time>
      </trkpt>
      <trkpt lat="42.417602" lon="2.206403">
        <ele>2815.04</ele>
        <time>2016-07-16T07:02:04Z</time>
      </trkpt>
      <trkpt lat="42.417555" lon="2.206290">
        <ele>2815.03</ele>
        <time>2016-07-16T07:02:11Z</time>
      </trkpt>
      <trkpt lat="42.417524" lon="2.206167">
        <ele>2814.07</ele>
        <time>2016-07-16T07:02:18Z</time>
      </trkpt>
      <trkpt lat="42.417458" lon="2.206074">
        <ele>2813.10</ele>
        <time>2016-07-16T07:02:25Z</time>
      </trkpt>
      <trkpt lat="42.417417" lon="2.205965">
        <ele>2812.07</ele>
        <time>2016-07-16T07:02:34Z</time>
      </trkpt>
      <trkpt lat="42.417378" lon="2.205849">
        <ele>2811.01</ele>
        <time>2016-07-16T07:02:43Z</time>
      </trkpt>
      <trkpt lat="42.417373" lon="2.205711">
        <ele>2810.02</ele>
        <time>2016-07-16T07:02:52Z</time>
      </trkpt>
      <trkpt lat="42.417358" lon="2.205587">
        <ele>2810.06</ele>
        <time>2016-07-16T07:02:59Z</time>
      </trkpt>
      <trkpt lat="42.417326" lon="2.205458">
        <ele>2809.05</ele>
        <time>2016-07-16T07:03:07Z</time>
      </trkpt>
      <trkpt lat="42.417310" lon="2.205326">
        <ele>2810.02</ele>
        <time>2016-07-16T07:03:16Z</time>
      </trkpt>
      <trkpt lat="42.417286" lon="2.205191">
        <ele>2808.02</ele>
        <time>2016-07-16T07:03:25Z</time>
      </trkpt>
      <trkpt lat="42.417294" lon="2.205058">
        <ele>2807.07</ele>
        <time>2016-07-16T07:03:35Z</time>
      </trkpt>
      <trkpt lat="42.417286" lon="2.204932">
        <ele>2806.03</ele>
        <time>2016-07-16T07:03:45Z</time>
      </trkpt>
      <trkpt lat="42.417267" lon="2.204802">
        <ele>2805.04</ele>
        <time>2016-07-16T07:03:54Z</time>
      </trkpt>
      <trkpt lat="42.417232" lon="2.204676">
        <ele>2803.09</ele>
        <time>2016-07-16T07:04:05Z</time>
      </trkpt>
      <trkpt lat="42.417188" lon="2.204562">
        <ele>2800.05</ele>
        <time>2016-07-16T07:04:19Z</time>
      </trkpt>
      <trkpt lat="42.417167" lon="2.204424">
        <ele>2799.03</ele>
        <time>2016-07-16T07:04:28Z</time>
      </trkpt>
      <trkpt lat="42.417127" lon="2.204304">
        <ele>2798.01</ele>
        <time>2016-07-16T07:04:35Z</time>
      </trkpt>
      <trkpt lat="42.417106" lon="2.204170">
        <ele>2797.02</ele>
        <time>2016-07-16T07:04:43Z</time>
      </trkpt>
      <trkpt lat="42.417088" lon="2.204047">
        <ele>2796.00</ele>
        <time>2016-07-16T07:04:51Z</time>
      </trkpt>
      <trkpt lat="42.417064" lon="2.203912">
        <ele>2794.06</ele>
        <time>2016-07-16T07:05:13Z</time>
      </trkpt>
      <trkpt lat="42.416994" lon="2.203830">
        <ele>2792.02</ele>
        <time>2016-07-16T07:05:22Z</time>
      </trkpt>
      <trkpt lat="42.416944" lon="2.203708">
        <ele>2792.01</ele>
        <time>2016-07-16T07:05:27Z</time>
      </trkpt>
      <trkpt lat="42.416897" lon="2.203578">
        <ele>2794.08</ele>
        <time>2016-07-16T07:05:33Z</time>
      </trkpt>
      <trkpt lat="42.416841" lon="2.203463">
        <ele>2794.02</ele>
        <time>2016-07-16T07:05:38Z</time>
      </trkpt>
      <trkpt lat="42.416819" lon="2.203321">
        <ele>2795.09</ele>
        <time>2016-07-16T07:05:42Z</time>
      </trkpt>
      <trkpt lat="42.416795" lon="2.203185">
        <ele>2796.05</ele>
        <time>2016-07-16T07:05:46Z</time>
      </trkpt>
      <trkpt lat="42.416733" lon="2.203060">
        <ele>2796.02</ele>
        <time>2016-07-16T07:05:50Z</time>
      </trkpt>
      <trkpt lat="42.416676" lon="2.202945">
        <ele>2797.06</ele>
        <time>2016-07-16T07:05:54Z</time>
      </trkpt>
      <trkpt lat="42.416610" lon="2.202811">
        <ele>2797.01</ele>
        <time>2016-07-16T07:05:58Z</time>
      </trkpt>
      <trkpt lat="42.416557" lon="2.202675">
        <ele>2797.02</ele>
        <time>2016-07-16T07:06:02Z</time>
      </trkpt>
      <trkpt lat="42.416509" lon="2.202555">
        <ele>2797.01</ele>
        <time>2016-07-16T07:06:07Z</time>
      </trkpt>
      <trkpt lat="42.416493" lon="2.202427">
        <ele>2798.06</ele>
        <time>2016-07-16T07:06:16Z</time>
      </trkpt>
      <trkpt lat="42.416479" lon="2.202297">
        <ele>2800.04</ele>
        <time>2016-07-16T07:06:25Z</time>
      </trkpt>
      <trkpt lat="42.416440" lon="2.202176">
        <ele>2801.02</ele>
        <time>2016-07-16T07:06:34Z</time>
      </trkpt>
      <trkpt lat="42.416455" lon="2.202052">
        <ele>2803.04</ele>
        <time>2016-07-16T07:10:08Z</time>
      </trkpt>
      <trkpt lat="42.416409" lon="2.201938">
        <ele>2804.02</ele>
        <time>2016-07-16T07:10:15Z</time>
      </trkpt>
      <trkpt lat="42.416349" lon="2.201837">
        <ele>2806.09</ele>
        <time>2016-07-16T07:10:22Z</time>
      </trkpt>
      <trkpt lat="42.416336" lon="2.201702">
        <ele>2809.02</ele>
        <time>2016-07-16T07:10:33Z</time>
      </trkpt>
      <trkpt lat="42.416424" lon="2.201644">
        <ele>2815.02</ele>
        <time>2016-07-16T07:11:02Z</time>
      </trkpt>
      <trkpt lat="42.416499" lon="2.201568">
        <ele>2813.09</ele>
        <time>2016-07-16T07:13:41Z</time>
      </trkpt>
      <trkpt lat="42.416408" lon="2.201600">
        <ele>2805.01</ele>
        <time>2016-07-16T07:14:23Z</time>
      </trkpt>
      <trkpt lat="42.416314" lon="2.201597">
        <ele>2803.03</ele>
        <time>2016-07-16T07:15:02Z</time>
      </trkpt>
      <trkpt lat="42.416226" lon="2.201548">
        <ele>2799.01</ele>
        <time>2016-07-16T07:15:15Z</time>
      </trkpt>
      <trkpt lat="42.416235" lon="2.201412">
        <ele>2798.09</ele>
        <time>2016-07-16T07:15:25Z</time>
      </trkpt>
      <trkpt lat="42.416230" lon="2.201284">
        <ele>2798.06</ele>
        <time>2016-07-16T07:15:35Z</time>
      </trkpt>
      <trkpt lat="42.416251" lon="2.201158">
        <ele>2798.09</ele>
        <time>2016-07-16T07:15:43Z</time>
      </trkpt>
      <trkpt lat="42.416291" lon="2.201040">
        <ele>2798.05</ele>
        <time>2016-07-16T07:15:51Z</time>
      </trkpt>
      <trkpt lat="42.416341" lon="2.200935">
        <ele>2798.05</ele>
        <time>2016-07-16T07:15:58Z</time>
      </trkpt>
      <trkpt lat="42.416391" lon="2.200812">
        <ele>2797.05</ele>
        <time>2016-07-16T07:16:08Z</time>
      </trkpt>
      <trkpt lat="42.416430" lon="2.200691">
        <ele>2797.02</ele>
        <time>2016-07-16T07:16:19Z</time>
      </trkpt>
      <trkpt lat="42.416474" lon="2.200571">
        <ele>2798.07</ele>
        <time>2016-07-16T07:16:28Z</time>
      </trkpt>
      <trkpt lat="42.416480" lon="2.200443">
        <ele>2797.05</ele>
        <time>2016-07-16T07:16:36Z</time>
      </trkpt>
      <trkpt lat="42.416499" lon="2.200319">
        <ele>2798.01</ele>
        <time>2016-07-16T07:16:44Z</time>
      </trkpt>
      <trkpt lat="42.416514" lon="2.200187">
        <ele>2799.03</ele>
        <time>2016-07-16T07:16:53Z</time>
      </trkpt>
      <trkpt lat="42.416513" lon="2.200064">
        <ele>2798.04</ele>
        <time>2016-07-16T07:17:00Z</time>
      </trkpt>
      <trkpt lat="42.416494" lon="2.199940">
        <ele>2797.07</ele>
        <time>2016-07-16T07:17:07Z</time>
      </trkpt>
      <trkpt lat="42.416478" lon="2.199804">
        <ele>2797.09</ele>
        <time>2016-07-16T07:17:14Z</time>
      </trkpt>
      <trkpt lat="42.416485" lon="2.199678">
        <ele>2798.01</ele>
        <time>2016-07-16T07:17:26Z</time>
      </trkpt>
      <trkpt lat="42.416512" lon="2.199553">
        <ele>2793.07</ele>
        <time>2016-07-16T07:17:42Z</time>
      </trkpt>
      <trkpt lat="42.416556" lon="2.199444">
        <ele>2788.09</ele>
        <time>2016-07-16T07:17:59Z</time>
      </trkpt>
      <trkpt lat="42.416594" lon="2.199330">
        <ele>2784.05</ele>
        <time>2016-07-16T07:18:17Z</time>
      </trkpt>
      <trkpt lat="42.416662" lon="2.199230">
        <ele>2782.05</ele>
        <time>2016-07-16T07:18:33Z</time>
      </trkpt>
      <trkpt lat="42.416727" lon="2.199138">
        <ele>2778.10</ele>
        <time>2016-07-16T07:18:49Z</time>
      </trkpt>
      <trkpt lat="42.416798" lon="2.199055">
        <ele>2776.07</ele>
        <time>2016-07-16T07:19:05Z</time>
      </trkpt>
      <trkpt lat="42.416867" lon="2.198975">
        <ele>2775.01</ele>
        <time>2016-07-16T07:19:22Z</time>
      </trkpt>
      <trkpt lat="42.416887" lon="2.198844">
        <ele>2771.02</ele>
        <time>2016-07-16T07:19:34Z</time>
      </trkpt>
      <trkpt lat="42.416932" lon="2.198730">
        <ele>2767.05</ele>
        <time>2016-07-16T07:19:48Z</time>
      </trkpt>
      <trkpt lat="42.416981" lon="2.198625">
        <ele>2765.06</ele>
        <time>2016-07-16T07:20:02Z</time>
      </trkpt>
      <trkpt lat="42.417030" lon="2.198514">
        <ele>2761.08</ele>
        <time>2016-07-16T07:20:14Z</time>
      </trkpt>
      <trkpt lat="42.417080" lon="2.198390">
        <ele>2759.04</ele>
        <time>2016-07-16T07:20:28Z</time>
      </trkpt>
      <trkpt lat="42.417147" lon="2.198286">
        <ele>2760.08</ele>
        <time>2016-07-16T07:21:11Z</time>
      </trkpt>
      <trkpt lat="42.417221" lon="2.198213">
        <ele>2759.03</ele>
        <time>2016-07-16T07:21:25Z</time>
      </trkpt>
      <trkpt lat="42.417298" lon="2.198150">
        <ele>2756.02</ele>
        <time>2016-07-16T07:21:37Z</time>
      </trkpt>
      <trkpt lat="42.417327" lon="2.198033">
        <ele>2749.02</ele>
        <time>2016-07-16T07:21:50Z</time>
      </trkpt>
      <trkpt lat="42.417362" lon="2.197907">
        <ele>2753.05</ele>
        <time>2016-07-16T07:22:04Z</time>
      </trkpt>
      <trkpt lat="42.417436" lon="2.197838">
        <ele>2756.07</ele>
        <time>2016-07-16T07:22:15Z</time>
      </trkpt>
      <trkpt lat="42.417475" lon="2.197715">
        <ele>2747.01</ele>
        <time>2016-07-16T07:22:31Z</time>
      </trkpt>
      <trkpt lat="42.417518" lon="2.197590">
        <ele>2749.01</ele>
        <time>2016-07-16T07:22:45Z</time>
      </trkpt>
      <trkpt lat="42.417536" lon="2.197467">
        <ele>2750.08</ele>
        <time>2016-07-16T07:22:57Z</time>
      </trkpt>
      <trkpt lat="42.417578" lon="2.197345">
        <ele>2745.02</ele>
        <time>2016-07-16T07:23:10Z</time>
      </trkpt>
      <trkpt lat="42.417612" lon="2.197231">
        <ele>2743.09</ele>
        <time>2016-07-16T07:23:20Z</time>
      </trkpt>
      <trkpt lat="42.417625" lon="2.197106">
        <ele>2736.10</ele>
        <time>2016-07-16T07:23:28Z</time>
      </trkpt>
      <trkpt lat="42.417643" lon="2.196973">
        <ele>2738.07</ele>
        <time>2016-07-16T07:23:38Z</time>
      </trkpt>
      <trkpt lat="42.417679" lon="2.196856">
        <ele>2737.05</ele>
        <time>2016-07-16T07:23:48Z</time>
      </trkpt>
      <trkpt lat="42.417711" lon="2.196738">
        <ele>2736.01</ele>
        <time>2016-07-16T07:24:09Z</time>
      </trkpt>
      <trkpt lat="42.417759" lon="2.196618">
        <ele>2735.04</ele>
        <time>2016-07-16T07:24:23Z</time>
      </trkpt>
      <trkpt lat="42.417800" lon="2.196497">
        <ele>2735.10</ele>
        <time>2016-07-16T07:24:33Z</time>
      </trkpt>
      <trkpt lat="42.417841" lon="2.196371">
        <ele>2733.09</ele>
        <time>2016-07-16T07:24:44Z</time>
      </trkpt>
      <trkpt lat="42.417866" lon="2.196252">
        <ele>2732.01</ele>
        <time>2016-07-16T07:24:55Z</time>
      </trkpt>
      <trkpt lat="42.417928" lon="2.196150">
        <ele>2732.01</ele>
        <time>2016-07-16T07:25:09Z</time>
      </trkpt>
      <trkpt lat="42.417968" lon="2.196016">
        <ele>2730.06</ele>
        <time>2016-07-16T07:25:22Z</time>
      </trkpt>
      <trkpt lat="42.418003" lon="2.195901">
        <ele>2734.04</ele>
        <time>2016-07-16T07:25:34Z</time>
      </trkpt>
      <trkpt lat="42.418073" lon="2.195803">
        <ele>2738.05</ele>
        <time>2016-07-16T07:25:46Z</time>
      </trkpt>
      <trkpt lat="42.418109" lon="2.195690">
        <ele>2734.04</ele>
        <time>2016-07-16T07:25:55Z</time>
      </trkpt>
      <trkpt lat="42.418148" lon="2.195568">
        <ele>2736.01</ele>
        <time>2016-07-16T07:26:04Z</time>
      </trkpt>
      <trkpt lat="42.418182" lon="2.195442">
        <ele>2733.03</ele>
        <time>2016-07-16T07:26:13Z</time>
      </trkpt>
      <trkpt lat="42.418230" lon="2.195323">
        <ele>2732.02</ele>
        <time>2016-07-16T07:26:24Z</time>
      </trkpt>
      <trkpt lat="42.418238" lon="2.195198">
        <ele>2737.07</ele>
        <time>2016-07-16T07:26:36Z</time>
      </trkpt>
      <trkpt lat="42.418250" lon="2.195062">
        <ele>2739.08</ele>
        <time>2016-07-16T07:26:44Z</time>
      </trkpt>
      <trkpt lat="42.418282" lon="2.194920">
        <ele>2740.09</ele>
        <time>2016-07-16T07:26:48Z</time>
      </trkpt>
      <trkpt lat="42.418326" lon="2.194794">
        <ele>2743.01</ele>
        <time>2016-07-16T07:26:52Z</time>
      </trkpt>
      <trkpt lat="42.418386" lon="2.194694">
        <ele>2742.01</ele>
        <time>2016-07-16T07:26:56Z</time>
      </trkpt>
      <trkpt lat="42.418424" lon="2.194582">
        <ele>2743.00</ele>
        <time>2016-07-16T07:27:00Z</time>
      </trkpt>
      <trkpt lat="42.418458" lon="2.194461">
        <ele>2745.05</ele>
        <time>2016-07-16T07:27:04Z</time>
      </trkpt>
      <trkpt lat="42.418478" lon="2.194314">
        <ele>2747.07</ele>
        <time>2016-07-16T07:27:09Z</time>
      </trkpt>
      <trkpt lat="42.418496" lon="2.194188">
        <ele>2749.01</ele>
        <time>2016-07-16T07:27:13Z</time>
      </trkpt>
      <trkpt lat="42.418492" lon="2.194050">
        <ele>2749.06</ele>
        <time>2016-07-16T07:27:17Z</time>
      </trkpt>
      <trkpt lat="42.418486" lon="2.193907">
        <ele>2751.09</ele>
        <time>2016-07-16T07:27:22Z</time>
      </trkpt>
      <trkpt lat="42.418474" lon="2.193772">
        <ele>2747.06</ele>
        <time>2016-07-16T07:27:26Z</time>
      </trkpt>
      <trkpt lat="42.418452" lon="2.193642">
        <ele>2754.03</ele>
        <time>2016-07-16T07:27:30Z</time>
      </trkpt>
      <trkpt lat="42.418445" lon="2.193511">
        <ele>2754.01</ele>
        <time>2016-07-16T07:27:34Z</time>
      </trkpt>
      <trkpt lat="42.418423" lon="2.193378">
        <ele>2754.06</ele>
        <time>2016-07-16T07:27:38Z</time>
      </trkpt>
      <trkpt lat="42.418418" lon="2.193238">
        <ele>2757.01</ele>
        <time>2016-07-16T07:27:42Z</time>
      </trkpt>
      <trkpt lat="42.418423" lon="2.193108">
        <ele>2759.02</ele>
        <time>2016-07-16T07:27:46Z</time>
      </trkpt>
      <trkpt lat="42.418426" lon="2.192977">
        <ele>2759.06</ele>
        <time>2016-07-16T07:27:50Z</time>
      </trkpt>
      <trkpt lat="42.418395" lon="2.192843">
        <ele>2764.09</ele>
        <time>2016-07-16T07:27:56Z</time>
      </trkpt>
      <trkpt lat="42.418385" lon="2.192720">
        <ele>2767.06</ele>
        <time>2016-07-16T07:28:04Z</time>
      </trkpt>
      <trkpt lat="42.418377" lon="2.192577">
        <ele>2766.03</ele>
        <time>2016-07-16T07:28:17Z</time>
      </trkpt>
      <trkpt lat="42.418368" lon="2.192452">
        <ele>2771.07</ele>
        <time>2016-07-16T07:28:26Z</time>
      </trkpt>
      <trkpt lat="42.418349" lon="2.192320">
        <ele>2772.07</ele>
        <time>2016-07-16T07:28:35Z</time>
      </trkpt>
      <trkpt lat="42.418348" lon="2.192190">
        <ele>2775.02</ele>
        <time>2016-07-16T07:28:44Z</time>
      </trkpt>
      <trkpt lat="42.418327" lon="2.192062">
        <ele>2776.06</ele>
        <time>2016-07-16T07:28:55Z</time>
      </trkpt>
      <trkpt lat="42.418289" lon="2.191942">
        <ele>2778.09</ele>
        <time>2016-07-16T07:29:03Z</time>
      </trkpt>
      <trkpt lat="42.418268" lon="2.191812">
        <ele>2781.04</ele>
        <time>2016-07-16T07:29:12Z</time>
      </trkpt>
      <trkpt lat="42.418260" lon="2.191685">
        <ele>2784.01</ele>
        <time>2016-07-16T07:29:19Z</time>
      </trkpt>
      <trkpt lat="42.418273" lon="2.191545">
        <ele>2783.01</ele>
        <time>2016-07-16T07:29:28Z</time>
      </trkpt>
      <trkpt lat="42.418233" lon="2.191427">
        <ele>2786.09</ele>
        <time>2016-07-16T07:29:35Z</time>
      </trkpt>
      <trkpt lat="42.418286" lon="2.191321">
        <ele>2789.02</ele>
        <time>2016-07-16T07:29:41Z</time>
      </trkpt>
      <trkpt lat="42.418338" lon="2.191222">
        <ele>2791.05</ele>
        <time>2016-07-16T07:29:46Z</time>
      </trkpt>
      <trkpt lat="42.418391" lon="2.191089">
        <ele>2793.05</ele>
        <time>2016-07-16T07:29:51Z</time>
      </trkpt>
      <trkpt lat="42.418480" lon="2.190999">
        <ele>2797.01</ele>
        <time>2016-07-16T07:29:57Z</time>
      </trkpt>
      <trkpt lat="42.418541" lon="2.190887">
        <ele>2799.07</ele>
        <time>2016-07-16T07:31:02Z</time>
      </trkpt>
      <trkpt lat="42.418440" lon="2.190852">
        <ele>2795.04</ele>
        <time>2016-07-16T07:31:18Z</time>
      </trkpt>
      <trkpt lat="42.418343" lon="2.190847">
        <ele>2795.03</ele>
        <time>2016-07-16T07:31:23Z</time>
      </trkpt>
      <trkpt lat="42.418236" lon="2.190842">
        <ele>2793.09</ele>
        <time>2016-07-16T07:31:27Z</time>
      </trkpt>
      <trkpt lat="42.418128" lon="2.190850">
        <ele>2795.09</ele>
        <time>2016-07-16T07:31:31Z</time>
      </trkpt>
      <trkpt lat="42.418034" lon="2.190842">
        <ele>2795.01</ele>
        <time>2016-07-16T07:31:35Z</time>
      </trkpt>
      <trkpt lat="42.417944" lon="2.190859">
        <ele>2796.01</ele>
        <time>2016-07-16T07:31:39Z</time>
      </trkpt>
      <trkpt lat="42.417840" lon="2.190860">
        <ele>2798.00</ele>
        <time>2016-07-16T07:31:44Z</time>
      </trkpt>
      <trkpt lat="42.417747" lon="2.190834">
        <ele>2805.05</ele>
        <time>2016-07-16T07:31:49Z</time>
      </trkpt>
      <trkpt lat="42.417661" lon="2.190788">
        <ele>2807.02</ele>
        <time>2016-07-16T07:31:56Z</time>
      </trkpt>
      <trkpt lat="42.417572" lon="2.190728">
        <ele>2808.02</ele>
        <time>2016-07-16T07:32:04Z</time>
      </trkpt>
      <trkpt lat="42.417493" lon="2.190649">
        <ele>2806.05</ele>
        <time>2016-07-16T07:32:19Z</time>
      </trkpt>
      <trkpt lat="42.417409" lon="2.190577">
        <ele>2808.10</ele>
        <time>2016-07-16T07:33:03Z</time>
      </trkpt>
      <trkpt lat="42.417356" lon="2.190476">
        <ele>2808.05</ele>
        <time>2016-07-16T07:33:11Z</time>
      </trkpt>
      <trkpt lat="42.417351" lon="2.190344">
        <ele>2806.05</ele>
        <time>2016-07-16T07:33:20Z</time>
      </trkpt>
      <trkpt lat="42.417332" lon="2.190222">
        <ele>2803.09</ele>
        <time>2016-07-16T07:33:29Z</time>
      </trkpt>
      <trkpt lat="42.417357" lon="2.190097">
        <ele>2802.09</ele>
        <time>2016-07-16T07:33:38Z</time>
      </trkpt>
      <trkpt lat="42.417367" lon="2.189966">
        <ele>2802.01</ele>
        <time>2016-07-16T07:33:47Z</time>
      </trkpt>
      <trkpt lat="42.417393" lon="2.189843">
        <ele>2800.02</ele>
        <time>2016-07-16T07:33:55Z</time>
      </trkpt>
      <trkpt lat="42.417425" lon="2.189715">
        <ele>2797.08</ele>
        <time>2016-07-16T07:34:13Z</time>
      </trkpt>
      <trkpt lat="42.417430" lon="2.189589">
        <ele>2788.07</ele>
        <time>2016-07-16T07:40:50Z</time>
      </trkpt>
      <trkpt lat="42.417419" lon="2.189460">
        <ele>2792.08</ele>
        <time>2016-07-16T07:41:46Z</time>
      </trkpt>
      <trkpt lat="42.417476" lon="2.189349">
        <ele>2794.09</ele>
        <time>2016-07-16T07:41:54Z</time>
      </trkpt>
      <trkpt lat="42.417497" lon="2.189230">
        <ele>2792.09</ele>
        <time>2016-07-16T07:42:03Z</time>
      </trkpt>
      <trkpt lat="42.417497" lon="2.189102">
        <ele>2792.03</ele>
        <time>2016-07-16T07:42:15Z</time>
      </trkpt>
      <trkpt lat="42.417487" lon="2.188975">
        <ele>2790.05</ele>
        <time>2016-07-16T07:42:25Z</time>
      </trkpt>
      <trkpt lat="42.417496" lon="2.188846">
        <ele>2788.05</ele>
        <time>2016-07-16T07:42:38Z</time>
      </trkpt>
      <trkpt lat="42.417523" lon="2.188715">
        <ele>2787.08</ele>
        <time>2016-07-16T07:42:51Z</time>
      </trkpt>
      <trkpt lat="42.417545" lon="2.188595">
        <ele>2785.10</ele>
        <time>2016-07-16T07:43:04Z</time>
      </trkpt>
      <trkpt lat="42.417553" lon="2.188470">
        <ele>2783.01</ele>
        <time>2016-07-16T07:43:17Z</time>
      </trkpt>
      <trkpt lat="42.417607" lon="2.188359">
        <ele>2781.01</ele>
        <time>2016-07-16T07:43:33Z</time>
      </trkpt>
      <trkpt lat="42.417675" lon="2.188277">
        <ele>2779.01</ele>
        <time>2016-07-16T07:43:43Z</time>
      </trkpt>
      <trkpt lat="42.417701" lon="2.188159">
        <ele>2777.07</ele>
        <time>2016-07-16T07:43:55Z</time>
      </trkpt>
      <trkpt lat="42.417700" lon="2.188019">
        <ele>2775.07</ele>
        <time>2016-07-16T07:44:08Z</time>
      </trkpt>
      <trkpt lat="42.417729" lon="2.187896">
        <ele>2774.03</ele>
        <time>2016-07-16T07:44:16Z</time>
      </trkpt>
      <trkpt lat="42.417734" lon="2.187773">
        <ele>2775.02</ele>
        <time>2016-07-16T07:44:24Z</time>
      </trkpt>
      <trkpt lat="42.417729" lon="2.187631">
        <ele>2777.09</ele>
        <time>2016-07-16T07:44:30Z</time>
      </trkpt>
      <trkpt lat="42.417746" lon="2.187505">
        <ele>2780.09</ele>
        <time>2016-07-16T07:44:34Z</time>
      </trkpt>
      <trkpt lat="42.417763" lon="2.187369">
        <ele>2781.03</ele>
        <time>2016-07-16T07:44:39Z</time>
      </trkpt>
      <trkpt lat="42.417753" lon="2.187240">
        <ele>2779.06</ele>
        <time>2016-07-16T07:44:43Z</time>
      </trkpt>
      <trkpt lat="42.417785" lon="2.187096">
        <ele>2781.08</ele>
        <time>2016-07-16T07:44:48Z</time>
      </trkpt>
      <trkpt lat="42.417814" lon="2.186979">
        <ele>2778.01</ele>
        <time>2016-07-16T07:44:52Z</time>
      </trkpt>
      <trkpt lat="42.417836" lon="2.186835">
        <ele>2781.03</ele>
        <time>2016-07-16T07:44:57Z</time>
      </trkpt>
      <trkpt lat="42.417865" lon="2.186709">
        <ele>2780.02</ele>
        <time>2016-07-16T07:45:01Z</time>
      </trkpt>
      <trkpt lat="42.417931" lon="2.186607">
        <ele>2781.10</ele>
        <time>2016-07-16T07:45:06Z</time>
      </trkpt>
      <trkpt lat="42.417934" lon="2.186477">
        <ele>2783.08</ele>
        <time>2016-07-16T07:45:12Z</time>
      </trkpt>
      <trkpt lat="42.417913" lon="2.186352">
        <ele>2786.10</ele>
        <time>2016-07-16T07:45:18Z</time>
      </trkpt>
      <trkpt lat="42.417942" lon="2.186222">
        <ele>2783.07</ele>
        <time>2016-07-16T07:45:26Z</time>
      </trkpt>
      <trkpt lat="42.417999" lon="2.186121">
        <ele>2782.01</ele>
        <time>2016-07-16T07:45:33Z</time>
      </trkpt>
      <trkpt lat="42.418062" lon="2.186020">
        <ele>2781.04</ele>
        <time>2016-07-16T07:45:40Z</time>
      </trkpt>
      <trkpt lat="42.418108" lon="2.185905">
        <ele>2785.07</ele>
        <time>2016-07-16T07:45:48Z</time>
      </trkpt>
      <trkpt lat="42.418162" lon="2.185802">
        <ele>2785.08</ele>
        <time>2016-07-16T07:45:55Z</time>
      </trkpt>
      <trkpt lat="42.418213" lon="2.185689">
        <ele>2785.06</ele>
        <time>2016-07-16T07:46:03Z</time>
      </trkpt>
      <trkpt lat="42.418258" lon="2.185577">
        <ele>2783.01</ele>
        <time>2016-07-16T07:46:11Z</time>
      </trkpt>
      <trkpt lat="42.418324" lon="2.185484">
        <ele>2781.02</ele>
        <time>2016-07-16T07:46:20Z</time>
      </trkpt>
      <trkpt lat="42.418384" lon="2.185390">
        <ele>2781.00</ele>
        <time>2016-07-16T07:46:25Z</time>
      </trkpt>
      <trkpt lat="42.418446" lon="2.185286">
        <ele>2781.04</ele>
        <time>2016-07-16T07:46:29Z</time>
      </trkpt>
      <trkpt lat="42.418519" lon="2.185186">
        <ele>2782.05</ele>
        <time>2016-07-16T07:46:33Z</time>
      </trkpt>
      <trkpt lat="42.418592" lon="2.185089">
        <ele>2781.02</ele>
        <time>2016-07-16T07:46:37Z</time>
      </trkpt>
      <trkpt lat="42.418690" lon="2.185010">
        <ele>2783.05</ele>
        <time>2016-07-16T07:46:42Z</time>
      </trkpt>
      <trkpt lat="42.418755" lon="2.184916">
        <ele>2782.09</ele>
        <time>2016-07-16T07:46:46Z</time>
      </trkpt>
      <trkpt lat="42.418824" lon="2.184795">
        <ele>2784.01</ele>
        <time>2016-07-16T07:46:50Z</time>
      </trkpt>
      <trkpt lat="42.418908" lon="2.184712">
        <ele>2785.09</ele>
        <time>2016-07-16T07:46:54Z</time>
      </trkpt>
      <trkpt lat="42.418971" lon="2.184582">
        <ele>2785.05</ele>
        <time>2016-07-16T07:46:59Z</time>
      </trkpt>
      <trkpt lat="42.419042" lon="2.184482">
        <ele>2787.09</ele>
        <time>2016-07-16T07:47:03Z</time>
      </trkpt>
      <trkpt lat="42.419125" lon="2.184420">
        <ele>2789.01</ele>
        <time>2016-07-16T07:47:07Z</time>
      </trkpt>
      <trkpt lat="42.419215" lon="2.184397">
        <ele>2791.01</ele>
        <time>2016-07-16T07:47:11Z</time>
      </trkpt>
      <trkpt lat="42.419298" lon="2.184337">
        <ele>2793.02</ele>
        <time>2016-07-16T07:47:15Z</time>
      </trkpt>
      <trkpt lat="42.419378" lon="2.184254">
        <ele>2796.04</ele>
        <time>2016-07-16T07:47:20Z</time>
      </trkpt>
      <trkpt lat="42.419424" lon="2.184138">
        <ele>2797.03</ele>
        <time>2016-07-16T07:47:53Z</time>
      </trkpt>
      <trkpt lat="42.419351" lon="2.184042">
        <ele>2797.04</ele>
        <time>2016-07-16T07:48:05Z</time>
      </trkpt>
      <trkpt lat="42.419276" lon="2.183951">
        <ele>2797.09</ele>
        <time>2016-07-16T07:48:13Z</time>
      </trkpt>
      <trkpt lat="42.419253" lon="2.183822">
        <ele>2801.05</ele>
        <time>2016-07-16T07:48:22Z</time>
      </trkpt>
      <trkpt lat="42.419202" lon="2.183708">
        <ele>2798.06</ele>
        <time>2016-07-16T07:48:31Z</time>
      </trkpt>
      <trkpt lat="42.419152" lon="2.183605">
        <ele>2796.04</ele>
        <time>2016-07-16T07:48:39Z</time>
      </trkpt>
      <trkpt lat="42.419114" lon="2.183486">
        <ele>2800.08</ele>
        <time>2016-07-16T07:48:47Z</time>
      </trkpt>
      <trkpt lat="42.419070" lon="2.183378">
        <ele>2794.07</ele>
        <time>2016-07-16T07:48:55Z</time>
      </trkpt>
      <trkpt lat="42.418998" lon="2.183301">
        <ele>2797.01</ele>
        <time>2016-07-16T07:49:04Z</time>
      </trkpt>
      <trkpt lat="42.418952" lon="2.183194">
        <ele>2795.01</ele>
        <time>2016-07-16T07:49:14Z</time>
      </trkpt>
      <trkpt lat="42.418885" lon="2.183087">
        <ele>2793.08</ele>
        <time>2016-07-16T07:49:24Z</time>
      </trkpt>
      <trkpt lat="42.418817" lon="2.182992">
        <ele>2790.04</ele>
        <time>2016-07-16T07:49:33Z</time>
      </trkpt>
      <trkpt lat="42.418744" lon="2.182907">
        <ele>2785.03</ele>
        <time>2016-07-16T07:49:41Z</time>
      </trkpt>
      <trkpt lat="42.418697" lon="2.182788">
        <ele>2793.01</ele>
        <time>2016-07-16T07:49:46Z</time>
      </trkpt>
      <trkpt lat="42.418653" lon="2.182644">
        <ele>2788.05</ele>
        <time>2016-07-16T07:49:50Z</time>
      </trkpt>
      <trkpt lat="42.418598" lon="2.182502">
        <ele>2790.05</ele>
        <time>2016-07-16T07:49:54Z</time>
      </trkpt>
      <trkpt lat="42.418531" lon="2.182378">
        <ele>2792.02</ele>
        <time>2016-07-16T07:49:58Z</time>
      </trkpt>
      <trkpt lat="42.418485" lon="2.182256">
        <ele>2791.02</ele>
        <time>2016-07-16T07:50:02Z</time>
      </trkpt>
      <trkpt lat="42.418439" lon="2.182125">
        <ele>2791.07</ele>
        <time>2016-07-16T07:50:06Z</time>
      </trkpt>
      <trkpt lat="42.418398" lon="2.182000">
        <ele>2789.08</ele>
        <time>2016-07-16T07:50:10Z</time>
      </trkpt>
      <trkpt lat="42.418387" lon="2.181864">
        <ele>2792.01</ele>
        <time>2016-07-16T07:50:14Z</time>
      </trkpt>
      <trkpt lat="42.418454" lon="2.181773">
        <ele>2798.02</ele>
        <time>2016-07-16T07:50:20Z</time>
      </trkpt>
      <trkpt lat="42.418446" lon="2.181638">
        <ele>2796.08</ele>
        <time>2016-07-16T07:50:32Z</time>
      </trkpt>
      <trkpt lat="42.418401" lon="2.181531">
        <ele>2786.09</ele>
        <time>2016-07-16T07:51:45Z</time>
      </trkpt>
      <trkpt lat="42.418364" lon="2.181419">
        <ele>2783.03</ele>
        <time>2016-07-16T07:51:55Z</time>
      </trkpt>
      <trkpt lat="42.418334" lon="2.181302">
        <ele>2780.09</ele>
        <time>2016-07-16T07:52:03Z</time>
      </trkpt>
      <trkpt lat="42.418315" lon="2.181180">
        <ele>2788.08</ele>
        <time>2016-07-16T07:52:10Z</time>
      </trkpt>
      <trkpt lat="42.418292" lon="2.181048">
        <ele>2789.01</ele>
        <time>2016-07-16T07:52:19Z</time>
      </trkpt>
      <trkpt lat="42.418272" lon="2.180920">
        <ele>2787.05</ele>
        <time>2016-07-16T07:52:26Z</time>
      </trkpt>
      <trkpt lat="42.418247" lon="2.180798">
        <ele>2792.07</ele>
        <time>2016-07-16T07:52:33Z</time>
      </trkpt>
      <trkpt lat="42.418241" lon="2.180670">
        <ele>2792.10</ele>
        <time>2016-07-16T07:52:40Z</time>
      </trkpt>
      <trkpt lat="42.418244" lon="2.180530">
        <ele>2795.05</ele>
        <time>2016-07-16T07:52:47Z</time>
      </trkpt>
      <trkpt lat="42.418259" lon="2.180399">
        <ele>2792.01</ele>
        <time>2016-07-16T07:52:55Z</time>
      </trkpt>
      <trkpt lat="42.418285" lon="2.180269">
        <ele>2793.01</ele>
        <time>2016-07-16T07:53:04Z</time>
      </trkpt>
      <trkpt lat="42.418312" lon="2.180153">
        <ele>2796.06</ele>
        <time>2016-07-16T07:53:12Z</time>
      </trkpt>
      <trkpt lat="42.418356" lon="2.180042">
        <ele>2793.03</ele>
        <time>2016-07-16T07:53:22Z</time>
      </trkpt>
      <trkpt lat="42.418405" lon="2.179924">
        <ele>2793.05</ele>
        <time>2016-07-16T07:53:32Z</time>
      </trkpt>
      <trkpt lat="42.418465" lon="2.179824">
        <ele>2793.07</ele>
        <time>2016-07-16T07:53:44Z</time>
      </trkpt>
      <trkpt lat="42.418508" lon="2.179708">
        <ele>2786.09</ele>
        <time>2016-07-16T07:54:01Z</time>
      </trkpt>
      <trkpt lat="42.418588" lon="2.179648">
        <ele>2783.06</ele>
        <time>2016-07-16T07:54:15Z</time>
      </trkpt>
      <trkpt lat="42.418679" lon="2.179595">
        <ele>2786.02</ele>
        <time>2016-07-16T07:54:31Z</time>
      </trkpt>
      <trkpt lat="42.418768" lon="2.179556">
        <ele>2782.04</ele>
        <time>2016-07-16T07:54:48Z</time>
      </trkpt>
      <trkpt lat="42.418813" lon="2.179448">
        <ele>2775.03</ele>
        <time>2016-07-16T07:55:10Z</time>
      </trkpt>
      <trkpt lat="42.418855" lon="2.179334">
        <ele>2766.06</ele>
        <time>2016-07-16T07:55:44Z</time>
      </trkpt>
      <trkpt lat="42.418838" lon="2.179214">
        <ele>2759.01</ele>
        <time>2016-07-16T07:56:06Z</time>
      </trkpt>
      <trkpt lat="42.418919" lon="2.179161">
        <ele>2758.01</ele>
        <time>2016-07-16T07:56:35Z</time>
      </trkpt>
      <trkpt lat="42.419014" lon="2.179125">
        <ele>2757.06</ele>
        <time>2016-07-16T07:56:50Z</time>
      </trkpt>
      <trkpt lat="42.419092" lon="2.179051">
        <ele>2749.02</ele>
        <time>2016-07-16T07:57:04Z</time>
      </trkpt>
      <trkpt lat="42.419184" lon="2.179011">
        <ele>2744.06</ele>
        <time>2016-07-16T07:57:21Z</time>
      </trkpt>
      <trkpt lat="42.419281" lon="2.179013">
        <ele>2740.09</ele>
        <time>2016-07-16T07:57:54Z</time>
      </trkpt>
      <trkpt lat="42.419346" lon="2.178911">
        <ele>2735.08</ele>
        <time>2016-07-16T07:58:49Z</time>
      </trkpt>
      <trkpt lat="42.419408" lon="2.178807">
        <ele>2729.02</ele>
        <time>2016-07-16T07:59:13Z</time>
      </trkpt>
      <trkpt lat="42.419497" lon="2.178745">
        <ele>2725.09</ele>
        <time>2016-07-16T07:59:29Z</time>
      </trkpt>
      <trkpt lat="42.419581" lon="2.178696">
        <ele>2722.05</ele>
        <time>2016-07-16T08:00:11Z</time>
      </trkpt>
      <trkpt lat="42.419637" lon="2.178584">
        <ele>2715.07</ele>
        <time>2016-07-16T08:00:34Z</time>
      </trkpt>
      <trkpt lat="42.419724" lon="2.178520">
        <ele>2714.02</ele>
        <time>2016-07-16T08:00:51Z</time>
      </trkpt>
      <trkpt lat="42.419804" lon="2.178449">
        <ele>2711.01</ele>
        <time>2016-07-16T08:01:05Z</time>
      </trkpt>
      <trkpt lat="42.419884" lon="2.178374">
        <ele>2715.02</ele>
        <time>2016-07-16T08:01:21Z</time>
      </trkpt>
      <trkpt lat="42.419883" lon="2.178248">
        <ele>2707.00</ele>
        <time>2016-07-16T08:01:44Z</time>
      </trkpt>
      <trkpt lat="42.419864" lon="2.178128">
        <ele>2707.03</ele>
        <time>2016-07-16T08:02:09Z</time>
      </trkpt>
      <trkpt lat="42.419878" lon="2.177999">
        <ele>2697.07</ele>
        <time>2016-07-16T08:02:48Z</time>
      </trkpt>
      <trkpt lat="42.419902" lon="2.177870">
        <ele>2693.09</ele>
        <time>2016-07-16T08:03:13Z</time>
      </trkpt>
      <trkpt lat="42.419953" lon="2.177765">
        <ele>2690.03</ele>
        <time>2016-07-16T08:03:34Z</time>
      </trkpt>
      <trkpt lat="42.420001" lon="2.177655">
        <ele>2687.09</ele>
        <time>2016-07-16T08:03:52Z</time>
      </trkpt>
      <trkpt lat="42.420072" lon="2.177553">
        <ele>2683.03</ele>
        <time>2016-07-16T08:04:08Z</time>
      </trkpt>
      <trkpt lat="42.420131" lon="2.177448">
        <ele>2678.05</ele>
        <time>2016-07-16T08:04:25Z</time>
      </trkpt>
      <trkpt lat="42.420202" lon="2.177355">
        <ele>2673.09</ele>
        <time>2016-07-16T08:04:46Z</time>
      </trkpt>
      <trkpt lat="42.420264" lon="2.177258">
        <ele>2669.07</ele>
        <time>2016-07-16T08:05:01Z</time>
      </trkpt>
      <trkpt lat="42.420347" lon="2.177202">
        <ele>2669.01</ele>
        <time>2016-07-16T08:05:08Z</time>
      </trkpt>
      <trkpt lat="42.420379" lon="2.177081">
        <ele>2667.00</ele>
        <time>2016-07-16T08:07:26Z</time>
      </trkpt>
      <trkpt lat="42.420459" lon="2.177022">
        <ele>2665.02</ele>
        <time>2016-07-16T08:07:36Z</time>
      </trkpt>
      <trkpt lat="42.420540" lon="2.176963">
        <ele>2665.01</ele>
        <time>2016-07-16T08:07:45Z</time>
      </trkpt>
      <trkpt lat="42.420621" lon="2.176905">
        <ele>2676.02</ele>
        <time>2016-07-16T08:09:43Z</time>
      </trkpt>
      <trkpt lat="42.420689" lon="2.176823">
        <ele>2675.06</ele>
        <time>2016-07-16T08:09:58Z</time>
      </trkpt>
      <trkpt lat="42.420751" lon="2.176730">
        <ele>2674.01</ele>
        <time>2016-07-16T08:10:10Z</time>
      </trkpt>
      <trkpt lat="42.420800" lon="2.176627">
        <ele>2674.03</ele>
        <time>2016-07-16T08:10:17Z</time>
      </trkpt>
      <trkpt lat="42.420833" lon="2.176500">
        <ele>2673.09</ele>
        <time>2016-07-16T08:10:27Z</time>
      </trkpt>
      <trkpt lat="42.420896" lon="2.176401">
        <ele>2670.09</ele>
        <time>2016-07-16T08:10:38Z</time>
      </trkpt>
      <trkpt lat="42.420982" lon="2.176352">
        <ele>2667.05</ele>
        <time>2016-07-16T08:10:47Z</time>
      </trkpt>
      <trkpt lat="42.421067" lon="2.176307">
        <ele>2664.02</ele>
        <time>2016-07-16T08:10:55Z</time>
      </trkpt>
      <trkpt lat="42.421123" lon="2.176199">
        <ele>2662.01</ele>
        <time>2016-07-16T08:11:03Z</time>
      </trkpt>
      <trkpt lat="42.421178" lon="2.176102">
        <ele>2662.02</ele>
        <time>2016-07-16T08:11:08Z</time>
      </trkpt>
      <trkpt lat="42.421246" lon="2.175998">
        <ele>2662.04</ele>
        <time>2016-07-16T08:11:16Z</time>
      </trkpt>
      <trkpt lat="42.421325" lon="2.175908">
        <ele>2658.06</ele>
        <time>2016-07-16T08:11:27Z</time>
      </trkpt>
      <trkpt lat="42.421387" lon="2.175818">
        <ele>2663.05</ele>
        <time>2016-07-16T08:11:37Z</time>
      </trkpt>
      <trkpt lat="42.421454" lon="2.175717">
        <ele>2664.02</ele>
        <time>2016-07-16T08:11:43Z</time>
      </trkpt>
      <trkpt lat="42.421510" lon="2.175602">
        <ele>2663.01</ele>
        <time>2016-07-16T08:11:49Z</time>
      </trkpt>
      <trkpt lat="42.421594" lon="2.175512">
        <ele>2664.10</ele>
        <time>2016-07-16T08:11:55Z</time>
      </trkpt>
      <trkpt lat="42.421660" lon="2.175413">
        <ele>2664.04</ele>
        <time>2016-07-16T08:12:01Z</time>
      </trkpt>
      <trkpt lat="42.421693" lon="2.175288">
        <ele>2665.06</ele>
        <time>2016-07-16T08:12:07Z</time>
      </trkpt>
      <trkpt lat="42.421712" lon="2.175163">
        <ele>2667.07</ele>
        <time>2016-07-16T08:12:13Z</time>
      </trkpt>
      <trkpt lat="42.421771" lon="2.175055">
        <ele>2669.07</ele>
        <time>2016-07-16T08:12:22Z</time>
      </trkpt>
      <trkpt lat="42.421818" lon="2.174937">
        <ele>2672.01</ele>
        <time>2016-07-16T08:12:33Z</time>
      </trkpt>
      <trkpt lat="42.421868" lon="2.174809">
        <ele>2674.02</ele>
        <time>2016-07-16T08:12:42Z</time>
      </trkpt>
      <trkpt lat="42.421903" lon="2.174678">
        <ele>2676.06</ele>
        <time>2016-07-16T08:12:52Z</time>
      </trkpt>
      <trkpt lat="42.421944" lon="2.174563">
        <ele>2676.09</ele>
        <time>2016-07-16T08:13:00Z</time>
      </trkpt>
      <trkpt lat="42.421995" lon="2.174449">
        <ele>2676.02</ele>
        <time>2016-07-16T08:13:08Z</time>
      </trkpt>
      <trkpt lat="42.422041" lon="2.174324">
        <ele>2675.04</ele>
        <time>2016-07-16T08:13:15Z</time>
      </trkpt>
      <trkpt lat="42.422098" lon="2.174209">
        <ele>2676.04</ele>
        <time>2016-07-16T08:13:22Z</time>
      </trkpt>
      <trkpt lat="42.422159" lon="2.174116">
        <ele>2676.02</ele>
        <time>2016-07-16T08:13:28Z</time>
      </trkpt>
      <trkpt lat="42.422209" lon="2.174010">
        <ele>2677.07</ele>
        <time>2016-07-16T08:13:34Z</time>
      </trkpt>
      <trkpt lat="42.422279" lon="2.173905">
        <ele>2679.03</ele>
        <time>2016-07-16T08:13:43Z</time>
      </trkpt>
      <trkpt lat="42.422308" lon="2.173781">
        <ele>2679.05</ele>
        <time>2016-07-16T08:13:49Z</time>
      </trkpt>
      <trkpt lat="42.422318" lon="2.173644">
        <ele>2681.03</ele>
        <time>2016-07-16T08:13:59Z</time>
      </trkpt>
      <trkpt lat="42.422345" lon="2.173510">
        <ele>2685.01</ele>
        <time>2016-07-16T08:14:07Z</time>
      </trkpt>
      <trkpt lat="42.422349" lon="2.173379">
        <ele>2687.01</ele>
        <time>2016-07-16T08:14:16Z</time>
      </trkpt>
      <trkpt lat="42.422392" lon="2.173259">
        <ele>2690.04</ele>
        <time>2016-07-16T08:14:24Z</time>
      </trkpt>
      <trkpt lat="42.422371" lon="2.173133">
        <ele>2691.01</ele>
        <time>2016-07-16T08:14:33Z</time>
      </trkpt>
      <trkpt lat="42.422361" lon="2.173007">
        <ele>2694.08</ele>
        <time>2016-07-16T08:14:41Z</time>
      </trkpt>
      <trkpt lat="42.422329" lon="2.172874">
        <ele>2700.04</ele>
        <time>2016-07-16T08:14:51Z</time>
      </trkpt>
      <trkpt lat="42.422386" lon="2.172776">
        <ele>2701.08</ele>
        <time>2016-07-16T08:14:57Z</time>
      </trkpt>
      <trkpt lat="42.422433" lon="2.172656">
        <ele>2704.09</ele>
        <time>2016-07-16T08:15:07Z</time>
      </trkpt>
      <trkpt lat="42.422482" lon="2.172546">
        <ele>2707.04</ele>
        <time>2016-07-16T08:15:14Z</time>
      </trkpt>
      <trkpt lat="42.422523" lon="2.172430">
        <ele>2710.05</ele>
        <time>2016-07-16T08:15:20Z</time>
      </trkpt>
      <trkpt lat="42.422557" lon="2.172308">
        <ele>2713.06</ele>
        <time>2016-07-16T08:15:29Z</time>
      </trkpt>
      <trkpt lat="42.422597" lon="2.172198">
        <ele>2716.05</ele>
        <time>2016-07-16T08:15:38Z</time>
      </trkpt>
      <trkpt lat="42.422602" lon="2.172072">
        <ele>2717.01</ele>
        <time>2016-07-16T08:15:51Z</time>
      </trkpt>
      <trkpt lat="42.422617" lon="2.171950">
        <ele>2726.01</ele>
        <time>2016-07-16T08:16:00Z</time>
      </trkpt>
      <trkpt lat="42.422657" lon="2.171831">
        <ele>2727.02</ele>
        <time>2016-07-16T08:16:06Z</time>
      </trkpt>
      <trkpt lat="42.422698" lon="2.171719">
        <ele>2728.04</ele>
        <time>2016-07-16T08:16:10Z</time>
      </trkpt>
      <trkpt lat="42.422764" lon="2.171606">
        <ele>2729.03</ele>
        <time>2016-07-16T08:16:16Z</time>
      </trkpt>
      <trkpt lat="42.422804" lon="2.171478">
        <ele>2734.02</ele>
        <time>2016-07-16T08:16:23Z</time>
      </trkpt>
      <trkpt lat="42.422842" lon="2.171356">
        <ele>2735.09</ele>
        <time>2016-07-16T08:16:29Z</time>
      </trkpt>
      <trkpt lat="42.422903" lon="2.171243">
        <ele>2740.08</ele>
        <time>2016-07-16T08:16:35Z</time>
      </trkpt>
      <trkpt lat="42.422922" lon="2.171120">
        <ele>2742.04</ele>
        <time>2016-07-16T08:16:53Z</time>
      </trkpt>
      <trkpt lat="42.422963" lon="2.171007">
        <ele>2745.01</ele>
        <time>2016-07-16T08:17:04Z</time>
      </trkpt>
      <trkpt lat="42.423023" lon="2.170913">
        <ele>2748.08</ele>
        <time>2016-07-16T08:17:10Z</time>
      </trkpt>
      <trkpt lat="42.423063" lon="2.170784">
        <ele>2751.08</ele>
        <time>2016-07-16T08:17:17Z</time>
      </trkpt>
      <trkpt lat="42.423109" lon="2.170667">
        <ele>2753.01</ele>
        <time>2016-07-16T08:17:26Z</time>
      </trkpt>
      <trkpt lat="42.423088" lon="2.170540">
        <ele>2757.01</ele>
        <time>2016-07-16T08:17:41Z</time>
      </trkpt>
      <trkpt lat="42.423142" lon="2.170420">
        <ele>2761.04</ele>
        <time>2016-07-16T08:17:54Z</time>
      </trkpt>
      <trkpt lat="42.423241" lon="2.170374">
        <ele>2758.02</ele>
        <time>2016-07-16T08:18:01Z</time>
      </trkpt>
      <trkpt lat="42.423257" lon="2.170250">
        <ele>2767.01</ele>
        <time>2016-07-16T08:18:16Z</time>
      </trkpt>
      <trkpt lat="42.423273" lon="2.170121">
        <ele>2784.03</ele>
        <time>2016-07-16T08:18:21Z</time>
      </trkpt>
      <trkpt lat="42.423270" lon="2.169992">
        <ele>2790.03</ele>
        <time>2016-07-16T08:18:31Z</time>
      </trkpt>
      <trkpt lat="42.423330" lon="2.169876">
        <ele>2777.05</ele>
        <time>2016-07-16T08:18:37Z</time>
      </trkpt>
      <trkpt lat="42.423348" lon="2.169730">
        <ele>2788.04</ele>
        <time>2016-07-16T08:18:42Z</time>
      </trkpt>
      <trkpt lat="42.423378" lon="2.169613">
        <ele>2786.08</ele>
        <time>2016-07-16T08:18:48Z</time>
      </trkpt>
      <trkpt lat="42.423464" lon="2.169540">
        <ele>2803.02</ele>
        <time>2016-07-16T08:18:59Z</time>
      </trkpt>
      <trkpt lat="42.423558" lon="2.169517">
        <ele>2805.03</ele>
        <time>2016-07-16T08:19:06Z</time>
      </trkpt>
      <trkpt lat="42.423648" lon="2.169494">
        <ele>2809.01</ele>
        <time>2016-07-16T08:19:12Z</time>
      </trkpt>
      <trkpt lat="42.423734" lon="2.169419">
        <ele>2811.02</ele>
        <time>2016-07-16T08:19:17Z</time>
      </trkpt>
      <trkpt lat="42.423806" lon="2.169345">
        <ele>2813.06</ele>
        <time>2016-07-16T08:19:23Z</time>
      </trkpt>
      <trkpt lat="42.423878" lon="2.169260">
        <ele>2816.09</ele>
        <time>2016-07-16T08:19:29Z</time>
      </trkpt>
      <trkpt lat="42.423949" lon="2.169173">
        <ele>2819.01</ele>
        <time>2016-07-16T08:19:35Z</time>
      </trkpt>
      <trkpt lat="42.424012" lon="2.169081">
        <ele>2821.06</ele>
        <time>2016-07-16T08:19:42Z</time>
      </trkpt>
      <trkpt lat="42.424077" lon="2.168994">
        <ele>2821.02</ele>
        <time>2016-07-16T08:19:48Z</time>
      </trkpt>
      <trkpt lat="42.424162" lon="2.168902">
        <ele>2825.06</ele>
        <time>2016-07-16T08:19:55Z</time>
      </trkpt>
      <trkpt lat="42.424217" lon="2.168799">
        <ele>2829.03</ele>
        <time>2016-07-16T08:20:04Z</time>
      </trkpt>
      <trkpt lat="42.424275" lon="2.168692">
        <ele>2832.06</ele>
        <time>2016-07-16T08:20:10Z</time>
      </trkpt>
      <trkpt lat="42.424298" lon="2.168562">
        <ele>2839.05</ele>
        <time>2016-07-16T08:20:20Z</time>
      </trkpt>
      <trkpt lat="42.424386" lon="2.168483">
        <ele>2842.09</ele>
        <time>2016-07-16T08:20:27Z</time>
      </trkpt>
      <trkpt lat="42.424443" lon="2.168387">
        <ele>2842.01</ele>
        <time>2016-07-16T08:20:34Z</time>
      </trkpt>
      <trkpt lat="42.424527" lon="2.168296">
        <ele>2843.01</ele>
        <time>2016-07-16T08:20:41Z</time>
      </trkpt>
      <trkpt lat="42.424564" lon="2.168172">
        <ele>2845.02</ele>
        <time>2016-07-16T08:20:47Z</time>
      </trkpt>
      <trkpt lat="42.424588" lon="2.168040">
        <ele>2852.06</ele>
        <time>2016-07-16T08:20:58Z</time>
      </trkpt>
      <trkpt lat="42.424670" lon="2.167977">
        <ele>2857.08</ele>
        <time>2016-07-16T08:21:09Z</time>
      </trkpt>
      <trkpt lat="42.424719" lon="2.167872">
        <ele>2859.02</ele>
        <time>2016-07-16T08:21:15Z</time>
      </trkpt>
      <trkpt lat="42.424776" lon="2.167756">
        <ele>2863.01</ele>
        <time>2016-07-16T08:21:22Z</time>
      </trkpt>
      <trkpt lat="42.424847" lon="2.167661">
        <ele>2865.07</ele>
        <time>2016-07-16T08:22:16Z</time>
      </trkpt>
      <trkpt lat="42.424751" lon="2.167696">
        <ele>2860.05</ele>
        <time>2016-07-16T08:28:46Z</time>
      </trkpt>
      <trkpt lat="42.424663" lon="2.167753">
        <ele>2860.02</ele>
        <time>2016-07-16T08:28:58Z</time>
      </trkpt>
      <trkpt lat="42.424753" lon="2.167790">
        <ele>2861.02</ele>
        <time>2016-07-16T08:29:05Z</time>
      </trkpt>
      <trkpt lat="42.424828" lon="2.167700">
        <ele>2863.10</ele>
        <time>2016-07-16T08:30:39Z</time>
      </trkpt>
      <trkpt lat="42.424894" lon="2.167613">
        <ele>2867.01</ele>
        <time>2016-07-16T08:31:15Z</time>
      </trkpt>
      <trkpt lat="42.424809" lon="2.167659">
        <ele>2861.03</ele>
        <time>2016-07-16T08:32:07Z</time>
      </trkpt>
      <trkpt lat="42.424716" lon="2.167614">
        <ele>2860.04</ele>
        <time>2016-07-16T08:32:17Z</time>
      </trkpt>
      <trkpt lat="42.424626" lon="2.167563">
        <ele>2859.07</ele>
        <time>2016-07-16T08:32:25Z</time>
      </trkpt>
      <trkpt lat="42.424536" lon="2.167526">
        <ele>2858.03</ele>
        <time>2016-07-16T08:32:33Z</time>
      </trkpt>
      <trkpt lat="42.424443" lon="2.167482">
        <ele>2858.05</ele>
        <time>2016-07-16T08:33:00Z</time>
      </trkpt>
      <trkpt lat="42.424348" lon="2.167431">
        <ele>2857.02</ele>
        <time>2016-07-16T08:33:07Z</time>
      </trkpt>
      <trkpt lat="42.424269" lon="2.167370">
        <ele>2855.05</ele>
        <time>2016-07-16T08:33:14Z</time>
      </trkpt>
      <trkpt lat="42.424167" lon="2.167358">
        <ele>2855.06</ele>
        <time>2016-07-16T08:34:16Z</time>
      </trkpt>
      <trkpt lat="42.424065" lon="2.167363">
        <ele>2857.09</ele>
        <time>2016-07-16T08:35:13Z</time>
      </trkpt>
      <trkpt lat="42.423981" lon="2.167319">
        <ele>2849.06</ele>
        <time>2016-07-16T08:35:48Z</time>
      </trkpt>
      <trkpt lat="42.423910" lon="2.167230">
        <ele>2845.04</ele>
        <time>2016-07-16T08:36:04Z</time>
      </trkpt>
      <trkpt lat="42.423849" lon="2.167119">
        <ele>2843.01</ele>
        <time>2016-07-16T08:36:26Z</time>
      </trkpt>
      <trkpt lat="42.423792" lon="2.167023">
        <ele>2839.02</ele>
        <time>2016-07-16T08:36:43Z</time>
      </trkpt>
      <trkpt lat="42.423718" lon="2.166939">
        <ele>2836.00</ele>
        <time>2016-07-16T08:36:58Z</time>
      </trkpt>
      <trkpt lat="42.423636" lon="2.166850">
        <ele>2833.04</ele>
        <time>2016-07-16T08:37:12Z</time>
      </trkpt>
      <trkpt lat="42.423573" lon="2.166750">
        <ele>2831.05</ele>
        <time>2016-07-16T08:37:25Z</time>
      </trkpt>
      <trkpt lat="42.423501" lon="2.166672">
        <ele>2831.06</ele>
        <time>2016-07-16T08:37:37Z</time>
      </trkpt>
      <trkpt lat="42.423422" lon="2.166592">
        <ele>2830.09</ele>
        <time>2016-07-16T08:37:46Z</time>
      </trkpt>
      <trkpt lat="42.423361" lon="2.166487">
        <ele>2825.08</ele>
        <time>2016-07-16T08:37:58Z</time>
      </trkpt>
      <trkpt lat="42.423279" lon="2.166414">
        <ele>2823.07</ele>
        <time>2016-07-16T08:38:09Z</time>
      </trkpt>
      <trkpt lat="42.423239" lon="2.166293">
        <ele>2823.07</ele>
        <time>2016-07-16T08:38:24Z</time>
      </trkpt>
      <trkpt lat="42.423189" lon="2.166185">
        <ele>2820.02</ele>
        <time>2016-07-16T08:38:36Z</time>
      </trkpt>
      <trkpt lat="42.423152" lon="2.166062">
        <ele>2816.03</ele>
        <time>2016-07-16T08:38:50Z</time>
      </trkpt>
      <trkpt lat="42.423127" lon="2.165943">
        <ele>2813.01</ele>
        <time>2016-07-16T08:39:05Z</time>
      </trkpt>
      <trkpt lat="42.423133" lon="2.165811">
        <ele>2811.02</ele>
        <time>2016-07-16T08:39:19Z</time>
      </trkpt>
      <trkpt lat="42.423079" lon="2.165696">
        <ele>2806.00</ele>
        <time>2016-07-16T08:39:31Z</time>
      </trkpt>
      <trkpt lat="42.423007" lon="2.165603">
        <ele>2806.03</ele>
        <time>2016-07-16T08:39:43Z</time>
      </trkpt>
      <trkpt lat="42.422982" lon="2.165467">
        <ele>2804.06</ele>
        <time>2016-07-16T08:39:56Z</time>
      </trkpt>
      <trkpt lat="42.422970" lon="2.165345">
        <ele>2802.08</ele>
        <time>2016-07-16T08:40:12Z</time>
      </trkpt>
      <trkpt lat="42.422928" lon="2.165224">
        <ele>2797.08</ele>
        <time>2016-07-16T08:40:24Z</time>
      </trkpt>
      <trkpt lat="42.422856" lon="2.165131">
        <ele>2797.01</ele>
        <time>2016-07-16T08:40:41Z</time>
      </trkpt>
      <trkpt lat="42.422818" lon="2.165009">
        <ele>2792.09</ele>
        <time>2016-07-16T08:40:58Z</time>
      </trkpt>
      <trkpt lat="42.422786" lon="2.164880">
        <ele>2789.06</ele>
        <time>2016-07-16T08:41:12Z</time>
      </trkpt>
      <trkpt lat="42.422740" lon="2.164771">
        <ele>2787.08</ele>
        <time>2016-07-16T08:41:26Z</time>
      </trkpt>
      <trkpt lat="42.422742" lon="2.164637">
        <ele>2784.05</ele>
        <time>2016-07-16T08:41:41Z</time>
      </trkpt>
      <trkpt lat="42.422722" lon="2.164502">
        <ele>2781.01</ele>
        <time>2016-07-16T08:41:54Z</time>
      </trkpt>
      <trkpt lat="42.422707" lon="2.164381">
        <ele>2781.02</ele>
        <time>2016-07-16T08:42:05Z</time>
      </trkpt>
      <trkpt lat="42.422706" lon="2.164254">
        <ele>2779.03</ele>
        <time>2016-07-16T08:42:17Z</time>
      </trkpt>
      <trkpt lat="42.422704" lon="2.164128">
        <ele>2776.05</ele>
        <time>2016-07-16T08:42:29Z</time>
      </trkpt>
      <trkpt lat="42.422697" lon="2.164003">
        <ele>2774.05</ele>
        <time>2016-07-16T08:42:43Z</time>
      </trkpt>
      <trkpt lat="42.422689" lon="2.163874">
        <ele>2772.10</ele>
        <time>2016-07-16T08:42:54Z</time>
      </trkpt>
      <trkpt lat="42.422680" lon="2.163737">
        <ele>2767.08</ele>
        <time>2016-07-16T08:43:15Z</time>
      </trkpt>
      <trkpt lat="42.422604" lon="2.163641">
        <ele>2765.03</ele>
        <time>2016-07-16T08:43:50Z</time>
      </trkpt>
      <trkpt lat="42.422613" lon="2.163505">
        <ele>2763.03</ele>
        <time>2016-07-16T08:44:04Z</time>
      </trkpt>
      <trkpt lat="42.422616" lon="2.163379">
        <ele>2762.05</ele>
        <time>2016-07-16T08:44:16Z</time>
      </trkpt>
      <trkpt lat="42.422637" lon="2.163254">
        <ele>2758.03</ele>
        <time>2016-07-16T08:44:31Z</time>
      </trkpt>
      <trkpt lat="42.422644" lon="2.163120">
        <ele>2755.03</ele>
        <time>2016-07-16T08:44:47Z</time>
      </trkpt>
      <trkpt lat="42.422666" lon="2.162999">
        <ele>2751.01</ele>
        <time>2016-07-16T08:45:05Z</time>
      </trkpt>
      <trkpt lat="42.422658" lon="2.162861">
        <ele>2750.02</ele>
        <time>2016-07-16T08:45:19Z</time>
      </trkpt>
      <trkpt lat="42.422675" lon="2.162717">
        <ele>2747.02</ele>
        <time>2016-07-16T08:45:26Z</time>
      </trkpt>
      <trkpt lat="42.422722" lon="2.162600">
        <ele>2746.04</ele>
        <time>2016-07-16T08:45:36Z</time>
      </trkpt>
      <trkpt lat="42.422726" lon="2.162473">
        <ele>2742.06</ele>
        <time>2016-07-16T08:45:51Z</time>
      </trkpt>
      <trkpt lat="42.422648" lon="2.162395">
        <ele>2742.05</ele>
        <time>2016-07-16T08:46:10Z</time>
      </trkpt>
      <trkpt lat="42.422621" lon="2.162275">
        <ele>2741.06</ele>
        <time>2016-07-16T08:46:18Z</time>
      </trkpt>
      <trkpt lat="42.422606" lon="2.162152">
        <ele>2740.06</ele>
        <time>2016-07-16T08:46:25Z</time>
      </trkpt>
      <trkpt lat="42.422598" lon="2.162030">
        <ele>2740.10</ele>
        <time>2016-07-16T08:46:32Z</time>
      </trkpt>
      <trkpt lat="42.422583" lon="2.161898">
        <ele>2739.03</ele>
        <time>2016-07-16T08:46:41Z</time>
      </trkpt>
      <trkpt lat="42.422571" lon="2.161775">
        <ele>2738.07</ele>
        <time>2016-07-16T08:46:50Z</time>
      </trkpt>
      <trkpt lat="42.422542" lon="2.161649">
        <ele>2739.02</ele>
        <time>2016-07-16T08:46:57Z</time>
      </trkpt>
      <trkpt lat="42.422503" lon="2.161524">
        <ele>2738.01</ele>
        <time>2016-07-16T08:47:04Z</time>
      </trkpt>
      <trkpt lat="42.422500" lon="2.161394">
        <ele>2739.02</ele>
        <time>2016-07-16T08:47:12Z</time>
      </trkpt>
      <trkpt lat="42.422516" lon="2.161263">
        <ele>2740.03</ele>
        <time>2016-07-16T08:47:19Z</time>
      </trkpt>
      <trkpt lat="42.422524" lon="2.161134">
        <ele>2740.08</ele>
        <time>2016-07-16T08:47:27Z</time>
      </trkpt>
      <trkpt lat="42.422492" lon="2.161019">
        <ele>2739.08</ele>
        <time>2016-07-16T08:47:34Z</time>
      </trkpt>
      <trkpt lat="42.422461" lon="2.160899">
        <ele>2741.08</ele>
        <time>2016-07-16T08:47:41Z</time>
      </trkpt>
      <trkpt lat="42.422443" lon="2.160772">
        <ele>2740.03</ele>
        <time>2016-07-16T08:47:50Z</time>
      </trkpt>
      <trkpt lat="42.422412" lon="2.160657">
        <ele>2738.09</ele>
        <time>2016-07-16T08:47:57Z</time>
      </trkpt>
      <trkpt lat="42.422379" lon="2.160532">
        <ele>2739.02</ele>
        <time>2016-07-16T08:48:05Z</time>
      </trkpt>
      <trkpt lat="42.422394" lon="2.160397">
        <ele>2740.08</ele>
        <time>2016-07-16T08:48:12Z</time>
      </trkpt>
      <trkpt lat="42.422373" lon="2.160263">
        <ele>2740.05</ele>
        <time>2016-07-16T08:48:19Z</time>
      </trkpt>
      <trkpt lat="42.422385" lon="2.160136">
        <ele>2740.07</ele>
        <time>2016-07-16T08:48:26Z</time>
      </trkpt>
      <trkpt lat="42.422383" lon="2.160003">
        <ele>2740.01</ele>
        <time>2016-07-16T08:48:34Z</time>
      </trkpt>
      <trkpt lat="42.422390" lon="2.159871">
        <ele>2738.01</ele>
        <time>2016-07-16T08:48:44Z</time>
      </trkpt>
      <trkpt lat="42.422384" lon="2.159735">
        <ele>2739.06</ele>
        <time>2016-07-16T08:48:49Z</time>
      </trkpt>
      <trkpt lat="42.422365" lon="2.159590">
        <ele>2738.04</ele>
        <time>2016-07-16T08:48:54Z</time>
      </trkpt>
      <trkpt lat="42.422348" lon="2.159464">
        <ele>2739.07</ele>
        <time>2016-07-16T08:48:59Z</time>
      </trkpt>
      <trkpt lat="42.422319" lon="2.159344">
        <ele>2740.07</ele>
        <time>2016-07-16T08:49:03Z</time>
      </trkpt>
      <trkpt lat="42.422282" lon="2.159215">
        <ele>2742.04</ele>
        <time>2016-07-16T08:49:08Z</time>
      </trkpt>
      <trkpt lat="42.422285" lon="2.159082">
        <ele>2744.01</ele>
        <time>2016-07-16T08:49:13Z</time>
      </trkpt>
      <trkpt lat="42.422299" lon="2.158955">
        <ele>2746.07</ele>
        <time>2016-07-16T08:49:17Z</time>
      </trkpt>
      <trkpt lat="42.422321" lon="2.158831">
        <ele>2746.03</ele>
        <time>2016-07-16T08:49:21Z</time>
      </trkpt>
      <trkpt lat="42.422347" lon="2.158709">
        <ele>2747.07</ele>
        <time>2016-07-16T08:49:25Z</time>
      </trkpt>
      <trkpt lat="42.422388" lon="2.158587">
        <ele>2748.07</ele>
        <time>2016-07-16T08:49:29Z</time>
      </trkpt>
      <trkpt lat="42.422426" lon="2.158447">
        <ele>2748.01</ele>
        <time>2016-07-16T08:49:33Z</time>
      </trkpt>
      <trkpt lat="42.422477" lon="2.158312">
        <ele>2752.01</ele>
        <time>2016-07-16T08:49:37Z</time>
      </trkpt>
      <trkpt lat="42.422552" lon="2.158224">
        <ele>2755.01</ele>
        <time>2016-07-16T08:49:41Z</time>
      </trkpt>
      <trkpt lat="42.422620" lon="2.158141">
        <ele>2757.04</ele>
        <time>2016-07-16T08:49:45Z</time>
      </trkpt>
      <trkpt lat="42.422680" lon="2.158038">
        <ele>2760.01</ele>
        <time>2016-07-16T08:49:49Z</time>
      </trkpt>
      <trkpt lat="42.422752" lon="2.157912">
        <ele>2763.05</ele>
        <time>2016-07-16T08:49:54Z</time>
      </trkpt>
      <trkpt lat="42.422787" lon="2.157786">
        <ele>2767.03</ele>
        <time>2016-07-16T08:49:58Z</time>
      </trkpt>
      <trkpt lat="42.422847" lon="2.157657">
        <ele>2770.07</ele>
        <time>2016-07-16T08:50:02Z</time>
      </trkpt>
      <trkpt lat="42.422928" lon="2.157596">
        <ele>2774.04</ele>
        <time>2016-07-16T08:50:08Z</time>
      </trkpt>
      <trkpt lat="42.422998" lon="2.157508">
        <ele>2778.07</ele>
        <time>2016-07-16T08:50:14Z</time>
      </trkpt>
      <trkpt lat="42.423076" lon="2.157439">
        <ele>2781.05</ele>
        <time>2016-07-16T08:50:19Z</time>
      </trkpt>
      <trkpt lat="42.423162" lon="2.157358">
        <ele>2786.10</ele>
        <time>2016-07-16T08:50:26Z</time>
      </trkpt>
      <trkpt lat="42.423234" lon="2.157261">
        <ele>2789.01</ele>
        <time>2016-07-16T08:50:36Z</time>
      </trkpt>
      <trkpt lat="42.423295" lon="2.157150">
        <ele>2791.01</ele>
        <time>2016-07-16T08:50:43Z</time>
      </trkpt>
      <trkpt lat="42.423371" lon="2.157065">
        <ele>2794.00</ele>
        <time>2016-07-16T08:50:57Z</time>
      </trkpt>
      <trkpt lat="42.423414" lon="2.156947">
        <ele>2785.05</ele>
        <time>2016-07-16T08:56:41Z</time>
      </trkpt>
      <trkpt lat="42.423318" lon="2.156913">
        <ele>2785.08</ele>
        <time>2016-07-16T08:57:17Z</time>
      </trkpt>
      <trkpt lat="42.423303" lon="2.156781">
        <ele>2781.02</ele>
        <time>2016-07-16T08:57:42Z</time>
      </trkpt>
      <trkpt lat="42.423322" lon="2.156648">
        <ele>2775.09</ele>
        <time>2016-07-16T08:58:06Z</time>
      </trkpt>
      <trkpt lat="42.423252" lon="2.156566">
        <ele>2772.02</ele>
        <time>2016-07-16T08:58:25Z</time>
      </trkpt>
      <trkpt lat="42.423161" lon="2.156516">
        <ele>2767.07</ele>
        <time>2016-07-16T08:58:47Z</time>
      </trkpt>
      <trkpt lat="42.423071" lon="2.156503">
        <ele>2765.09</ele>
        <time>2016-07-16T08:59:03Z</time>
      </trkpt>
      <trkpt lat="42.422981" lon="2.156446">
        <ele>2760.02</ele>
        <time>2016-07-16T08:59:25Z</time>
      </trkpt>
      <trkpt lat="42.422912" lon="2.156342">
        <ele>2758.03</ele>
        <time>2016-07-16T08:59:51Z</time>
      </trkpt>
      <trkpt lat="42.422834" lon="2.156267">
        <ele>2755.01</ele>
        <time>2016-07-16T09:00:08Z</time>
      </trkpt>
      <trkpt lat="42.422751" lon="2.156202">
        <ele>2755.03</ele>
        <time>2016-07-16T09:00:20Z</time>
      </trkpt>
      <trkpt lat="42.422659" lon="2.156161">
        <ele>2752.03</ele>
        <time>2016-07-16T09:00:30Z</time>
      </trkpt>
      <trkpt lat="42.422574" lon="2.156112">
        <ele>2752.08</ele>
        <time>2016-07-16T09:00:40Z</time>
      </trkpt>
      <trkpt lat="42.422489" lon="2.156066">
        <ele>2750.04</ele>
        <time>2016-07-16T09:00:50Z</time>
      </trkpt>
      <trkpt lat="42.422406" lon="2.155947">
        <ele>2748.04</ele>
        <time>2016-07-16T09:01:08Z</time>
      </trkpt>
      <trkpt lat="42.422404" lon="2.155821">
        <ele>2745.06</ele>
        <time>2016-07-16T09:01:21Z</time>
      </trkpt>
      <trkpt lat="42.422346" lon="2.155716">
        <ele>2742.02</ele>
        <time>2016-07-16T09:01:32Z</time>
      </trkpt>
      <trkpt lat="42.422325" lon="2.155595">
        <ele>2740.02</ele>
        <time>2016-07-16T09:01:46Z</time>
      </trkpt>
      <trkpt lat="42.422336" lon="2.155466">
        <ele>2738.05</ele>
        <time>2016-07-16T09:02:06Z</time>
      </trkpt>
      <trkpt lat="42.422307" lon="2.155344">
        <ele>2733.04</ele>
        <time>2016-07-16T09:02:22Z</time>
      </trkpt>
      <trkpt lat="42.422236" lon="2.155253">
        <ele>2729.03</ele>
        <time>2016-07-16T09:02:38Z</time>
      </trkpt>
      <trkpt lat="42.422177" lon="2.155147">
        <ele>2726.01</ele>
        <time>2016-07-16T09:02:51Z</time>
      </trkpt>
      <trkpt lat="42.422165" lon="2.155015">
        <ele>2723.02</ele>
        <time>2016-07-16T09:03:07Z</time>
      </trkpt>
      <trkpt lat="42.422077" lon="2.154980">
        <ele>2722.03</ele>
        <time>2016-07-16T09:03:15Z</time>
      </trkpt>
      <trkpt lat="42.421979" lon="2.154934">
        <ele>2721.05</ele>
        <time>2016-07-16T09:03:23Z</time>
      </trkpt>
      <trkpt lat="42.421893" lon="2.154868">
        <ele>2720.07</ele>
        <time>2016-07-16T09:03:32Z</time>
      </trkpt>
      <trkpt lat="42.421824" lon="2.154781">
        <ele>2717.07</ele>
        <time>2016-07-16T09:03:39Z</time>
      </trkpt>
      <trkpt lat="42.421776" lon="2.154659">
        <ele>2719.07</ele>
        <time>2016-07-16T09:03:47Z</time>
      </trkpt>
      <trkpt lat="42.421755" lon="2.154539">
        <ele>2717.01</ele>
        <time>2016-07-16T09:03:54Z</time>
      </trkpt>
      <trkpt lat="42.421702" lon="2.154427">
        <ele>2719.03</ele>
        <time>2016-07-16T09:04:01Z</time>
      </trkpt>
      <trkpt lat="42.421624" lon="2.154354">
        <ele>2722.07</ele>
        <time>2016-07-16T09:04:10Z</time>
      </trkpt>
      <trkpt lat="42.421527" lon="2.154315">
        <ele>2724.08</ele>
        <time>2016-07-16T09:04:20Z</time>
      </trkpt>
      <trkpt lat="42.421522" lon="2.154189">
        <ele>2724.06</ele>
        <time>2016-07-16T09:04:32Z</time>
      </trkpt>
      <trkpt lat="42.421499" lon="2.154061">
        <ele>2724.01</ele>
        <time>2016-07-16T09:04:40Z</time>
      </trkpt>
      <trkpt lat="42.421479" lon="2.153942">
        <ele>2726.02</ele>
        <time>2016-07-16T09:04:47Z</time>
      </trkpt>
      <trkpt lat="42.421485" lon="2.153809">
        <ele>2726.05</ele>
        <time>2016-07-16T09:04:55Z</time>
      </trkpt>
      <trkpt lat="42.421505" lon="2.153688">
        <ele>2722.06</ele>
        <time>2016-07-16T09:05:05Z</time>
      </trkpt>
      <trkpt lat="42.421497" lon="2.153565">
        <ele>2720.09</ele>
        <time>2016-07-16T09:05:14Z</time>
      </trkpt>
      <trkpt lat="42.421491" lon="2.153443">
        <ele>2719.08</ele>
        <time>2016-07-16T09:05:22Z</time>
      </trkpt>
      <trkpt lat="42.421533" lon="2.153321">
        <ele>2718.08</ele>
        <time>2016-07-16T09:05:31Z</time>
      </trkpt>
      <trkpt lat="42.421493" lon="2.153197">
        <ele>2721.04</ele>
        <time>2016-07-16T09:05:40Z</time>
      </trkpt>
      <trkpt lat="42.421476" lon="2.153070">
        <ele>2721.06</ele>
        <time>2016-07-16T09:05:49Z</time>
      </trkpt>
      <trkpt lat="42.421473" lon="2.152939">
        <ele>2716.09</ele>
        <time>2016-07-16T09:06:06Z</time>
      </trkpt>
      <trkpt lat="42.421474" lon="2.152812">
        <ele>2713.09</ele>
        <time>2016-07-16T09:06:13Z</time>
      </trkpt>
      <trkpt lat="42.421472" lon="2.152668">
        <ele>2715.05</ele>
        <time>2016-07-16T09:06:22Z</time>
      </trkpt>
      <trkpt lat="42.421409" lon="2.152569">
        <ele>2710.01</ele>
        <time>2016-07-16T09:06:54Z</time>
      </trkpt>
      <trkpt lat="42.421417" lon="2.152432">
        <ele>2709.02</ele>
        <time>2016-07-16T09:07:06Z</time>
      </trkpt>
      <trkpt lat="42.421417" lon="2.152309">
        <ele>2708.04</ele>
        <time>2016-07-16T09:07:34Z</time>
      </trkpt>
      <trkpt lat="42.421369" lon="2.152203">
        <ele>2709.08</ele>
        <time>2016-07-16T09:07:43Z</time>
      </trkpt>
      <trkpt lat="42.421338" lon="2.152068">
        <ele>2707.06</ele>
        <time>2016-07-16T09:07:54Z</time>
      </trkpt>
      <trkpt lat="42.421319" lon="2.151947">
        <ele>2710.05</ele>
        <time>2016-07-16T09:08:04Z</time>
      </trkpt>
      <trkpt lat="42.421318" lon="2.151805">
        <ele>2709.07</ele>
        <time>2016-07-16T09:08:12Z</time>
      </trkpt>
      <trkpt lat="42.421318" lon="2.151670">
        <ele>2712.06</ele>
        <time>2016-07-16T09:08:20Z</time>
      </trkpt>
      <trkpt lat="42.421315" lon="2.151536">
        <ele>2713.05</ele>
        <time>2016-07-16T09:08:30Z</time>
      </trkpt>
      <trkpt lat="42.421301" lon="2.151407">
        <ele>2711.06</ele>
        <time>2016-07-16T09:08:43Z</time>
      </trkpt>
      <trkpt lat="42.421292" lon="2.151261">
        <ele>2710.09</ele>
        <time>2016-07-16T09:08:55Z</time>
      </trkpt>
      <trkpt lat="42.421239" lon="2.151153">
        <ele>2709.09</ele>
        <time>2016-07-16T09:09:06Z</time>
      </trkpt>
      <trkpt lat="42.421235" lon="2.151022">
        <ele>2707.01</ele>
        <time>2016-07-16T09:09:18Z</time>
      </trkpt>
      <trkpt lat="42.421233" lon="2.150897">
        <ele>2706.01</ele>
        <time>2016-07-16T09:09:28Z</time>
      </trkpt>
      <trkpt lat="42.421252" lon="2.150777">
        <ele>2704.08</ele>
        <time>2016-07-16T09:09:39Z</time>
      </trkpt>
      <trkpt lat="42.421212" lon="2.150666">
        <ele>2704.04</ele>
        <time>2016-07-16T09:09:51Z</time>
      </trkpt>
      <trkpt lat="42.421142" lon="2.150580">
        <ele>2705.02</ele>
        <time>2016-07-16T09:10:01Z</time>
      </trkpt>
      <trkpt lat="42.421099" lon="2.150467">
        <ele>2704.09</ele>
        <time>2016-07-16T09:10:10Z</time>
      </trkpt>
      <trkpt lat="42.421043" lon="2.150366">
        <ele>2698.09</ele>
        <time>2016-07-16T09:10:18Z</time>
      </trkpt>
      <trkpt lat="42.420995" lon="2.150260">
        <ele>2699.08</ele>
        <time>2016-07-16T09:10:28Z</time>
      </trkpt>
      <trkpt lat="42.421014" lon="2.150126">
        <ele>2697.06</ele>
        <time>2016-07-16T09:10:38Z</time>
      </trkpt>
      <trkpt lat="42.421003" lon="2.150000">
        <ele>2692.02</ele>
        <time>2016-07-16T09:11:27Z</time>
      </trkpt>
      <trkpt lat="42.420916" lon="2.150068">
        <ele>2716.05</ele>
        <time>2016-07-16T09:11:57Z</time>
      </trkpt>
      <trkpt lat="42.420876" lon="2.149947">
        <ele>2718.03</ele>
        <time>2016-07-16T09:12:04Z</time>
      </trkpt>
      <trkpt lat="42.420847" lon="2.149829">
        <ele>2719.01</ele>
        <time>2016-07-16T09:12:08Z</time>
      </trkpt>
      <trkpt lat="42.420833" lon="2.149691">
        <ele>2721.01</ele>
        <time>2016-07-16T09:12:12Z</time>
      </trkpt>
      <trkpt lat="42.420810" lon="2.149545">
        <ele>2723.01</ele>
        <time>2016-07-16T09:12:16Z</time>
      </trkpt>
      <trkpt lat="42.420780" lon="2.149400">
        <ele>2724.07</ele>
        <time>2016-07-16T09:12:20Z</time>
      </trkpt>
      <trkpt lat="42.420766" lon="2.149237">
        <ele>2729.01</ele>
        <time>2016-07-16T09:12:25Z</time>
      </trkpt>
      <trkpt lat="42.420796" lon="2.149121">
        <ele>2730.05</ele>
        <time>2016-07-16T09:12:28Z</time>
      </trkpt>
      <trkpt lat="42.420838" lon="2.149012">
        <ele>2731.08</ele>
        <time>2016-07-16T09:12:32Z</time>
      </trkpt>
      <trkpt lat="42.420815" lon="2.148876">
        <ele>2734.06</ele>
        <time>2016-07-16T09:12:36Z</time>
      </trkpt>
      <trkpt lat="42.420844" lon="2.148745">
        <ele>2738.05</ele>
        <time>2016-07-16T09:12:41Z</time>
      </trkpt>
      <trkpt lat="42.420876" lon="2.148624">
        <ele>2743.04</ele>
        <time>2016-07-16T09:12:45Z</time>
      </trkpt>
      <trkpt lat="42.420796" lon="2.148559">
        <ele>2745.08</ele>
        <time>2016-07-16T09:12:49Z</time>
      </trkpt>
      <trkpt lat="42.420712" lon="2.148507">
        <ele>2749.07</ele>
        <time>2016-07-16T09:12:53Z</time>
      </trkpt>
      <trkpt lat="42.420608" lon="2.148475">
        <ele>2752.01</ele>
        <time>2016-07-16T09:12:57Z</time>
      </trkpt>
      <trkpt lat="42.420536" lon="2.148398">
        <ele>2753.03</ele>
        <time>2016-07-16T09:13:00Z</time>
      </trkpt>
      <trkpt lat="42.420463" lon="2.148296">
        <ele>2755.01</ele>
        <time>2016-07-16T09:13:04Z</time>
      </trkpt>
      <trkpt lat="42.420407" lon="2.148181">
        <ele>2758.09</ele>
        <time>2016-07-16T09:13:11Z</time>
      </trkpt>
      <trkpt lat="42.420333" lon="2.148084">
        <ele>2760.03</ele>
        <time>2016-07-16T09:13:15Z</time>
      </trkpt>
      <trkpt lat="42.420227" lon="2.148011">
        <ele>2760.07</ele>
        <time>2016-07-16T09:13:19Z</time>
      </trkpt>
      <trkpt lat="42.420146" lon="2.147925">
        <ele>2762.08</ele>
        <time>2016-07-16T09:13:23Z</time>
      </trkpt>
      <trkpt lat="42.420030" lon="2.147901">
        <ele>2765.05</ele>
        <time>2016-07-16T09:13:28Z</time>
      </trkpt>
      <trkpt lat="42.419925" lon="2.147848">
        <ele>2765.06</ele>
        <time>2016-07-16T09:13:32Z</time>
      </trkpt>
      <trkpt lat="42.419831" lon="2.147770">
        <ele>2767.09</ele>
        <time>2016-07-16T09:13:38Z</time>
      </trkpt>
      <trkpt lat="42.419732" lon="2.147710">
        <ele>2769.02</ele>
        <time>2016-07-16T09:13:43Z</time>
      </trkpt>
      <trkpt lat="42.419632" lon="2.147659">
        <ele>2769.04</ele>
        <time>2016-07-16T09:13:47Z</time>
      </trkpt>
      <trkpt lat="42.419544" lon="2.147580">
        <ele>2769.01</ele>
        <time>2016-07-16T09:13:51Z</time>
      </trkpt>
      <trkpt lat="42.419441" lon="2.147576">
        <ele>2765.01</ele>
        <time>2016-07-16T09:13:58Z</time>
      </trkpt>
      <trkpt lat="42.419359" lon="2.147515">
        <ele>2777.05</ele>
        <time>2016-07-16T09:14:05Z</time>
      </trkpt>
      <trkpt lat="42.419284" lon="2.147432">
        <ele>2775.05</ele>
        <time>2016-07-16T09:14:13Z</time>
      </trkpt>
      <trkpt lat="42.419197" lon="2.147380">
        <ele>2773.05</ele>
        <time>2016-07-16T09:14:20Z</time>
      </trkpt>
      <trkpt lat="42.419110" lon="2.147331">
        <ele>2772.05</ele>
        <time>2016-07-16T09:14:26Z</time>
      </trkpt>
      <trkpt lat="42.419025" lon="2.147285">
        <ele>2775.09</ele>
        <time>2016-07-16T09:14:31Z</time>
      </trkpt>
      <trkpt lat="42.418949" lon="2.147218">
        <ele>2775.01</ele>
        <time>2016-07-16T09:14:37Z</time>
      </trkpt>
      <trkpt lat="42.418859" lon="2.147160">
        <ele>2771.01</ele>
        <time>2016-07-16T09:14:43Z</time>
      </trkpt>
      <trkpt lat="42.418772" lon="2.147103">
        <ele>2772.07</ele>
        <time>2016-07-16T09:14:47Z</time>
      </trkpt>
      <trkpt lat="42.418676" lon="2.147033">
        <ele>2770.06</ele>
        <time>2016-07-16T09:14:51Z</time>
      </trkpt>
      <trkpt lat="42.418603" lon="2.146934">
        <ele>2774.10</ele>
        <time>2016-07-16T09:14:55Z</time>
      </trkpt>
      <trkpt lat="42.418570" lon="2.146790">
        <ele>2775.01</ele>
        <time>2016-07-16T09:15:00Z</time>
      </trkpt>
      <trkpt lat="42.418529" lon="2.146675">
        <ele>2775.01</ele>
        <time>2016-07-16T09:15:04Z</time>
      </trkpt>
      <trkpt lat="42.418461" lon="2.146579">
        <ele>2778.06</ele>
        <time>2016-07-16T09:15:10Z</time>
      </trkpt>
      <trkpt lat="42.418433" lon="2.146460">
        <ele>2779.06</ele>
        <time>2016-07-16T09:15:17Z</time>
      </trkpt>
      <trkpt lat="42.418391" lon="2.146326">
        <ele>2778.04</ele>
        <time>2016-07-16T09:15:24Z</time>
      </trkpt>
      <trkpt lat="42.418355" lon="2.146213">
        <ele>2777.10</ele>
        <time>2016-07-16T09:15:34Z</time>
      </trkpt>
      <trkpt lat="42.418319" lon="2.146097">
        <ele>2776.03</ele>
        <time>2016-07-16T09:15:43Z</time>
      </trkpt>
      <trkpt lat="42.418304" lon="2.145974">
        <ele>2777.05</ele>
        <time>2016-07-16T09:15:49Z</time>
      </trkpt>
      <trkpt lat="42.418278" lon="2.145853">
        <ele>2774.08</ele>
        <time>2016-07-16T09:15:56Z</time>
      </trkpt>
      <trkpt lat="42.418257" lon="2.145720">
        <ele>2774.08</ele>
        <time>2016-07-16T09:16:04Z</time>
      </trkpt>
      <trkpt lat="42.418212" lon="2.145598">
        <ele>2771.07</ele>
        <time>2016-07-16T09:16:13Z</time>
      </trkpt>
      <trkpt lat="42.418185" lon="2.145474">
        <ele>2768.05</ele>
        <time>2016-07-16T09:16:22Z</time>
      </trkpt>
      <trkpt lat="42.418177" lon="2.145347">
        <ele>2767.01</ele>
        <time>2016-07-16T09:16:29Z</time>
      </trkpt>
      <trkpt lat="42.418160" lon="2.145225">
        <ele>2767.02</ele>
        <time>2016-07-16T09:16:37Z</time>
      </trkpt>
      <trkpt lat="42.418110" lon="2.145116">
        <ele>2769.10</ele>
        <time>2016-07-16T09:16:44Z</time>
      </trkpt>
      <trkpt lat="42.418055" lon="2.145009">
        <ele>2766.02</ele>
        <time>2016-07-16T09:16:51Z</time>
      </trkpt>
      <trkpt lat="42.418019" lon="2.144894">
        <ele>2765.05</ele>
        <time>2016-07-16T09:16:59Z</time>
      </trkpt>
      <trkpt lat="42.417995" lon="2.144773">
        <ele>2764.05</ele>
        <time>2016-07-16T09:17:07Z</time>
      </trkpt>
      <trkpt lat="42.417937" lon="2.144666">
        <ele>2778.03</ele>
        <time>2016-07-16T09:17:15Z</time>
      </trkpt>
      <trkpt lat="42.417877" lon="2.144573">
        <ele>2777.06</ele>
        <time>2016-07-16T09:17:19Z</time>
      </trkpt>
      <trkpt lat="42.417796" lon="2.144490">
        <ele>2763.07</ele>
        <time>2016-07-16T09:17:22Z</time>
      </trkpt>
      <trkpt lat="42.417704" lon="2.144425">
        <ele>2769.01</ele>
        <time>2016-07-16T09:17:26Z</time>
      </trkpt>
      <trkpt lat="42.417660" lon="2.144308">
        <ele>2769.07</ele>
        <time>2016-07-16T09:17:29Z</time>
      </trkpt>
      <trkpt lat="42.417612" lon="2.144194">
        <ele>2769.05</ele>
        <time>2016-07-16T09:17:33Z</time>
      </trkpt>
      <trkpt lat="42.417525" lon="2.144250">
        <ele>2776.01</ele>
        <time>2016-07-16T09:17:44Z</time>
      </trkpt>
      <trkpt lat="42.417434" lon="2.144249">
        <ele>2784.01</ele>
        <time>2016-07-16T09:17:57Z</time>
      </trkpt>
      <trkpt lat="42.417353" lon="2.144162">
        <ele>2788.03</ele>
        <time>2016-07-16T09:18:03Z</time>
      </trkpt>
      <trkpt lat="42.417270" lon="2.144069">
        <ele>2792.03</ele>
        <time>2016-07-16T09:18:08Z</time>
      </trkpt>
      <trkpt lat="42.417221" lon="2.143964">
        <ele>2792.03</ele>
        <time>2016-07-16T09:18:12Z</time>
      </trkpt>
      <trkpt lat="42.417147" lon="2.143860">
        <ele>2793.04</ele>
        <time>2016-07-16T09:18:19Z</time>
      </trkpt>
      <trkpt lat="42.417076" lon="2.143767">
        <ele>2794.07</ele>
        <time>2016-07-16T09:21:50Z</time>
      </trkpt>
      <trkpt lat="42.417003" lon="2.143673">
        <ele>2792.09</ele>
        <time>2016-07-16T09:21:58Z</time>
      </trkpt>
      <trkpt lat="42.416943" lon="2.143572">
        <ele>2793.09</ele>
        <time>2016-07-16T09:22:06Z</time>
      </trkpt>
      <trkpt lat="42.416879" lon="2.143483">
        <ele>2793.08</ele>
        <time>2016-07-16T09:22:14Z</time>
      </trkpt>
      <trkpt lat="42.416809" lon="2.143381">
        <ele>2792.01</ele>
        <time>2016-07-16T09:22:22Z</time>
      </trkpt>
      <trkpt lat="42.416751" lon="2.143276">
        <ele>2795.09</ele>
        <time>2016-07-16T09:22:30Z</time>
      </trkpt>
      <trkpt lat="42.416693" lon="2.143180">
        <ele>2799.01</ele>
        <time>2016-07-16T09:22:40Z</time>
      </trkpt>
      <trkpt lat="42.416643" lon="2.143067">
        <ele>2794.02</ele>
        <time>2016-07-16T09:22:52Z</time>
      </trkpt>
      <trkpt lat="42.416567" lon="2.142975">
        <ele>2794.08</ele>
        <time>2016-07-16T09:23:03Z</time>
      </trkpt>
      <trkpt lat="42.416494" lon="2.142876">
        <ele>2791.07</ele>
        <time>2016-07-16T09:23:14Z</time>
      </trkpt>
      <trkpt lat="42.416434" lon="2.142775">
        <ele>2787.09</ele>
        <time>2016-07-16T09:23:23Z</time>
      </trkpt>
      <trkpt lat="42.416373" lon="2.142672">
        <ele>2788.05</ele>
        <time>2016-07-16T09:23:35Z</time>
      </trkpt>
      <trkpt lat="42.416317" lon="2.142565">
        <ele>2786.07</ele>
        <time>2016-07-16T09:23:45Z</time>
      </trkpt>
      <trkpt lat="42.416240" lon="2.142495">
        <ele>2787.04</ele>
        <time>2016-07-16T09:23:55Z</time>
      </trkpt>
      <trkpt lat="42.416146" lon="2.142446">
        <ele>2783.10</ele>
        <time>2016-07-16T09:24:07Z</time>
      </trkpt>
      <trkpt lat="42.416056" lon="2.142453">
        <ele>2780.09</ele>
        <time>2016-07-16T09:24:19Z</time>
      </trkpt>
      <trkpt lat="42.416019" lon="2.142342">
        <ele>2777.03</ele>
        <time>2016-07-16T09:24:53Z</time>
      </trkpt>
      <trkpt lat="42.416052" lon="2.142225">
        <ele>2777.09</ele>
        <time>2016-07-16T09:25:07Z</time>
      </trkpt>
      <trkpt lat="42.416077" lon="2.142108">
        <ele>2777.01</ele>
        <time>2016-07-16T09:25:14Z</time>
      </trkpt>
      <trkpt lat="42.416115" lon="2.141984">
        <ele>2776.02</ele>
        <time>2016-07-16T09:25:21Z</time>
      </trkpt>
      <trkpt lat="42.416130" lon="2.141855">
        <ele>2774.07</ele>
        <time>2016-07-16T09:25:31Z</time>
      </trkpt>
      <trkpt lat="42.416122" lon="2.141726">
        <ele>2772.09</ele>
        <time>2016-07-16T09:25:43Z</time>
      </trkpt>
      <trkpt lat="42.416107" lon="2.141595">
        <ele>2770.07</ele>
        <time>2016-07-16T09:25:55Z</time>
      </trkpt>
      <trkpt lat="42.416115" lon="2.141462">
        <ele>2768.06</ele>
        <time>2016-07-16T09:26:17Z</time>
      </trkpt>
      <trkpt lat="42.416109" lon="2.141322">
        <ele>2766.08</ele>
        <time>2016-07-16T09:26:30Z</time>
      </trkpt>
      <trkpt lat="42.416100" lon="2.141192">
        <ele>2763.07</ele>
        <time>2016-07-16T09:26:39Z</time>
      </trkpt>
      <trkpt lat="42.416076" lon="2.141063">
        <ele>2761.07</ele>
        <time>2016-07-16T09:26:47Z</time>
      </trkpt>
      <trkpt lat="42.416063" lon="2.140932">
        <ele>2760.06</ele>
        <time>2016-07-16T09:26:56Z</time>
      </trkpt>
      <trkpt lat="42.416086" lon="2.140810">
        <ele>2761.09</ele>
        <time>2016-07-16T09:27:03Z</time>
      </trkpt>
      <trkpt lat="42.416115" lon="2.140681">
        <ele>2763.08</ele>
        <time>2016-07-16T09:27:11Z</time>
      </trkpt>
      <trkpt lat="42.416136" lon="2.140555">
        <ele>2765.01</ele>
        <time>2016-07-16T09:27:20Z</time>
      </trkpt>
      <trkpt lat="42.416177" lon="2.140442">
        <ele>2767.02</ele>
        <time>2016-07-16T09:27:31Z</time>
      </trkpt>
      <trkpt lat="42.416236" lon="2.140334">
        <ele>2771.04</ele>
        <time>2016-07-16T09:27:41Z</time>
      </trkpt>
      <trkpt lat="42.416270" lon="2.140209">
        <ele>2771.08</ele>
        <time>2016-07-16T09:27:48Z</time>
      </trkpt>
      <trkpt lat="42.416258" lon="2.140087">
        <ele>2771.06</ele>
        <time>2016-07-16T09:27:57Z</time>
      </trkpt>
      <trkpt lat="42.416228" lon="2.139956">
        <ele>2769.09</ele>
        <time>2016-07-16T09:28:07Z</time>
      </trkpt>
      <trkpt lat="42.416203" lon="2.139832">
        <ele>2769.01</ele>
        <time>2016-07-16T09:28:16Z</time>
      </trkpt>
      <trkpt lat="42.416181" lon="2.139712">
        <ele>2769.02</ele>
        <time>2016-07-16T09:28:24Z</time>
      </trkpt>
      <trkpt lat="42.416188" lon="2.139573">
        <ele>2767.10</ele>
        <time>2016-07-16T09:28:29Z</time>
      </trkpt>
      <trkpt lat="42.416188" lon="2.139447">
        <ele>2765.06</ele>
        <time>2016-07-16T09:28:33Z</time>
      </trkpt>
      <trkpt lat="42.416148" lon="2.139317">
        <ele>2764.01</ele>
        <time>2016-07-16T09:28:37Z</time>
      </trkpt>
      <trkpt lat="42.416145" lon="2.139177">
        <ele>2771.09</ele>
        <time>2016-07-16T09:28:43Z</time>
      </trkpt>
      <trkpt lat="42.416147" lon="2.139053">
        <ele>2769.01</ele>
        <time>2016-07-16T09:28:51Z</time>
      </trkpt>
      <trkpt lat="42.416166" lon="2.138930">
        <ele>2773.02</ele>
        <time>2016-07-16T09:28:59Z</time>
      </trkpt>
      <trkpt lat="42.416135" lon="2.138808">
        <ele>2773.09</ele>
        <time>2016-07-16T09:29:07Z</time>
      </trkpt>
      <trkpt lat="42.416085" lon="2.138690">
        <ele>2773.08</ele>
        <time>2016-07-16T09:29:12Z</time>
      </trkpt>
      <trkpt lat="42.416064" lon="2.138549">
        <ele>2776.04</ele>
        <time>2016-07-16T09:29:17Z</time>
      </trkpt>
      <trkpt lat="42.416032" lon="2.138433">
        <ele>2778.03</ele>
        <time>2016-07-16T09:29:23Z</time>
      </trkpt>
      <trkpt lat="42.416051" lon="2.138300">
        <ele>2780.07</ele>
        <time>2016-07-16T09:29:32Z</time>
      </trkpt>
      <trkpt lat="42.416004" lon="2.138180">
        <ele>2779.06</ele>
        <time>2016-07-16T09:29:39Z</time>
      </trkpt>
      <trkpt lat="42.415953" lon="2.138078">
        <ele>2783.04</ele>
        <time>2016-07-16T09:29:45Z</time>
      </trkpt>
      <trkpt lat="42.415915" lon="2.137944">
        <ele>2784.04</ele>
        <time>2016-07-16T09:29:50Z</time>
      </trkpt>
      <trkpt lat="42.415901" lon="2.137816">
        <ele>2788.05</ele>
        <time>2016-07-16T09:29:56Z</time>
      </trkpt>
      <trkpt lat="42.415901" lon="2.137684">
        <ele>2792.03</ele>
        <time>2016-07-16T09:30:02Z</time>
      </trkpt>
      <trkpt lat="42.415829" lon="2.137601">
        <ele>2794.01</ele>
        <time>2016-07-16T09:30:06Z</time>
      </trkpt>
      <trkpt lat="42.415792" lon="2.137481">
        <ele>2800.01</ele>
        <time>2016-07-16T09:30:14Z</time>
      </trkpt>
      <trkpt lat="42.415710" lon="2.137400">
        <ele>2801.08</ele>
        <time>2016-07-16T09:30:19Z</time>
      </trkpt>
      <trkpt lat="42.415645" lon="2.137310">
        <ele>2802.04</ele>
        <time>2016-07-16T09:30:23Z</time>
      </trkpt>
      <trkpt lat="42.415589" lon="2.137184">
        <ele>2804.05</ele>
        <time>2016-07-16T09:30:28Z</time>
      </trkpt>
      <trkpt lat="42.415560" lon="2.137051">
        <ele>2804.03</ele>
        <time>2016-07-16T09:30:33Z</time>
      </trkpt>
      <trkpt lat="42.415523" lon="2.136939">
        <ele>2804.09</ele>
        <time>2016-07-16T09:30:37Z</time>
      </trkpt>
      <trkpt lat="42.415495" lon="2.136811">
        <ele>2807.07</ele>
        <time>2016-07-16T09:30:42Z</time>
      </trkpt>
      <trkpt lat="42.415438" lon="2.136696">
        <ele>2811.07</ele>
        <time>2016-07-16T09:30:47Z</time>
      </trkpt>
      <trkpt lat="42.415402" lon="2.136576">
        <ele>2813.05</ele>
        <time>2016-07-16T09:30:52Z</time>
      </trkpt>
      <trkpt lat="42.415369" lon="2.136454">
        <ele>2815.09</ele>
        <time>2016-07-16T09:30:58Z</time>
      </trkpt>
      <trkpt lat="42.415335" lon="2.136323">
        <ele>2816.03</ele>
        <time>2016-07-16T09:31:05Z</time>
      </trkpt>
      <trkpt lat="42.415319" lon="2.136193">
        <ele>2816.01</ele>
        <time>2016-07-16T09:31:13Z</time>
      </trkpt>
      <trkpt lat="42.415301" lon="2.136057">
        <ele>2818.01</ele>
        <time>2016-07-16T09:31:21Z</time>
      </trkpt>
      <trkpt lat="42.415274" lon="2.135929">
        <ele>2820.06</ele>
        <time>2016-07-16T09:31:28Z</time>
      </trkpt>
      <trkpt lat="42.415226" lon="2.135811">
        <ele>2823.05</ele>
        <time>2016-07-16T09:31:35Z</time>
      </trkpt>
      <trkpt lat="42.415202" lon="2.135693">
        <ele>2825.09</ele>
        <time>2016-07-16T09:31:43Z</time>
      </trkpt>
      <trkpt lat="42.415194" lon="2.135557">
        <ele>2825.09</ele>
        <time>2016-07-16T09:31:51Z</time>
      </trkpt>
      <trkpt lat="42.415202" lon="2.135432">
        <ele>2822.08</ele>
        <time>2016-07-16T09:31:59Z</time>
      </trkpt>
      <trkpt lat="42.415180" lon="2.135306">
        <ele>2823.07</ele>
        <time>2016-07-16T09:32:07Z</time>
      </trkpt>
      <trkpt lat="42.415125" lon="2.135203">
        <ele>2825.03</ele>
        <time>2016-07-16T09:32:13Z</time>
      </trkpt>
      <trkpt lat="42.415086" lon="2.135087">
        <ele>2824.03</ele>
        <time>2016-07-16T09:32:21Z</time>
      </trkpt>
      <trkpt lat="42.415055" lon="2.134970">
        <ele>2826.03</ele>
        <time>2016-07-16T09:32:29Z</time>
      </trkpt>
      <trkpt lat="42.415023" lon="2.134852">
        <ele>2824.09</ele>
        <time>2016-07-16T09:32:59Z</time>
      </trkpt>
      <trkpt lat="42.415056" lon="2.134723">
        <ele>2824.01</ele>
        <time>2016-07-16T09:33:04Z</time>
      </trkpt>
      <trkpt lat="42.415065" lon="2.134598">
        <ele>2823.01</ele>
        <time>2016-07-16T09:33:08Z</time>
      </trkpt>
      <trkpt lat="42.415059" lon="2.134469">
        <ele>2824.05</ele>
        <time>2016-07-16T09:33:12Z</time>
      </trkpt>
      <trkpt lat="42.414983" lon="2.134374">
        <ele>2826.04</ele>
        <time>2016-07-16T09:33:17Z</time>
      </trkpt>
      <trkpt lat="42.414907" lon="2.134294">
        <ele>2826.09</ele>
        <time>2016-07-16T09:33:24Z</time>
      </trkpt>
      <trkpt lat="42.414856" lon="2.134179">
        <ele>2829.03</ele>
        <time>2016-07-16T09:33:31Z</time>
      </trkpt>
      <trkpt lat="42.414806" lon="2.134073">
        <ele>2831.08</ele>
        <time>2016-07-16T09:33:38Z</time>
      </trkpt>
      <trkpt lat="42.414766" lon="2.133953">
        <ele>2830.01</ele>
        <time>2016-07-16T09:33:47Z</time>
      </trkpt>
      <trkpt lat="42.414709" lon="2.133847">
        <ele>2831.01</ele>
        <time>2016-07-16T09:33:54Z</time>
      </trkpt>
      <trkpt lat="42.414635" lon="2.133755">
        <ele>2832.01</ele>
        <time>2016-07-16T09:34:01Z</time>
      </trkpt>
      <trkpt lat="42.414585" lon="2.133634">
        <ele>2832.05</ele>
        <time>2016-07-16T09:34:08Z</time>
      </trkpt>
      <trkpt lat="42.414496" lon="2.133572">
        <ele>2830.01</ele>
        <time>2016-07-16T09:34:16Z</time>
      </trkpt>
      <trkpt lat="42.414420" lon="2.133492">
        <ele>2830.01</ele>
        <time>2016-07-16T09:34:30Z</time>
      </trkpt>
      <trkpt lat="42.414324" lon="2.133450">
        <ele>2829.02</ele>
        <time>2016-07-16T09:36:18Z</time>
      </trkpt>
      <trkpt lat="42.414286" lon="2.133322">
        <ele>2827.01</ele>
        <time>2016-07-16T09:36:30Z</time>
      </trkpt>
      <trkpt lat="42.414307" lon="2.133199">
        <ele>2826.02</ele>
        <time>2016-07-16T09:36:37Z</time>
      </trkpt>
      <trkpt lat="42.414334" lon="2.133076">
        <ele>2825.03</ele>
        <time>2016-07-16T09:36:44Z</time>
      </trkpt>
      <trkpt lat="42.414380" lon="2.132953">
        <ele>2823.08</ele>
        <time>2016-07-16T09:36:52Z</time>
      </trkpt>
      <trkpt lat="42.414430" lon="2.132849">
        <ele>2822.05</ele>
        <time>2016-07-16T09:37:01Z</time>
      </trkpt>
      <trkpt lat="42.414472" lon="2.132718">
        <ele>2818.08</ele>
        <time>2016-07-16T09:37:16Z</time>
      </trkpt>
      <trkpt lat="42.414520" lon="2.132604">
        <ele>2810.02</ele>
        <time>2016-07-16T09:37:37Z</time>
      </trkpt>
      <trkpt lat="42.414471" lon="2.132501">
        <ele>2806.02</ele>
        <time>2016-07-16T09:37:49Z</time>
      </trkpt>
      <trkpt lat="42.414440" lon="2.132377">
        <ele>2803.01</ele>
        <time>2016-07-16T09:38:05Z</time>
      </trkpt>
      <trkpt lat="42.414352" lon="2.132325">
        <ele>2802.02</ele>
        <time>2016-07-16T09:38:15Z</time>
      </trkpt>
      <trkpt lat="42.414282" lon="2.132240">
        <ele>2802.01</ele>
        <time>2016-07-16T09:38:28Z</time>
      </trkpt>
      <trkpt lat="42.414223" lon="2.132148">
        <ele>2798.02</ele>
        <time>2016-07-16T09:38:38Z</time>
      </trkpt>
      <trkpt lat="42.414152" lon="2.132046">
        <ele>2797.08</ele>
        <time>2016-07-16T09:38:55Z</time>
      </trkpt>
      <trkpt lat="42.414160" lon="2.131915">
        <ele>2796.09</ele>
        <time>2016-07-16T09:39:03Z</time>
      </trkpt>
      <trkpt lat="42.414192" lon="2.131793">
        <ele>2791.08</ele>
        <time>2016-07-16T09:39:18Z</time>
      </trkpt>
      <trkpt lat="42.414126" lon="2.131702">
        <ele>2787.09</ele>
        <time>2016-07-16T09:39:33Z</time>
      </trkpt>
      <trkpt lat="42.414068" lon="2.131594">
        <ele>2785.06</ele>
        <time>2016-07-16T09:39:48Z</time>
      </trkpt>
      <trkpt lat="42.414006" lon="2.131503">
        <ele>2782.07</ele>
        <time>2016-07-16T09:40:03Z</time>
      </trkpt>
      <trkpt lat="42.413943" lon="2.131414">
        <ele>2779.07</ele>
        <time>2016-07-16T09:40:25Z</time>
      </trkpt>
      <trkpt lat="42.413867" lon="2.131332">
        <ele>2774.08</ele>
        <time>2016-07-16T09:40:47Z</time>
      </trkpt>
      <trkpt lat="42.413830" lon="2.131209">
        <ele>2767.03</ele>
        <time>2016-07-16T09:41:23Z</time>
      </trkpt>
      <trkpt lat="42.413747" lon="2.131142">
        <ele>2763.04</ele>
        <time>2016-07-16T09:41:41Z</time>
      </trkpt>
      <trkpt lat="42.413660" lon="2.131079">
        <ele>2761.01</ele>
        <time>2016-07-16T09:41:57Z</time>
      </trkpt>
      <trkpt lat="42.413569" lon="2.131012">
        <ele>2758.01</ele>
        <time>2016-07-16T09:42:11Z</time>
      </trkpt>
      <trkpt lat="42.413496" lon="2.130937">
        <ele>2755.06</ele>
        <time>2016-07-16T09:42:26Z</time>
      </trkpt>
      <trkpt lat="42.413472" lon="2.130810">
        <ele>2752.03</ele>
        <time>2016-07-16T09:42:43Z</time>
      </trkpt>
      <trkpt lat="42.413436" lon="2.130691">
        <ele>2748.05</ele>
        <time>2016-07-16T09:43:02Z</time>
      </trkpt>
      <trkpt lat="42.413400" lon="2.130574">
        <ele>2743.02</ele>
        <time>2016-07-16T09:43:22Z</time>
      </trkpt>
      <trkpt lat="42.413343" lon="2.130472">
        <ele>2740.02</ele>
        <time>2016-07-16T09:43:40Z</time>
      </trkpt>
      <trkpt lat="42.413255" lon="2.130424">
        <ele>2738.02</ele>
        <time>2016-07-16T09:43:51Z</time>
      </trkpt>
      <trkpt lat="42.413212" lon="2.130301">
        <ele>2736.05</ele>
        <time>2016-07-16T09:44:07Z</time>
      </trkpt>
      <trkpt lat="42.413165" lon="2.130189">
        <ele>2733.02</ele>
        <time>2016-07-16T09:44:20Z</time>
      </trkpt>
      <trkpt lat="42.413110" lon="2.130092">
        <ele>2732.04</ele>
        <time>2016-07-16T09:44:28Z</time>
      </trkpt>
      <trkpt lat="42.413102" lon="2.129956">
        <ele>2731.06</ele>
        <time>2016-07-16T09:44:38Z</time>
      </trkpt>
      <trkpt lat="42.413121" lon="2.129831">
        <ele>2730.01</ele>
        <time>2016-07-16T09:44:45Z</time>
      </trkpt>
      <trkpt lat="42.413066" lon="2.129725">
        <ele>2728.02</ele>
        <time>2016-07-16T09:44:52Z</time>
      </trkpt>
      <trkpt lat="42.412988" lon="2.129663">
        <ele>2728.06</ele>
        <time>2016-07-16T09:44:57Z</time>
      </trkpt>
      <trkpt lat="42.412945" lon="2.129544">
        <ele>2727.09</ele>
        <time>2016-07-16T09:45:06Z</time>
      </trkpt>
      <trkpt lat="42.412872" lon="2.129446">
        <ele>2726.05</ele>
        <time>2016-07-16T09:45:14Z</time>
      </trkpt>
      <trkpt lat="42.412840" lon="2.129319">
        <ele>2726.08</ele>
        <time>2016-07-16T09:45:21Z</time>
      </trkpt>
      <trkpt lat="42.412758" lon="2.129239">
        <ele>2727.03</ele>
        <time>2016-07-16T09:45:28Z</time>
      </trkpt>
      <trkpt lat="42.412682" lon="2.129164">
        <ele>2724.08</ele>
        <time>2016-07-16T09:45:35Z</time>
      </trkpt>
      <trkpt lat="42.412593" lon="2.129120">
        <ele>2723.06</ele>
        <time>2016-07-16T09:45:42Z</time>
      </trkpt>
      <trkpt lat="42.412512" lon="2.129036">
        <ele>2724.08</ele>
        <time>2016-07-16T09:45:50Z</time>
      </trkpt>
      <trkpt lat="42.412424" lon="2.128988">
        <ele>2721.03</ele>
        <time>2016-07-16T09:45:57Z</time>
      </trkpt>
      <trkpt lat="42.412336" lon="2.128958">
        <ele>2719.08</ele>
        <time>2016-07-16T09:46:04Z</time>
      </trkpt>
      <trkpt lat="42.412250" lon="2.128893">
        <ele>2719.01</ele>
        <time>2016-07-16T09:46:12Z</time>
      </trkpt>
      <trkpt lat="42.412167" lon="2.128809">
        <ele>2719.02</ele>
        <time>2016-07-16T09:46:19Z</time>
      </trkpt>
      <trkpt lat="42.412074" lon="2.128756">
        <ele>2718.07</ele>
        <time>2016-07-16T09:46:26Z</time>
      </trkpt>
      <trkpt lat="42.411990" lon="2.128683">
        <ele>2717.09</ele>
        <time>2016-07-16T09:46:32Z</time>
      </trkpt>
      <trkpt lat="42.411900" lon="2.128611">
        <ele>2716.05</ele>
        <time>2016-07-16T09:46:41Z</time>
      </trkpt>
      <trkpt lat="42.411825" lon="2.128518">
        <ele>2717.01</ele>
        <time>2016-07-16T09:46:49Z</time>
      </trkpt>
      <trkpt lat="42.411752" lon="2.128422">
        <ele>2719.09</ele>
        <time>2016-07-16T09:46:57Z</time>
      </trkpt>
      <trkpt lat="42.411661" lon="2.128388">
        <ele>2718.06</ele>
        <time>2016-07-16T09:47:07Z</time>
      </trkpt>
      <trkpt lat="42.411568" lon="2.128354">
        <ele>2718.05</ele>
        <time>2016-07-16T09:47:15Z</time>
      </trkpt>
      <trkpt lat="42.411472" lon="2.128306">
        <ele>2718.04</ele>
        <time>2016-07-16T09:47:22Z</time>
      </trkpt>
      <trkpt lat="42.411373" lon="2.128290">
        <ele>2719.03</ele>
        <time>2016-07-16T09:47:30Z</time>
      </trkpt>
      <trkpt lat="42.411278" lon="2.128335">
        <ele>2719.02</ele>
        <time>2016-07-16T09:47:43Z</time>
      </trkpt>
      <trkpt lat="42.411191" lon="2.128372">
        <ele>2718.01</ele>
        <time>2016-07-16T09:47:49Z</time>
      </trkpt>
      <trkpt lat="42.411105" lon="2.128426">
        <ele>2717.01</ele>
        <time>2016-07-16T09:47:56Z</time>
      </trkpt>
      <trkpt lat="42.411013" lon="2.128403">
        <ele>2717.02</ele>
        <time>2016-07-16T09:48:04Z</time>
      </trkpt>
      <trkpt lat="42.410932" lon="2.128349">
        <ele>2716.06</ele>
        <time>2016-07-16T09:48:11Z</time>
      </trkpt>
      <trkpt lat="42.410851" lon="2.128275">
        <ele>2714.09</ele>
        <time>2016-07-16T09:48:21Z</time>
      </trkpt>
      <trkpt lat="42.410808" lon="2.128152">
        <ele>2710.09</ele>
        <time>2016-07-16T09:48:50Z</time>
      </trkpt>
      <trkpt lat="42.410764" lon="2.128037">
        <ele>2709.01</ele>
        <time>2016-07-16T09:48:59Z</time>
      </trkpt>
      <trkpt lat="42.410689" lon="2.127948">
        <ele>2706.04</ele>
        <time>2016-07-16T09:49:15Z</time>
      </trkpt>
      <trkpt lat="42.410645" lon="2.127834">
        <ele>2704.08</ele>
        <time>2016-07-16T09:49:25Z</time>
      </trkpt>
      <trkpt lat="42.410570" lon="2.127763">
        <ele>2700.08</ele>
        <time>2016-07-16T09:49:41Z</time>
      </trkpt>
      <trkpt lat="42.410560" lon="2.127641">
        <ele>2697.09</ele>
        <time>2016-07-16T09:49:51Z</time>
      </trkpt>
      <trkpt lat="42.410534" lon="2.127519">
        <ele>2695.02</ele>
        <time>2016-07-16T09:50:13Z</time>
      </trkpt>
      <trkpt lat="42.410498" lon="2.127385">
        <ele>2693.01</ele>
        <time>2016-07-16T09:50:26Z</time>
      </trkpt>
      <trkpt lat="42.410473" lon="2.127261">
        <ele>2691.03</ele>
        <time>2016-07-16T09:50:36Z</time>
      </trkpt>
      <trkpt lat="42.410394" lon="2.127195">
        <ele>2689.01</ele>
        <time>2016-07-16T09:50:54Z</time>
      </trkpt>
      <trkpt lat="42.410342" lon="2.127080">
        <ele>2686.08</ele>
        <time>2016-07-16T09:51:03Z</time>
      </trkpt>
      <trkpt lat="42.410340" lon="2.126956">
        <ele>2685.06</ele>
        <time>2016-07-16T09:51:13Z</time>
      </trkpt>
      <trkpt lat="42.410264" lon="2.126886">
        <ele>2680.02</ele>
        <time>2016-07-16T09:51:27Z</time>
      </trkpt>
      <trkpt lat="42.410212" lon="2.126770">
        <ele>2678.09</ele>
        <time>2016-07-16T09:51:39Z</time>
      </trkpt>
      <trkpt lat="42.410190" lon="2.126640">
        <ele>2676.02</ele>
        <time>2016-07-16T09:51:52Z</time>
      </trkpt>
      <trkpt lat="42.410137" lon="2.126520">
        <ele>2673.02</ele>
        <time>2016-07-16T09:52:08Z</time>
      </trkpt>
      <trkpt lat="42.410108" lon="2.126395">
        <ele>2670.09</ele>
        <time>2016-07-16T09:52:24Z</time>
      </trkpt>
      <trkpt lat="42.410065" lon="2.126280">
        <ele>2667.08</ele>
        <time>2016-07-16T09:52:38Z</time>
      </trkpt>
      <trkpt lat="42.410005" lon="2.126164">
        <ele>2665.05</ele>
        <time>2016-07-16T09:52:50Z</time>
      </trkpt>
      <trkpt lat="42.409954" lon="2.126046">
        <ele>2661.01</ele>
        <time>2016-07-16T09:53:13Z</time>
      </trkpt>
      <trkpt lat="42.409933" lon="2.125917">
        <ele>2658.02</ele>
        <time>2016-07-16T09:53:27Z</time>
      </trkpt>
      <trkpt lat="42.409896" lon="2.125797">
        <ele>2654.03</ele>
        <time>2016-07-16T09:53:42Z</time>
      </trkpt>
      <trkpt lat="42.409813" lon="2.125733">
        <ele>2651.08</ele>
        <time>2016-07-16T09:54:04Z</time>
      </trkpt>
      <trkpt lat="42.409744" lon="2.125642">
        <ele>2648.07</ele>
        <time>2016-07-16T09:54:24Z</time>
      </trkpt>
      <trkpt lat="42.409647" lon="2.125584">
        <ele>2644.07</ele>
        <time>2016-07-16T09:54:39Z</time>
      </trkpt>
      <trkpt lat="42.409558" lon="2.125492">
        <ele>2642.06</ele>
        <time>2016-07-16T09:54:49Z</time>
      </trkpt>
      <trkpt lat="42.409473" lon="2.125427">
        <ele>2637.02</ele>
        <time>2016-07-16T09:55:18Z</time>
      </trkpt>
      <trkpt lat="42.409377" lon="2.125409">
        <ele>2635.04</ele>
        <time>2016-07-16T09:55:34Z</time>
      </trkpt>
      <trkpt lat="42.409321" lon="2.125513">
        <ele>2632.06</ele>
        <time>2016-07-16T09:55:44Z</time>
      </trkpt>
      <trkpt lat="42.409243" lon="2.125437">
        <ele>2630.03</ele>
        <time>2016-07-16T09:55:58Z</time>
      </trkpt>
      <trkpt lat="42.409193" lon="2.125315">
        <ele>2626.07</ele>
        <time>2016-07-16T09:56:15Z</time>
      </trkpt>
      <trkpt lat="42.409126" lon="2.125216">
        <ele>2622.01</ele>
        <time>2016-07-16T09:56:34Z</time>
      </trkpt>
      <trkpt lat="42.409045" lon="2.125145">
        <ele>2618.01</ele>
        <time>2016-07-16T09:56:52Z</time>
      </trkpt>
      <trkpt lat="42.408965" lon="2.125090">
        <ele>2616.07</ele>
        <time>2016-07-16T09:57:10Z</time>
      </trkpt>
      <trkpt lat="42.408876" lon="2.125023">
        <ele>2614.03</ele>
        <time>2016-07-16T09:57:25Z</time>
      </trkpt>
      <trkpt lat="42.408776" lon="2.125001">
        <ele>2613.02</ele>
        <time>2016-07-16T09:57:33Z</time>
      </trkpt>
      <trkpt lat="42.408684" lon="2.125011">
        <ele>2613.09</ele>
        <time>2016-07-16T09:57:40Z</time>
      </trkpt>
      <trkpt lat="42.408584" lon="2.124977">
        <ele>2617.10</ele>
        <time>2016-07-16T09:59:01Z</time>
      </trkpt>
      <trkpt lat="42.408485" lon="2.124947">
        <ele>2615.09</ele>
        <time>2016-07-16T10:00:25Z</time>
      </trkpt>
      <trkpt lat="42.408461" lon="2.124864">
        <ele>2618.07</ele>
        <time>2016-05-28T11:09:08Z</time>
      </trkpt>
      <trkpt lat="42.408392" lon="2.124982">
        <ele>2596.04</ele>
        <time>2016-05-28T11:14:02Z</time>
      </trkpt>
      <trkpt lat="42.408297" lon="2.125069">
        <ele>2593.02</ele>
        <time>2016-05-28T11:14:08Z</time>
      </trkpt>
      <trkpt lat="42.408207" lon="2.125092">
        <ele>2592.06</ele>
        <time>2016-05-28T11:14:11Z</time>
      </trkpt>
      <trkpt lat="42.408116" lon="2.125074">
        <ele>2591.07</ele>
        <time>2016-05-28T11:14:14Z</time>
      </trkpt>
      <trkpt lat="42.408009" lon="2.125071">
        <ele>2589.08</ele>
        <time>2016-05-28T11:14:18Z</time>
      </trkpt>
      <trkpt lat="42.407894" lon="2.125089">
        <ele>2588.08</ele>
        <time>2016-05-28T11:14:22Z</time>
      </trkpt>
      <trkpt lat="42.407789" lon="2.125118">
        <ele>2586.05</ele>
        <time>2016-05-28T11:14:26Z</time>
      </trkpt>
      <trkpt lat="42.407684" lon="2.125180">
        <ele>2584.05</ele>
        <time>2016-05-28T11:14:30Z</time>
      </trkpt>
      <trkpt lat="42.407579" lon="2.125225">
        <ele>2581.01</ele>
        <time>2016-05-28T11:14:35Z</time>
      </trkpt>
      <trkpt lat="42.407466" lon="2.125247">
        <ele>2577.01</ele>
        <time>2016-05-28T11:14:40Z</time>
      </trkpt>
      <trkpt lat="42.407355" lon="2.125263">
        <ele>2575.07</ele>
        <time>2016-05-28T11:14:44Z</time>
      </trkpt>
      <trkpt lat="42.407259" lon="2.125308">
        <ele>2574.10</ele>
        <time>2016-05-28T11:14:48Z</time>
      </trkpt>
      <trkpt lat="42.407164" lon="2.125345">
        <ele>2572.08</ele>
        <time>2016-05-28T11:14:52Z</time>
      </trkpt>
      <trkpt lat="42.407066" lon="2.125359">
        <ele>2571.04</ele>
        <time>2016-05-28T11:14:56Z</time>
      </trkpt>
      <trkpt lat="42.406975" lon="2.125378">
        <ele>2570.04</ele>
        <time>2016-05-28T11:15:00Z</time>
      </trkpt>
      <trkpt lat="42.406869" lon="2.125384">
        <ele>2570.06</ele>
        <time>2016-05-28T11:15:04Z</time>
      </trkpt>
      <trkpt lat="42.406768" lon="2.125421">
        <ele>2570.05</ele>
        <time>2016-05-28T11:15:08Z</time>
      </trkpt>
      <trkpt lat="42.406679" lon="2.125469">
        <ele>2567.09</ele>
        <time>2016-05-28T11:15:14Z</time>
      </trkpt>
      <trkpt lat="42.406623" lon="2.125578">
        <ele>2566.05</ele>
        <time>2016-05-28T11:15:18Z</time>
      </trkpt>
      <trkpt lat="42.406553" lon="2.125690">
        <ele>2565.01</ele>
        <time>2016-05-28T11:15:22Z</time>
      </trkpt>
      <trkpt lat="42.406511" lon="2.125802">
        <ele>2564.02</ele>
        <time>2016-05-28T11:15:26Z</time>
      </trkpt>
      <trkpt lat="42.406472" lon="2.125939">
        <ele>2563.01</ele>
        <time>2016-05-28T11:15:30Z</time>
      </trkpt>
      <trkpt lat="42.406391" lon="2.126028">
        <ele>2563.09</ele>
        <time>2016-05-28T11:15:34Z</time>
      </trkpt>
      <trkpt lat="42.406292" lon="2.126101">
        <ele>2561.04</ele>
        <time>2016-05-28T11:15:39Z</time>
      </trkpt>
      <trkpt lat="42.406201" lon="2.126121">
        <ele>2560.07</ele>
        <time>2016-05-28T11:15:43Z</time>
      </trkpt>
      <trkpt lat="42.406089" lon="2.126132">
        <ele>2557.03</ele>
        <time>2016-05-28T11:15:54Z</time>
      </trkpt>
      <trkpt lat="42.405997" lon="2.126178">
        <ele>2555.06</ele>
        <time>2016-05-28T11:16:00Z</time>
      </trkpt>
      <trkpt lat="42.405888" lon="2.126262">
        <ele>2552.07</ele>
        <time>2016-05-28T11:16:04Z</time>
      </trkpt>
      <trkpt lat="42.405785" lon="2.126343">
        <ele>2548.04</ele>
        <time>2016-05-28T11:16:09Z</time>
      </trkpt>
      <trkpt lat="42.405711" lon="2.126445">
        <ele>2546.04</ele>
        <time>2016-05-28T11:16:11Z</time>
      </trkpt>
      <trkpt lat="42.405641" lon="2.126525">
        <ele>2545.05</ele>
        <time>2016-05-28T11:16:14Z</time>
      </trkpt>
      <trkpt lat="42.405548" lon="2.126597">
        <ele>2545.00</ele>
        <time>2016-05-28T11:16:19Z</time>
      </trkpt>
      <trkpt lat="42.405454" lon="2.126628">
        <ele>2544.01</ele>
        <time>2016-05-28T11:16:23Z</time>
      </trkpt>
      <trkpt lat="42.405350" lon="2.126696">
        <ele>2543.01</ele>
        <time>2016-05-28T11:16:27Z</time>
      </trkpt>
      <trkpt lat="42.405259" lon="2.126754">
        <ele>2541.10</ele>
        <time>2016-05-28T11:16:30Z</time>
      </trkpt>
      <trkpt lat="42.405177" lon="2.126805">
        <ele>2540.06</ele>
        <time>2016-05-28T11:16:33Z</time>
      </trkpt>
      <trkpt lat="42.405092" lon="2.126891">
        <ele>2539.05</ele>
        <time>2016-05-28T11:16:37Z</time>
      </trkpt>
      <trkpt lat="42.404989" lon="2.126924">
        <ele>2539.05</ele>
        <time>2016-05-28T11:16:41Z</time>
      </trkpt>
      <trkpt lat="42.404890" lon="2.126956">
        <ele>2537.08</ele>
        <time>2016-05-28T11:16:48Z</time>
      </trkpt>
      <trkpt lat="42.404791" lon="2.126990">
        <ele>2535.01</ele>
        <time>2016-05-28T11:16:54Z</time>
      </trkpt>
      <trkpt lat="42.404690" lon="2.127063">
        <ele>2534.08</ele>
        <time>2016-05-28T11:16:58Z</time>
      </trkpt>
      <trkpt lat="42.404595" lon="2.127135">
        <ele>2533.10</ele>
        <time>2016-05-28T11:17:02Z</time>
      </trkpt>
      <trkpt lat="42.404505" lon="2.127229">
        <ele>2531.05</ele>
        <time>2016-05-28T11:17:07Z</time>
      </trkpt>
      <trkpt lat="42.404444" lon="2.127337">
        <ele>2530.09</ele>
        <time>2016-05-28T11:17:09Z</time>
      </trkpt>
      <trkpt lat="42.404390" lon="2.127447">
        <ele>2529.02</ele>
        <time>2016-05-28T11:17:14Z</time>
      </trkpt>
      <trkpt lat="42.404307" lon="2.127518">
        <ele>2528.01</ele>
        <time>2016-05-28T11:17:18Z</time>
      </trkpt>
      <trkpt lat="42.404184" lon="2.127576">
        <ele>2529.09</ele>
        <time>2016-05-28T11:17:22Z</time>
      </trkpt>
      <trkpt lat="42.404110" lon="2.127650">
        <ele>2529.10</ele>
        <time>2016-05-28T11:17:27Z</time>
      </trkpt>
      <trkpt lat="42.404075" lon="2.127775">
        <ele>2528.05</ele>
        <time>2016-05-28T11:17:31Z</time>
      </trkpt>
      <trkpt lat="42.404028" lon="2.127884">
        <ele>2528.07</ele>
        <time>2016-05-28T11:17:35Z</time>
      </trkpt>
      <trkpt lat="42.403969" lon="2.127980">
        <ele>2526.06</ele>
        <time>2016-05-28T11:17:39Z</time>
      </trkpt>
      <trkpt lat="42.403891" lon="2.128071">
        <ele>2526.01</ele>
        <time>2016-05-28T11:17:42Z</time>
      </trkpt>
      <trkpt lat="42.403804" lon="2.128172">
        <ele>2525.05</ele>
        <time>2016-05-28T11:17:47Z</time>
      </trkpt>
      <trkpt lat="42.403775" lon="2.128347">
        <ele>2526.05</ele>
        <time>2016-05-28T11:17:51Z</time>
      </trkpt>
      <trkpt lat="42.403825" lon="2.128468">
        <ele>2523.02</ele>
        <time>2016-05-28T11:17:56Z</time>
      </trkpt>
      <trkpt lat="42.403916" lon="2.128521">
        <ele>2521.06</ele>
        <time>2016-05-28T11:17:59Z</time>
      </trkpt>
      <trkpt lat="42.404005" lon="2.128551">
        <ele>2518.01</ele>
        <time>2016-05-28T11:18:02Z</time>
      </trkpt>
      <trkpt lat="42.404110" lon="2.128551">
        <ele>2517.01</ele>
        <time>2016-05-28T11:18:05Z</time>
      </trkpt>
      <trkpt lat="42.404199" lon="2.128491">
        <ele>2516.02</ele>
        <time>2016-05-28T11:18:09Z</time>
      </trkpt>
      <trkpt lat="42.404305" lon="2.128414">
        <ele>2514.03</ele>
        <time>2016-05-28T11:18:13Z</time>
      </trkpt>
      <trkpt lat="42.404389" lon="2.128361">
        <ele>2513.07</ele>
        <time>2016-05-28T11:18:16Z</time>
      </trkpt>
      <trkpt lat="42.404497" lon="2.128267">
        <ele>2512.02</ele>
        <time>2016-05-28T11:18:21Z</time>
      </trkpt>
      <trkpt lat="42.404598" lon="2.128221">
        <ele>2510.07</ele>
        <time>2016-05-28T11:18:27Z</time>
      </trkpt>
      <trkpt lat="42.404703" lon="2.128165">
        <ele>2510.07</ele>
        <time>2016-05-28T11:18:31Z</time>
      </trkpt>
      <trkpt lat="42.404790" lon="2.128075">
        <ele>2508.07</ele>
        <time>2016-05-28T11:18:35Z</time>
      </trkpt>
      <trkpt lat="42.404877" lon="2.128020">
        <ele>2507.08</ele>
        <time>2016-05-28T11:18:40Z</time>
      </trkpt>
      <trkpt lat="42.404982" lon="2.127962">
        <ele>2505.06</ele>
        <time>2016-05-28T11:18:47Z</time>
      </trkpt>
      <trkpt lat="42.405075" lon="2.127931">
        <ele>2504.04</ele>
        <time>2016-05-28T11:18:51Z</time>
      </trkpt>
      <trkpt lat="42.405188" lon="2.127929">
        <ele>2503.02</ele>
        <time>2016-05-28T11:18:55Z</time>
      </trkpt>
      <trkpt lat="42.405295" lon="2.127952">
        <ele>2502.01</ele>
        <time>2016-05-28T11:18:58Z</time>
      </trkpt>
      <trkpt lat="42.405388" lon="2.127999">
        <ele>2501.02</ele>
        <time>2016-05-28T11:19:02Z</time>
      </trkpt>
      <trkpt lat="42.405480" lon="2.127932">
        <ele>2499.08</ele>
        <time>2016-05-28T11:19:07Z</time>
      </trkpt>
      <trkpt lat="42.405555" lon="2.127852">
        <ele>2498.07</ele>
        <time>2016-05-28T11:19:11Z</time>
      </trkpt>
      <trkpt lat="42.405651" lon="2.127824">
        <ele>2497.08</ele>
        <time>2016-05-28T11:19:15Z</time>
      </trkpt>
      <trkpt lat="42.405740" lon="2.127883">
        <ele>2492.03</ele>
        <time>2016-05-28T11:19:25Z</time>
      </trkpt>
      <trkpt lat="42.405857" lon="2.127916">
        <ele>2491.03</ele>
        <time>2016-05-28T11:19:32Z</time>
      </trkpt>
      <trkpt lat="42.405953" lon="2.127947">
        <ele>2490.01</ele>
        <time>2016-05-28T11:19:34Z</time>
      </trkpt>
      <trkpt lat="42.406039" lon="2.127982">
        <ele>2488.04</ele>
        <time>2016-05-28T11:19:37Z</time>
      </trkpt>
      <trkpt lat="42.406157" lon="2.127942">
        <ele>2486.08</ele>
        <time>2016-05-28T11:19:45Z</time>
      </trkpt>
      <trkpt lat="42.406247" lon="2.127906">
        <ele>2484.09</ele>
        <time>2016-05-28T11:19:50Z</time>
      </trkpt>
      <trkpt lat="42.406342" lon="2.127910">
        <ele>2483.02</ele>
        <time>2016-05-28T11:19:55Z</time>
      </trkpt>
      <trkpt lat="42.406457" lon="2.127934">
        <ele>2482.01</ele>
        <time>2016-05-28T11:20:02Z</time>
      </trkpt>
      <trkpt lat="42.406552" lon="2.127958">
        <ele>2481.09</ele>
        <time>2016-05-28T11:20:05Z</time>
      </trkpt>
      <trkpt lat="42.406643" lon="2.127999">
        <ele>2480.09</ele>
        <time>2016-05-28T11:20:09Z</time>
      </trkpt>
      <trkpt lat="42.406558" lon="2.128055">
        <ele>2477.07</ele>
        <time>2016-05-28T11:20:15Z</time>
      </trkpt>
      <trkpt lat="42.406459" lon="2.128119">
        <ele>2475.09</ele>
        <time>2016-05-28T11:20:20Z</time>
      </trkpt>
      <trkpt lat="42.406371" lon="2.128187">
        <ele>2473.05</ele>
        <time>2016-05-28T11:20:24Z</time>
      </trkpt>
      <trkpt lat="42.406299" lon="2.128261">
        <ele>2471.09</ele>
        <time>2016-05-28T11:20:28Z</time>
      </trkpt>
      <trkpt lat="42.406234" lon="2.128362">
        <ele>2470.02</ele>
        <time>2016-05-28T11:20:32Z</time>
      </trkpt>
      <trkpt lat="42.406151" lon="2.128469">
        <ele>2469.07</ele>
        <time>2016-05-28T11:20:37Z</time>
      </trkpt>
      <trkpt lat="42.406069" lon="2.128543">
        <ele>2466.02</ele>
        <time>2016-05-28T11:20:43Z</time>
      </trkpt>
      <trkpt lat="42.405993" lon="2.128640">
        <ele>2466.06</ele>
        <time>2016-05-28T11:20:48Z</time>
      </trkpt>
      <trkpt lat="42.405940" lon="2.128763">
        <ele>2464.01</ele>
        <time>2016-05-28T11:20:52Z</time>
      </trkpt>
      <trkpt lat="42.405878" lon="2.128872">
        <ele>2462.01</ele>
        <time>2016-05-28T11:20:57Z</time>
      </trkpt>
      <trkpt lat="42.405835" lon="2.128991">
        <ele>2460.03</ele>
        <time>2016-05-28T11:21:01Z</time>
      </trkpt>
      <trkpt lat="42.405792" lon="2.129099">
        <ele>2458.05</ele>
        <time>2016-05-28T11:21:05Z</time>
      </trkpt>
      <trkpt lat="42.405770" lon="2.129242">
        <ele>2455.05</ele>
        <time>2016-05-28T11:21:09Z</time>
      </trkpt>
      <trkpt lat="42.405854" lon="2.129314">
        <ele>2453.09</ele>
        <time>2016-05-28T11:21:13Z</time>
      </trkpt>
      <trkpt lat="42.405947" lon="2.129318">
        <ele>2453.02</ele>
        <time>2016-05-28T11:21:16Z</time>
      </trkpt>
      <trkpt lat="42.406049" lon="2.129326">
        <ele>2451.09</ele>
        <time>2016-05-28T11:21:19Z</time>
      </trkpt>
      <trkpt lat="42.406151" lon="2.129304">
        <ele>2450.05</ele>
        <time>2016-05-28T11:21:23Z</time>
      </trkpt>
      <trkpt lat="42.406260" lon="2.129297">
        <ele>2448.04</ele>
        <time>2016-05-28T11:21:28Z</time>
      </trkpt>
      <trkpt lat="42.406366" lon="2.129297">
        <ele>2444.05</ele>
        <time>2016-05-28T11:21:35Z</time>
      </trkpt>
      <trkpt lat="42.406487" lon="2.129290">
        <ele>2442.00</ele>
        <time>2016-05-28T11:21:39Z</time>
      </trkpt>
      <trkpt lat="42.406419" lon="2.129403">
        <ele>2438.01</ele>
        <time>2016-05-28T11:21:55Z</time>
      </trkpt>
      <trkpt lat="42.406359" lon="2.129511">
        <ele>2436.01</ele>
        <time>2016-05-28T11:21:59Z</time>
      </trkpt>
      <trkpt lat="42.406354" lon="2.129664">
        <ele>2433.05</ele>
        <time>2016-05-28T11:22:03Z</time>
      </trkpt>
      <trkpt lat="42.406337" lon="2.129821">
        <ele>2430.10</ele>
        <time>2016-05-28T11:22:07Z</time>
      </trkpt>
      <trkpt lat="42.406300" lon="2.129990">
        <ele>2425.04</ele>
        <time>2016-05-28T11:22:13Z</time>
      </trkpt>
      <trkpt lat="42.406233" lon="2.130109">
        <ele>2424.05</ele>
        <time>2016-05-28T11:22:18Z</time>
      </trkpt>
      <trkpt lat="42.406148" lon="2.130069">
        <ele>2421.02</ele>
        <time>2016-05-28T11:22:26Z</time>
      </trkpt>
      <trkpt lat="42.406210" lon="2.130192">
        <ele>2419.01</ele>
        <time>2016-05-28T11:22:31Z</time>
      </trkpt>
      <trkpt lat="42.406300" lon="2.130190">
        <ele>2418.03</ele>
        <time>2016-05-28T11:22:34Z</time>
      </trkpt>
      <trkpt lat="42.406405" lon="2.130157">
        <ele>2417.08</ele>
        <time>2016-05-28T11:22:37Z</time>
      </trkpt>
      <trkpt lat="42.406499" lon="2.130157">
        <ele>2416.07</ele>
        <time>2016-05-28T11:22:41Z</time>
      </trkpt>
      <trkpt lat="42.406573" lon="2.130239">
        <ele>2413.04</ele>
        <time>2016-05-28T11:22:48Z</time>
      </trkpt>
      <trkpt lat="42.406475" lon="2.130273">
        <ele>2411.01</ele>
        <time>2016-05-28T11:22:55Z</time>
      </trkpt>
      <trkpt lat="42.406427" lon="2.130379">
        <ele>2404.01</ele>
        <time>2016-05-28T11:23:34Z</time>
      </trkpt>
      <trkpt lat="42.406484" lon="2.130485">
        <ele>2404.07</ele>
        <time>2016-05-28T11:23:39Z</time>
      </trkpt>
      <trkpt lat="42.406557" lon="2.130601">
        <ele>2401.09</ele>
        <time>2016-05-28T11:23:44Z</time>
      </trkpt>
      <trkpt lat="42.406615" lon="2.130704">
        <ele>2399.03</ele>
        <time>2016-05-28T11:23:49Z</time>
      </trkpt>
      <trkpt lat="42.406703" lon="2.130774">
        <ele>2396.06</ele>
        <time>2016-05-28T11:23:55Z</time>
      </trkpt>
      <trkpt lat="42.406800" lon="2.130868">
        <ele>2397.02</ele>
        <time>2016-05-28T11:24:01Z</time>
      </trkpt>
      <trkpt lat="42.406904" lon="2.130942">
        <ele>2396.06</ele>
        <time>2016-05-28T11:24:06Z</time>
      </trkpt>
      <trkpt lat="42.406943" lon="2.131067">
        <ele>2394.03</ele>
        <time>2016-05-28T11:24:12Z</time>
      </trkpt>
      <trkpt lat="42.406992" lon="2.131236">
        <ele>2391.10</ele>
        <time>2016-05-28T11:24:16Z</time>
      </trkpt>
      <trkpt lat="42.406955" lon="2.131385">
        <ele>2388.01</ele>
        <time>2016-05-28T11:24:21Z</time>
      </trkpt>
      <trkpt lat="42.406886" lon="2.131466">
        <ele>2386.07</ele>
        <time>2016-05-28T11:24:24Z</time>
      </trkpt>
      <trkpt lat="42.406802" lon="2.131543">
        <ele>2385.01</ele>
        <time>2016-05-28T11:24:28Z</time>
      </trkpt>
      <trkpt lat="42.406789" lon="2.131677">
        <ele>2383.01</ele>
        <time>2016-05-28T11:24:37Z</time>
      </trkpt>
      <trkpt lat="42.406720" lon="2.131760">
        <ele>2381.03</ele>
        <time>2016-05-28T11:24:43Z</time>
      </trkpt>
      <trkpt lat="42.406659" lon="2.131850">
        <ele>2382.02</ele>
        <time>2016-05-28T11:24:48Z</time>
      </trkpt>
      <trkpt lat="42.406584" lon="2.131960">
        <ele>2383.05</ele>
        <time>2016-05-28T11:24:52Z</time>
      </trkpt>
      <trkpt lat="42.406546" lon="2.132088">
        <ele>2383.08</ele>
        <time>2016-05-28T11:24:55Z</time>
      </trkpt>
      <trkpt lat="42.406468" lon="2.132247">
        <ele>2384.07</ele>
        <time>2016-05-28T11:24:59Z</time>
      </trkpt>
      <trkpt lat="42.406380" lon="2.132350">
        <ele>2384.07</ele>
        <time>2016-05-28T11:25:04Z</time>
      </trkpt>
      <trkpt lat="42.406317" lon="2.132479">
        <ele>2385.07</ele>
        <time>2016-05-28T11:25:09Z</time>
      </trkpt>
      <trkpt lat="42.406248" lon="2.132601">
        <ele>2385.06</ele>
        <time>2016-05-28T11:25:19Z</time>
      </trkpt>
      <trkpt lat="42.406216" lon="2.132718">
        <ele>2386.04</ele>
        <time>2016-05-28T11:25:34Z</time>
      </trkpt>
      <trkpt lat="42.406187" lon="2.132841">
        <ele>2386.02</ele>
        <time>2016-05-28T11:25:40Z</time>
      </trkpt>
      <trkpt lat="42.406181" lon="2.132989">
        <ele>2387.02</ele>
        <time>2016-05-28T11:26:10Z</time>
      </trkpt>
      <trkpt lat="42.406150" lon="2.133104">
        <ele>2388.01</ele>
        <time>2016-05-28T11:26:14Z</time>
      </trkpt>
      <trkpt lat="42.406116" lon="2.133251">
        <ele>2388.01</ele>
        <time>2016-05-28T11:26:18Z</time>
      </trkpt>
      <trkpt lat="42.406095" lon="2.133373">
        <ele>2388.05</ele>
        <time>2016-05-28T11:26:21Z</time>
      </trkpt>
      <trkpt lat="42.406065" lon="2.133499">
        <ele>2389.02</ele>
        <time>2016-05-28T11:26:27Z</time>
      </trkpt>
      <trkpt lat="42.406038" lon="2.133638">
        <ele>2389.07</ele>
        <time>2016-05-28T11:26:31Z</time>
      </trkpt>
      <trkpt lat="42.406010" lon="2.133810">
        <ele>2390.03</ele>
        <time>2016-05-28T11:26:36Z</time>
      </trkpt>
      <trkpt lat="42.405965" lon="2.133958">
        <ele>2390.02</ele>
        <time>2016-05-28T11:26:41Z</time>
      </trkpt>
      <trkpt lat="42.405920" lon="2.134111">
        <ele>2390.06</ele>
        <time>2016-05-28T11:26:46Z</time>
      </trkpt>
      <trkpt lat="42.405854" lon="2.134255">
        <ele>2390.06</ele>
        <time>2016-05-28T11:26:53Z</time>
      </trkpt>
      <trkpt lat="42.405833" lon="2.134375">
        <ele>2389.03</ele>
        <time>2016-05-28T11:28:01Z</time>
      </trkpt>
      <trkpt lat="42.405907" lon="2.134455">
        <ele>2386.05</ele>
        <time>2016-05-28T11:28:11Z</time>
      </trkpt>
      <trkpt lat="42.405999" lon="2.134535">
        <ele>2384.01</ele>
        <time>2016-05-28T11:28:22Z</time>
      </trkpt>
      <trkpt lat="42.406076" lon="2.134605">
        <ele>2381.01</ele>
        <time>2016-05-28T11:28:30Z</time>
      </trkpt>
      <trkpt lat="42.406153" lon="2.134685">
        <ele>2378.07</ele>
        <time>2016-05-28T11:28:37Z</time>
      </trkpt>
      <trkpt lat="42.406224" lon="2.134775">
        <ele>2374.01</ele>
        <time>2016-05-28T11:28:45Z</time>
      </trkpt>
      <trkpt lat="42.406256" lon="2.134897">
        <ele>2372.02</ele>
        <time>2016-05-28T11:28:52Z</time>
      </trkpt>
      <trkpt lat="42.406316" lon="2.134999">
        <ele>2366.05</ele>
        <time>2016-05-28T11:29:04Z</time>
      </trkpt>
      <trkpt lat="42.406235" lon="2.135064">
        <ele>2365.08</ele>
        <time>2016-05-28T11:29:10Z</time>
      </trkpt>
      <trkpt lat="42.406137" lon="2.135076">
        <ele>2363.04</ele>
        <time>2016-05-28T11:29:16Z</time>
      </trkpt>
      <trkpt lat="42.406043" lon="2.135143">
        <ele>2360.09</ele>
        <time>2016-05-28T11:29:22Z</time>
      </trkpt>
      <trkpt lat="42.405969" lon="2.135226">
        <ele>2358.06</ele>
        <time>2016-05-28T11:29:28Z</time>
      </trkpt>
      <trkpt lat="42.405915" lon="2.135327">
        <ele>2357.01</ele>
        <time>2016-05-28T11:29:35Z</time>
      </trkpt>
      <trkpt lat="42.405861" lon="2.135434">
        <ele>2355.05</ele>
        <time>2016-05-28T11:29:42Z</time>
      </trkpt>
      <trkpt lat="42.405967" lon="2.135430">
        <ele>2352.01</ele>
        <time>2016-05-28T11:29:49Z</time>
      </trkpt>
      <trkpt lat="42.406069" lon="2.135464">
        <ele>2348.01</ele>
        <time>2016-05-28T11:29:57Z</time>
      </trkpt>
      <trkpt lat="42.406150" lon="2.135544">
        <ele>2345.02</ele>
        <time>2016-05-28T11:30:02Z</time>
      </trkpt>
      <trkpt lat="42.406096" lon="2.135655">
        <ele>2342.08</ele>
        <time>2016-05-28T11:30:10Z</time>
      </trkpt>
      <trkpt lat="42.406003" lon="2.135762">
        <ele>2340.09</ele>
        <time>2016-05-28T11:30:15Z</time>
      </trkpt>
      <trkpt lat="42.405915" lon="2.135839">
        <ele>2337.05</ele>
        <time>2016-05-28T11:30:19Z</time>
      </trkpt>
      <trkpt lat="42.405847" lon="2.135946">
        <ele>2336.06</ele>
        <time>2016-05-28T11:30:24Z</time>
      </trkpt>
      <trkpt lat="42.405943" lon="2.136000">
        <ele>2331.08</ele>
        <time>2016-05-28T11:30:37Z</time>
      </trkpt>
      <trkpt lat="42.406039" lon="2.136032">
        <ele>2329.03</ele>
        <time>2016-05-28T11:30:42Z</time>
      </trkpt>
      <trkpt lat="42.406128" lon="2.136096">
        <ele>2325.04</ele>
        <time>2016-05-28T11:30:51Z</time>
      </trkpt>
      <trkpt lat="42.406148" lon="2.136216">
        <ele>2322.04</ele>
        <time>2016-05-28T11:30:56Z</time>
      </trkpt>
      <trkpt lat="42.406191" lon="2.136344">
        <ele>2318.02</ele>
        <time>2016-05-28T11:31:03Z</time>
      </trkpt>
      <trkpt lat="42.406220" lon="2.136464">
        <ele>2316.01</ele>
        <time>2016-05-28T11:31:08Z</time>
      </trkpt>
      <trkpt lat="42.406241" lon="2.136601">
        <ele>2312.01</ele>
        <time>2016-05-28T11:31:16Z</time>
      </trkpt>
      <trkpt lat="42.406150" lon="2.136587">
        <ele>2307.09</ele>
        <time>2016-05-28T11:31:25Z</time>
      </trkpt>
      <trkpt lat="42.406058" lon="2.136567">
        <ele>2303.03</ele>
        <time>2016-05-28T11:31:30Z</time>
      </trkpt>
      <trkpt lat="42.405938" lon="2.136612">
        <ele>2299.06</ele>
        <time>2016-05-28T11:31:36Z</time>
      </trkpt>
      <trkpt lat="42.405848" lon="2.136648">
        <ele>2297.04</ele>
        <time>2016-05-28T11:31:40Z</time>
      </trkpt>
      <trkpt lat="42.405840" lon="2.136786">
        <ele>2293.05</ele>
        <time>2016-05-28T11:31:51Z</time>
      </trkpt>
      <trkpt lat="42.405905" lon="2.136888">
        <ele>2292.02</ele>
        <time>2016-05-28T11:31:54Z</time>
      </trkpt>
      <trkpt lat="42.405973" lon="2.136972">
        <ele>2289.01</ele>
        <time>2016-05-28T11:31:58Z</time>
      </trkpt>
      <trkpt lat="42.406019" lon="2.137088">
        <ele>2286.09</ele>
        <time>2016-05-28T11:32:06Z</time>
      </trkpt>
      <trkpt lat="42.406064" lon="2.137200">
        <ele>2283.09</ele>
        <time>2016-05-28T11:32:11Z</time>
      </trkpt>
      <trkpt lat="42.406094" lon="2.137330">
        <ele>2281.08</ele>
        <time>2016-05-28T11:32:16Z</time>
      </trkpt>
      <trkpt lat="42.405994" lon="2.137345">
        <ele>2274.02</ele>
        <time>2016-05-28T11:32:27Z</time>
      </trkpt>
      <trkpt lat="42.405879" lon="2.137308">
        <ele>2272.01</ele>
        <time>2016-05-28T11:32:31Z</time>
      </trkpt>
      <trkpt lat="42.405773" lon="2.137306">
        <ele>2269.08</ele>
        <time>2016-05-28T11:32:38Z</time>
      </trkpt>
      <trkpt lat="42.405698" lon="2.137382">
        <ele>2265.06</ele>
        <time>2016-05-28T11:32:48Z</time>
      </trkpt>
      <trkpt lat="42.405607" lon="2.137404">
        <ele>2260.08</ele>
        <time>2016-05-28T11:33:00Z</time>
      </trkpt>
      <trkpt lat="42.405516" lon="2.137430">
        <ele>2256.06</ele>
        <time>2016-05-28T11:33:08Z</time>
      </trkpt>
      <trkpt lat="42.405410" lon="2.137415">
        <ele>2252.08</ele>
        <time>2016-05-28T11:33:14Z</time>
      </trkpt>
      <trkpt lat="42.405301" lon="2.137421">
        <ele>2250.05</ele>
        <time>2016-05-28T11:33:18Z</time>
      </trkpt>
      <trkpt lat="42.405203" lon="2.137374">
        <ele>2248.09</ele>
        <time>2016-05-28T11:33:24Z</time>
      </trkpt>
      <trkpt lat="42.405113" lon="2.137344">
        <ele>2247.07</ele>
        <time>2016-05-28T11:33:27Z</time>
      </trkpt>
      <trkpt lat="42.405024" lon="2.137319">
        <ele>2244.06</ele>
        <time>2016-05-28T11:33:32Z</time>
      </trkpt>
      <trkpt lat="42.404920" lon="2.137288">
        <ele>2242.06</ele>
        <time>2016-05-28T11:33:36Z</time>
      </trkpt>
      <trkpt lat="42.404825" lon="2.137279">
        <ele>2239.01</ele>
        <time>2016-05-28T11:33:41Z</time>
      </trkpt>
      <trkpt lat="42.404731" lon="2.137287">
        <ele>2237.01</ele>
        <time>2016-05-28T11:33:48Z</time>
      </trkpt>
      <trkpt lat="42.404623" lon="2.137288">
        <ele>2234.10</ele>
        <time>2016-05-28T11:33:55Z</time>
      </trkpt>
      <trkpt lat="42.404517" lon="2.137294">
        <ele>2233.08</ele>
        <time>2016-05-28T11:33:58Z</time>
      </trkpt>
      <trkpt lat="42.404409" lon="2.137313">
        <ele>2231.10</ele>
        <time>2016-05-28T11:34:01Z</time>
      </trkpt>
      <trkpt lat="42.404314" lon="2.137337">
        <ele>2230.08</ele>
        <time>2016-05-28T11:34:05Z</time>
      </trkpt>
      <trkpt lat="42.404209" lon="2.137312">
        <ele>2227.04</ele>
        <time>2016-05-28T11:34:10Z</time>
      </trkpt>
      <trkpt lat="42.404133" lon="2.137242">
        <ele>2225.08</ele>
        <time>2016-05-28T11:34:16Z</time>
      </trkpt>
      <trkpt lat="42.404171" lon="2.137401">
        <ele>2221.03</ele>
        <time>2016-05-28T11:34:40Z</time>
      </trkpt>
      <trkpt lat="42.404134" lon="2.137524">
        <ele>2222.04</ele>
        <time>2016-05-28T11:34:46Z</time>
      </trkpt>
      <trkpt lat="42.404132" lon="2.137663">
        <ele>2218.04</ele>
        <time>2016-05-28T11:35:05Z</time>
      </trkpt>
      <trkpt lat="42.404102" lon="2.137800">
        <ele>2215.06</ele>
        <time>2016-05-28T11:35:10Z</time>
      </trkpt>
      <trkpt lat="42.404077" lon="2.137927">
        <ele>2210.01</ele>
        <time>2016-05-28T11:35:15Z</time>
      </trkpt>
      <trkpt lat="42.404104" lon="2.138071">
        <ele>2209.01</ele>
        <time>2016-05-28T11:35:21Z</time>
      </trkpt>
      <trkpt lat="42.404102" lon="2.138201">
        <ele>2206.09</ele>
        <time>2016-05-28T11:35:25Z</time>
      </trkpt>
      <trkpt lat="42.404148" lon="2.138336">
        <ele>2203.04</ele>
        <time>2016-05-28T11:35:31Z</time>
      </trkpt>
      <trkpt lat="42.404153" lon="2.138477">
        <ele>2200.03</ele>
        <time>2016-05-28T11:35:38Z</time>
      </trkpt>
      <trkpt lat="42.404156" lon="2.138611">
        <ele>2197.03</ele>
        <time>2016-05-28T11:35:45Z</time>
      </trkpt>
      <trkpt lat="42.404143" lon="2.138741">
        <ele>2195.09</ele>
        <time>2016-05-28T11:35:50Z</time>
      </trkpt>
      <trkpt lat="42.404125" lon="2.138872">
        <ele>2193.08</ele>
        <time>2016-05-28T11:35:53Z</time>
      </trkpt>
      <trkpt lat="42.404100" lon="2.139000">
        <ele>2192.03</ele>
        <time>2016-05-28T11:35:55Z</time>
      </trkpt>
      <trkpt lat="42.404054" lon="2.139114">
        <ele>2191.03</ele>
        <time>2016-05-28T11:36:01Z</time>
      </trkpt>
      <trkpt lat="42.404041" lon="2.139251">
        <ele>2189.09</ele>
        <time>2016-05-28T11:36:11Z</time>
      </trkpt>
      <trkpt lat="42.404038" lon="2.139381">
        <ele>2188.06</ele>
        <time>2016-05-28T11:36:15Z</time>
      </trkpt>
      <trkpt lat="42.404003" lon="2.139552">
        <ele>2186.02</ele>
        <time>2016-05-28T11:36:19Z</time>
      </trkpt>
      <trkpt lat="42.403949" lon="2.139714">
        <ele>2186.01</ele>
        <time>2016-05-28T11:36:24Z</time>
      </trkpt>
      <trkpt lat="42.403913" lon="2.139842">
        <ele>2184.02</ele>
        <time>2016-05-28T11:36:28Z</time>
      </trkpt>
      <trkpt lat="42.403847" lon="2.139944">
        <ele>2183.09</ele>
        <time>2016-05-28T11:36:33Z</time>
      </trkpt>
      <trkpt lat="42.403762" lon="2.140027">
        <ele>2182.07</ele>
        <time>2016-05-28T11:36:37Z</time>
      </trkpt>
      <trkpt lat="42.403666" lon="2.140092">
        <ele>2181.09</ele>
        <time>2016-05-28T11:36:42Z</time>
      </trkpt>
      <trkpt lat="42.403571" lon="2.140179">
        <ele>2178.03</ele>
        <time>2016-05-28T11:36:46Z</time>
      </trkpt>
      <trkpt lat="42.403496" lon="2.140322">
        <ele>2177.02</ele>
        <time>2016-05-28T11:36:52Z</time>
      </trkpt>
      <trkpt lat="42.403408" lon="2.140401">
        <ele>2176.10</ele>
        <time>2016-05-28T11:36:58Z</time>
      </trkpt>
      <trkpt lat="42.403322" lon="2.140488">
        <ele>2173.07</ele>
        <time>2016-05-28T11:37:04Z</time>
      </trkpt>
      <trkpt lat="42.403284" lon="2.140606">
        <ele>2172.08</ele>
        <time>2016-05-28T11:37:09Z</time>
      </trkpt>
      <trkpt lat="42.403218" lon="2.140723">
        <ele>2171.03</ele>
        <time>2016-05-28T11:37:13Z</time>
      </trkpt>
      <trkpt lat="42.403160" lon="2.140840">
        <ele>2171.02</ele>
        <time>2016-05-28T11:37:18Z</time>
      </trkpt>
      <trkpt lat="42.403118" lon="2.140969">
        <ele>2169.01</ele>
        <time>2016-05-28T11:37:22Z</time>
      </trkpt>
      <trkpt lat="42.403098" lon="2.141096">
        <ele>2168.03</ele>
        <time>2016-05-28T11:37:27Z</time>
      </trkpt>
      <trkpt lat="42.403073" lon="2.141246">
        <ele>2164.09</ele>
        <time>2016-05-28T11:37:31Z</time>
      </trkpt>
      <trkpt lat="42.403035" lon="2.141374">
        <ele>2162.04</ele>
        <time>2016-05-28T11:37:36Z</time>
      </trkpt>
      <trkpt lat="42.402978" lon="2.141486">
        <ele>2160.03</ele>
        <time>2016-05-28T11:37:39Z</time>
      </trkpt>
      <trkpt lat="42.402885" lon="2.141553">
        <ele>2160.01</ele>
        <time>2016-05-28T11:37:44Z</time>
      </trkpt>
      <trkpt lat="42.402785" lon="2.141676">
        <ele>2157.02</ele>
        <time>2016-05-28T11:37:49Z</time>
      </trkpt>
      <trkpt lat="42.402732" lon="2.141796">
        <ele>2156.05</ele>
        <time>2016-05-28T11:37:54Z</time>
      </trkpt>
      <trkpt lat="42.402691" lon="2.141918">
        <ele>2156.06</ele>
        <time>2016-05-28T11:37:58Z</time>
      </trkpt>
      <trkpt lat="42.402606" lon="2.142030">
        <ele>2154.07</ele>
        <time>2016-05-28T11:38:04Z</time>
      </trkpt>
      <trkpt lat="42.402520" lon="2.142126">
        <ele>2153.04</ele>
        <time>2016-05-28T11:38:09Z</time>
      </trkpt>
      <trkpt lat="42.402451" lon="2.142208">
        <ele>2153.01</ele>
        <time>2016-05-28T11:38:12Z</time>
      </trkpt>
      <trkpt lat="42.402320" lon="2.142246">
        <ele>2154.01</ele>
        <time>2016-05-28T11:38:16Z</time>
      </trkpt>
      <trkpt lat="42.402209" lon="2.142245">
        <ele>2154.09</ele>
        <time>2016-05-28T11:38:21Z</time>
      </trkpt>
      <trkpt lat="42.402109" lon="2.142223">
        <ele>2158.04</ele>
        <time>2016-05-28T11:38:24Z</time>
      </trkpt>
      <trkpt lat="42.402011" lon="2.142217">
        <ele>2154.07</ele>
        <time>2016-05-28T11:38:31Z</time>
      </trkpt>
      <trkpt lat="42.401897" lon="2.142229">
        <ele>2155.08</ele>
        <time>2016-05-28T11:38:37Z</time>
      </trkpt>
      <trkpt lat="42.401801" lon="2.142236">
        <ele>2154.08</ele>
        <time>2016-05-28T11:38:41Z</time>
      </trkpt>
      <trkpt lat="42.401728" lon="2.142328">
        <ele>2152.10</ele>
        <time>2016-05-28T11:38:47Z</time>
      </trkpt>
      <trkpt lat="42.401791" lon="2.142468">
        <ele>2150.04</ele>
        <time>2016-05-28T11:38:52Z</time>
      </trkpt>
      <trkpt lat="42.401876" lon="2.142517">
        <ele>2147.08</ele>
        <time>2016-05-28T11:39:00Z</time>
      </trkpt>
      <trkpt lat="42.401899" lon="2.142644">
        <ele>2138.06</ele>
        <time>2016-05-28T11:39:16Z</time>
      </trkpt>
      <trkpt lat="42.401893" lon="2.142769">
        <ele>2132.05</ele>
        <time>2016-05-28T11:39:29Z</time>
      </trkpt>
      <trkpt lat="42.401857" lon="2.142914">
        <ele>2128.02</ele>
        <time>2016-05-28T11:39:34Z</time>
      </trkpt>
      <trkpt lat="42.401832" lon="2.143034">
        <ele>2125.01</ele>
        <time>2016-05-28T11:39:40Z</time>
      </trkpt>
      <trkpt lat="42.401818" lon="2.143174">
        <ele>2121.07</ele>
        <time>2016-05-28T11:39:46Z</time>
      </trkpt>
      <trkpt lat="42.401811" lon="2.143299">
        <ele>2118.02</ele>
        <time>2016-05-28T11:39:51Z</time>
      </trkpt>
      <trkpt lat="42.401799" lon="2.143451">
        <ele>2114.03</ele>
        <time>2016-05-28T11:39:57Z</time>
      </trkpt>
      <trkpt lat="42.401827" lon="2.143574">
        <ele>2112.07</ele>
        <time>2016-05-28T11:40:01Z</time>
      </trkpt>
      <trkpt lat="42.401856" lon="2.143705">
        <ele>2110.04</ele>
        <time>2016-05-28T11:40:06Z</time>
      </trkpt>
      <trkpt lat="42.401867" lon="2.143863">
        <ele>2105.03</ele>
        <time>2016-05-28T11:40:12Z</time>
      </trkpt>
      <trkpt lat="42.401925" lon="2.143993">
        <ele>2102.06</ele>
        <time>2016-05-28T11:40:19Z</time>
      </trkpt>
      <trkpt lat="42.401961" lon="2.144112">
        <ele>2100.04</ele>
        <time>2016-05-28T11:40:24Z</time>
      </trkpt>
      <trkpt lat="42.401932" lon="2.144246">
        <ele>2096.06</ele>
        <time>2016-05-28T11:40:33Z</time>
      </trkpt>
      <trkpt lat="42.401898" lon="2.144373">
        <ele>2095.00</ele>
        <time>2016-05-28T11:40:39Z</time>
      </trkpt>
      <trkpt lat="42.401871" lon="2.144492">
        <ele>2091.02</ele>
        <time>2016-05-28T11:40:46Z</time>
      </trkpt>
      <trkpt lat="42.401819" lon="2.144605">
        <ele>2088.01</ele>
        <time>2016-05-28T11:40:54Z</time>
      </trkpt>
      <trkpt lat="42.401752" lon="2.144697">
        <ele>2085.10</ele>
        <time>2016-05-28T11:41:03Z</time>
      </trkpt>
      <trkpt lat="42.401651" lon="2.144699">
        <ele>2082.05</ele>
        <time>2016-05-28T11:41:08Z</time>
      </trkpt>
      <trkpt lat="42.401561" lon="2.144713">
        <ele>2081.03</ele>
        <time>2016-05-28T11:41:14Z</time>
      </trkpt>
      <trkpt lat="42.401468" lon="2.144698">
        <ele>2080.01</ele>
        <time>2016-05-28T11:41:21Z</time>
      </trkpt>
      <trkpt lat="42.401384" lon="2.144760">
        <ele>2080.03</ele>
        <time>2016-05-28T11:41:29Z</time>
      </trkpt>
      <trkpt lat="42.401336" lon="2.144884">
        <ele>2081.03</ele>
        <time>2016-05-28T11:41:34Z</time>
      </trkpt>
      <trkpt lat="42.401317" lon="2.145024">
        <ele>2080.05</ele>
        <time>2016-05-28T11:41:41Z</time>
      </trkpt>
      <trkpt lat="42.401271" lon="2.145152">
        <ele>2079.07</ele>
        <time>2016-05-28T11:41:46Z</time>
      </trkpt>
      <trkpt lat="42.401236" lon="2.145283">
        <ele>2076.08</ele>
        <time>2016-05-28T11:41:53Z</time>
      </trkpt>
      <trkpt lat="42.401185" lon="2.145385">
        <ele>2072.06</ele>
        <time>2016-05-28T11:41:59Z</time>
      </trkpt>
      <trkpt lat="42.401140" lon="2.145517">
        <ele>2070.03</ele>
        <time>2016-05-28T11:42:05Z</time>
      </trkpt>
      <trkpt lat="42.401100" lon="2.145632">
        <ele>2065.01</ele>
        <time>2016-05-28T11:42:21Z</time>
      </trkpt>
      <trkpt lat="42.401014" lon="2.145720">
        <ele>2062.08</ele>
        <time>2016-05-28T11:42:27Z</time>
      </trkpt>
      <trkpt lat="42.400943" lon="2.145800">
        <ele>2060.08</ele>
        <time>2016-05-28T11:42:31Z</time>
      </trkpt>
      <trkpt lat="42.400861" lon="2.145910">
        <ele>2060.02</ele>
        <time>2016-05-28T11:42:34Z</time>
      </trkpt>
      <trkpt lat="42.400792" lon="2.146000">
        <ele>2057.09</ele>
        <time>2016-05-28T11:42:39Z</time>
      </trkpt>
      <trkpt lat="42.400735" lon="2.146098">
        <ele>2057.02</ele>
        <time>2016-05-28T11:42:43Z</time>
      </trkpt>
      <trkpt lat="42.400670" lon="2.146200">
        <ele>2055.08</ele>
        <time>2016-05-28T11:42:51Z</time>
      </trkpt>
      <trkpt lat="42.400583" lon="2.146300">
        <ele>2052.06</ele>
        <time>2016-05-28T11:42:55Z</time>
      </trkpt>
      <trkpt lat="42.400505" lon="2.146386">
        <ele>2050.09</ele>
        <time>2016-05-28T11:43:00Z</time>
      </trkpt>
      <trkpt lat="42.400456" lon="2.146508">
        <ele>2049.09</ele>
        <time>2016-05-28T11:43:07Z</time>
      </trkpt>
      <trkpt lat="42.400397" lon="2.146633">
        <ele>2047.06</ele>
        <time>2016-05-28T11:43:15Z</time>
      </trkpt>
      <trkpt lat="42.400365" lon="2.146773">
        <ele>2044.02</ele>
        <time>2016-05-28T11:43:24Z</time>
      </trkpt>
      <trkpt lat="42.400340" lon="2.146897">
        <ele>2041.01</ele>
        <time>2016-05-28T11:43:35Z</time>
      </trkpt>
      <trkpt lat="42.400405" lon="2.146985">
        <ele>2040.09</ele>
        <time>2016-05-28T11:43:41Z</time>
      </trkpt>
      <trkpt lat="42.400408" lon="2.147115">
        <ele>2037.03</ele>
        <time>2016-05-28T11:43:49Z</time>
      </trkpt>
      <trkpt lat="42.400411" lon="2.147237">
        <ele>2035.03</ele>
        <time>2016-05-28T11:43:56Z</time>
      </trkpt>
      <trkpt lat="42.400464" lon="2.147367">
        <ele>2032.05</ele>
        <time>2016-05-28T11:44:01Z</time>
      </trkpt>
      <trkpt lat="42.400470" lon="2.147490">
        <ele>2032.09</ele>
        <time>2016-05-28T11:44:05Z</time>
      </trkpt>
      <trkpt lat="42.400424" lon="2.147615">
        <ele>2030.10</ele>
        <time>2016-05-28T11:44:18Z</time>
      </trkpt>
      <trkpt lat="42.400326" lon="2.147695">
        <ele>2029.09</ele>
        <time>2016-05-28T11:44:25Z</time>
      </trkpt>
      <trkpt lat="42.400240" lon="2.147765">
        <ele>2027.01</ele>
        <time>2016-05-28T11:44:32Z</time>
      </trkpt>
      <trkpt lat="42.400156" lon="2.147849">
        <ele>2026.07</ele>
        <time>2016-05-28T11:44:38Z</time>
      </trkpt>
      <trkpt lat="42.400074" lon="2.147941">
        <ele>2025.03</ele>
        <time>2016-05-28T11:44:42Z</time>
      </trkpt>
      <trkpt lat="42.400011" lon="2.148041">
        <ele>2024.02</ele>
        <time>2016-05-28T11:44:46Z</time>
      </trkpt>
      <trkpt lat="42.399935" lon="2.148148">
        <ele>2022.01</ele>
        <time>2016-05-28T11:44:50Z</time>
      </trkpt>
      <trkpt lat="42.399859" lon="2.148238">
        <ele>2022.10</ele>
        <time>2016-05-28T11:44:54Z</time>
      </trkpt>
      <trkpt lat="42.399778" lon="2.148392">
        <ele>2022.03</ele>
        <time>2016-05-28T11:44:58Z</time>
      </trkpt>
      <trkpt lat="42.399737" lon="2.148527">
        <ele>2020.03</ele>
        <time>2016-05-28T11:45:03Z</time>
      </trkpt>
      <trkpt lat="42.399691" lon="2.148663">
        <ele>2019.05</ele>
        <time>2016-05-28T11:45:07Z</time>
      </trkpt>
      <trkpt lat="42.399637" lon="2.148799">
        <ele>2017.02</ele>
        <time>2016-05-28T11:45:11Z</time>
      </trkpt>
      <trkpt lat="42.399602" lon="2.148946">
        <ele>2015.06</ele>
        <time>2016-05-28T11:45:15Z</time>
      </trkpt>
      <trkpt lat="42.399559" lon="2.149083">
        <ele>2015.07</ele>
        <time>2016-05-28T11:45:19Z</time>
      </trkpt>
      <trkpt lat="42.399519" lon="2.149211">
        <ele>2014.08</ele>
        <time>2016-05-28T11:45:23Z</time>
      </trkpt>
      <trkpt lat="42.399471" lon="2.149343">
        <ele>2013.10</ele>
        <time>2016-05-28T11:45:28Z</time>
      </trkpt>
      <trkpt lat="42.399419" lon="2.149451">
        <ele>2013.01</ele>
        <time>2016-05-28T11:45:32Z</time>
      </trkpt>
      <trkpt lat="42.399368" lon="2.149560">
        <ele>2012.03</ele>
        <time>2016-05-28T11:45:36Z</time>
      </trkpt>
      <trkpt lat="42.399323" lon="2.149666">
        <ele>2012.01</ele>
        <time>2016-05-28T11:45:39Z</time>
      </trkpt>
      <trkpt lat="42.399269" lon="2.149792">
        <ele>2010.07</ele>
        <time>2016-05-28T11:45:43Z</time>
      </trkpt>
      <trkpt lat="42.399226" lon="2.149916">
        <ele>2009.01</ele>
        <time>2016-05-28T11:45:47Z</time>
      </trkpt>
      <trkpt lat="42.399187" lon="2.150053">
        <ele>2009.09</ele>
        <time>2016-05-28T11:45:51Z</time>
      </trkpt>
      <trkpt lat="42.399166" lon="2.150178">
        <ele>2008.06</ele>
        <time>2016-05-28T11:45:55Z</time>
      </trkpt>
      <trkpt lat="42.399116" lon="2.150307">
        <ele>2008.01</ele>
        <time>2016-05-28T11:45:59Z</time>
      </trkpt>
      <trkpt lat="42.399050" lon="2.150412">
        <ele>2007.02</ele>
        <time>2016-05-28T11:46:03Z</time>
      </trkpt>
      <trkpt lat="42.399003" lon="2.150553">
        <ele>2006.06</ele>
        <time>2016-05-28T11:46:07Z</time>
      </trkpt>
      <trkpt lat="42.398970" lon="2.150670">
        <ele>2004.04</ele>
        <time>2016-05-28T11:46:11Z</time>
      </trkpt>
      <trkpt lat="42.398934" lon="2.150816">
        <ele>2003.02</ele>
        <time>2016-05-28T11:46:15Z</time>
      </trkpt>
      <trkpt lat="42.398905" lon="2.150934">
        <ele>2003.10</ele>
        <time>2016-05-28T11:46:18Z</time>
      </trkpt>
      <trkpt lat="42.398869" lon="2.151052">
        <ele>2002.02</ele>
        <time>2016-05-28T11:46:21Z</time>
      </trkpt>
      <trkpt lat="42.398817" lon="2.151193">
        <ele>2002.01</ele>
        <time>2016-05-28T11:46:25Z</time>
      </trkpt>
      <trkpt lat="42.398757" lon="2.151323">
        <ele>2001.09</ele>
        <time>2016-05-28T11:46:29Z</time>
      </trkpt>
      <trkpt lat="42.398714" lon="2.151440">
        <ele>2001.05</ele>
        <time>2016-05-28T11:46:32Z</time>
      </trkpt>
      <trkpt lat="42.398675" lon="2.151556">
        <ele>1999.09</ele>
        <time>2016-05-28T11:46:35Z</time>
      </trkpt>
      <trkpt lat="42.398623" lon="2.151696">
        <ele>1999.08</ele>
        <time>2016-05-28T11:46:39Z</time>
      </trkpt>
      <trkpt lat="42.398579" lon="2.151841">
        <ele>1998.03</ele>
        <time>2016-05-28T11:46:43Z</time>
      </trkpt>
      <trkpt lat="42.398532" lon="2.151952">
        <ele>1996.03</ele>
        <time>2016-05-28T11:46:46Z</time>
      </trkpt>
      <trkpt lat="42.398469" lon="2.152044">
        <ele>1995.09</ele>
        <time>2016-05-28T11:46:50Z</time>
      </trkpt>
      <trkpt lat="42.398412" lon="2.152156">
        <ele>1995.07</ele>
        <time>2016-05-28T11:46:54Z</time>
      </trkpt>
      <trkpt lat="42.398330" lon="2.152256">
        <ele>1994.09</ele>
        <time>2016-05-28T11:46:58Z</time>
      </trkpt>
      <trkpt lat="42.398239" lon="2.152264">
        <ele>1993.06</ele>
        <time>2016-05-28T11:47:04Z</time>
      </trkpt>
      <trkpt lat="42.398145" lon="2.152299">
        <ele>1992.02</ele>
        <time>2016-05-28T11:47:11Z</time>
      </trkpt>
      <trkpt lat="42.398077" lon="2.152380">
        <ele>1992.01</ele>
        <time>2016-05-28T11:47:18Z</time>
      </trkpt>
      <trkpt lat="42.398029" lon="2.152488">
        <ele>1991.06</ele>
        <time>2016-05-28T11:47:25Z</time>
      </trkpt>
      <trkpt lat="42.398022" lon="2.152614">
        <ele>1991.02</ele>
        <time>2016-05-28T11:47:41Z</time>
      </trkpt>
      <trkpt lat="42.397873" lon="2.152581">
        <ele>1989.04</ele>
        <time>2016-05-28T11:47:52Z</time>
      </trkpt>
      <trkpt lat="42.397772" lon="2.152624">
        <ele>1989.02</ele>
        <time>2016-05-28T11:48:00Z</time>
      </trkpt>
      <trkpt lat="42.397570" lon="2.152624">
        <ele>1989.05</ele>
        <time>2016-05-28T11:48:08Z</time>
      </trkpt>
      <trkpt lat="42.396958" lon="2.152479">
        <ele>1988.06</ele>
        <time>2016-05-28T11:48:18Z</time>
      </trkpt>
      <trkpt lat="42.396724" lon="2.152718">
        <ele>1988.08</ele>
        <time>2016-05-28T11:48:33Z</time>
      </trkpt>
      <trkpt lat="42.396453" lon="2.152445">
        <ele>1960.02</ele>
        <time>2016-05-28T12:01:17Z</time>
      </trkpt>
    </trkseg>
  </trk>
</gpx>
